ftp/pub/palmer/observations_modified/2019/May/original_files/AR190501_BASE.txt

Download

Sample DateTime	Unit Id	WS Avg 2min	WD Avg 2min	WGS 10min	WGD 10min	Air Temp	Rel Humidity	Dew Point	Pyranometer	Quantum	Air Pressure	Snow Level	Rainfall	PW Current	Visibility	CBase 1	CBase 2	CBase 3	Vert Vis
2019/05/01 00:00:00	BASE	3.20	65	4.58	63	-4.0	70	-8.7	0	0	977.9	NA	0.0000		9999	3740	0	0	0
2019/05/01 00:01:00	BASE	3.11	67	4.58	63	-4.0	70	-8.7	0	0	977.9	NA	0.0000		9999	3640	0	0	0
2019/05/01 00:02:00	BASE	3.30	71	4.58	63	-4.0	70	-8.7	0	0	977.9	NA	0.0000		9999	3740	0	0	0
2019/05/01 00:03:00	BASE	3.45	75	4.58	63	-4.0	70	-8.7	0	0	977.9	NA	0.0000		9999	3740	0	0	0
2019/05/01 00:04:00	BASE	3.45	78	4.58	63	-4.0	69	-8.8	0	0	977.8	NA	0.0000		9999	3610	0	0	0
2019/05/01 00:05:00	BASE	3.35	85	4.58	63	-4.0	69	-8.8	0	0	977.8	NA	0.0000		9999	3510	0	0	0
2019/05/01 00:06:00	BASE	2.95	85	4.58	63	-4.0	69	-8.9	0	0	977.8	NA	0.0000		9999	3580	0	0	0
2019/05/01 00:07:00	BASE	2.77	77	4.58	63	-4.0	69	-8.9	0	0	977.8	NA	0.0000		9999	3380	0	0	0
2019/05/01 00:08:00	BASE	2.99	73	3.96	84	-4.0	69	-8.9	0	0	977.8	NA	0.0000		9999	3510	0	0	0
2019/05/01 00:09:00	BASE	2.85	77	3.96	84	-3.9	68	-8.9	0	0	977.7	NA	0.0000		9999	3450	0	0	0
2019/05/01 00:10:00	BASE	2.62	87	3.96	84	-3.9	68	-9.0	0	0	977.7	NA	0.0000		9999	3580	0	0	0
2019/05/01 00:11:00	BASE	2.82	94	3.96	84	-3.8	67	-9.1	0	0	977.7	NA	0.0000		9999	3640	0	0	0
2019/05/01 00:12:00	BASE	3.06	96	3.96	84	-3.8	66	-9.2	0	0	977.7	NA	0.0000		9999	3540	0	0	0
2019/05/01 00:13:00	BASE	3.20	92	3.96	84	-3.8	66	-9.3	0	0	977.7	NA	0.0000		9999	3480	0	0	0
2019/05/01 00:14:00	BASE	3.45	88	3.81	87	-3.9	65	-9.4	0	0	977.7	NA	0.0000		9999	3410	0	0	0
2019/05/01 00:15:00	BASE	3.74	87	4.63	92	-3.9	65	-9.4	0	0	977.6	NA	0.0000		9999	3510	0	0	0
2019/05/01 00:16:00	BASE	4.15	88	4.63	92	-3.9	65	-9.5	0	0	977.6	NA	0.0000		9999	3610	0	0	0
2019/05/01 00:17:00	BASE	4.21	87	4.63	92	-4.0	65	-9.5	0	0	977.6	NA	0.0000		9999	3610	0	0	0
2019/05/01 00:18:00	BASE	4.00	86	4.63	92	-4.0	66	-9.5	0	0	977.6	NA	0.0000		9999	3540	0	0	0
2019/05/01 00:19:00	BASE	3.97	85	4.63	92	-4.1	66	-9.5	0	0	977.6	NA	0.0000		9999	3540	0	0	0
2019/05/01 00:20:00	BASE	3.83	83	4.63	92	-4.1	66	-9.5	0	0	977.6	NA	0.0000		9999	3310	0	0	0
2019/05/01 00:21:00	BASE	3.59	81	4.63	92	-4.0	66	-9.4	0	0	977.6	NA	0.0000		9999	3510	0	0	0
2019/05/01 00:22:00	BASE	3.34	82	4.63	92	-4.0	66	-9.3	0	0	977.6	NA	0.0000		9999	3540	0	0	0
2019/05/01 00:23:00	BASE	3.17	83	4.63	92	-4.0	66	-9.3	0	0	977.6	NA	0.0000		9999	3410	0	0	0
2019/05/01 00:24:00	BASE	3.04	84	4.63	92	-3.9	66	-9.3	0	0	977.6	NA	0.0000		9999	3380	0	0	0
2019/05/01 00:25:00	BASE	3.01	83	4.53	89	-3.9	66	-9.4	0	0	977.6	NA	0.0000		9999	3310	0	0	0
2019/05/01 00:26:00	BASE	3.06	78	4.37	91	-3.9	66	-9.4	0	0	977.6	NA	0.0000		9999	3220	0	0	0
2019/05/01 00:27:00	BASE	2.93	74	4.37	91	-4.0	65	-9.5	0	0	977.6	NA	0.0000		9999	3250	0	0	0
2019/05/01 00:28:00	BASE	2.93	68	4.37	91	-4.0	65	-9.5	0	0	977.6	NA	0.0000		9999	3120	0	0	0
2019/05/01 00:29:00	BASE	3.05	63	3.91	84	-4.0	65	-9.6	0	0	977.6	NA	0.0000		9999	3150	0	0	0
2019/05/01 00:30:00	BASE	3.29	63	3.76	58	-4.0	65	-9.6	0	0	977.6	NA	0.0000		9999	3220	0	0	0
2019/05/01 00:31:00	BASE	3.42	60	3.76	58	-3.9	65	-9.6	0	0	977.6	NA	0.0000		9999	3180	0	0	0
2019/05/01 00:32:00	BASE	3.31	58	3.76	58	-3.9	65	-9.6	0	0	977.6	NA	0.0000		9999	0	0	0	0
2019/05/01 00:33:00	BASE	3.10	57	3.76	58	-3.9	64	-9.6	0	0	977.6	NA	0.0000		9999	0	0	0	0
2019/05/01 00:34:00	BASE	2.92	54	3.76	58	-3.8	64	-9.7	0	0	977.6	NA	0.0000		9999	0	0	0	0
2019/05/01 00:35:00	BASE	2.97	53	3.76	58	-3.9	63	-9.8	0	0	977.6	NA	0.0000		9999	0	0	0	0
2019/05/01 00:36:00	BASE	3.04	50	3.76	58	-3.9	63	-9.8	0	0	977.6	NA	0.0000		9999	0	0	0	0
2019/05/01 00:37:00	BASE	3.08	47	3.76	58	-3.9	64	-9.8	0	0	977.6	NA	0.0000		9999	0	0	0	0
2019/05/01 00:38:00	BASE	3.22	51	3.76	58	-4.0	64	-9.8	0	0	977.6	NA	0.0000		9999	0	0	0	0
2019/05/01 00:39:00	BASE	3.38	53	3.76	58	-4.0	64	-9.8	0	0	977.6	NA	0.0000		9999	0	0	0	0
2019/05/01 00:40:00	BASE	3.44	50	3.65	49	-4.0	64	-9.8	0	0	977.6	NA	0.0000		9999	0	0	0	0
2019/05/01 00:41:00	BASE	3.40	50	3.76	53	-4.1	65	-9.7	0	0	977.6	NA	0.0000		9999	0	0	0	0
2019/05/01 00:42:00	BASE	3.39	48	3.81	44	-4.0	65	-9.6	0	0	977.6	NA	0.0000		9999	0	0	0	0
2019/05/01 00:43:00	BASE	2.96	47	3.81	44	-4.0	66	-9.5	0	0	977.6	NA	0.0000		9999	0	0	0	0
2019/05/01 00:44:00	BASE	2.60	56	3.81	44	-4.1	66	-9.4	0	0	977.6	NA	0.0000		9999	0	0	0	0
2019/05/01 00:45:00	BASE	2.98	59	3.81	44	-4.1	67	-9.4	0	0	977.6	NA	0.0000		9999	0	0	0	0
2019/05/01 00:46:00	BASE	3.56	54	4.01	48	-4.2	67	-9.3	0	0	977.6	NA	0.0000		9999	0	0	0	0
2019/05/01 00:47:00	BASE	3.34	58	4.01	48	-4.3	68	-9.4	0	0	977.5	NA	0.0000		9999	0	0	0	0
2019/05/01 00:48:00	BASE	3.08	70	4.01	48	-4.4	68	-9.4	0	0	977.4	NA	0.0000		9999	0	0	0	0
2019/05/01 00:49:00	BASE	3.35	67	4.01	65	-4.4	68	-9.5	0	0	977.4	NA	0.0000		9999	0	0	0	0
2019/05/01 00:50:00	BASE	3.25	67	4.01	65	-4.4	68	-9.5	0	0	977.4	NA	0.0000		9999	0	0	0	0
2019/05/01 00:51:00	BASE	3.10	74	4.01	65	-4.4	67	-9.6	0	0	977.4	NA	0.0000		9999	0	0	0	0
2019/05/01 00:52:00	BASE	3.15	68	4.01	65	-4.3	67	-9.6	0	0	977.4	NA	0.0000		9999	0	0	0	0
2019/05/01 00:53:00	BASE	3.08	62	4.01	65	-4.2	66	-9.6	0	0	977.4	NA	0.0000		9999	0	0	0	0
2019/05/01 00:54:00	BASE	2.81	57	4.01	65	-4.1	66	-9.6	0	0	977.4	NA	0.0000		9999	0	0	0	0
2019/05/01 00:55:00	BASE	2.19	46	4.01	65	-4.0	65	-9.7	0	0	977.4	NA	0.0000		9999	0	0	0	0
2019/05/01 00:56:00	BASE	1.82	38	4.01	65	-4.0	64	-9.8	0	0	977.4	NA	0.0000		9999	0	0	0	0
2019/05/01 00:57:00	BASE	2.07	31	4.01	65	-4.0	64	-9.9	0	0	977.4	NA	0.0000		9999	0	0	0	0
2019/05/01 00:58:00	BASE	1.85	26	4.01	65	-3.9	63	-9.9	0	0	977.4	NA	0.0000		9999	0	0	0	0
2019/05/01 00:59:01	BASE	1.52	22	3.96	61	-4.0	63	-10.0	0	0	977.4	NA	0.0000		9999	0	0	0	0
2019/05/01 01:00:00	BASE	2.06	25	3.96	61	-4.0	63	-9.9	0	0	977.4	NA	0.0000		9999	0	0	0	0
2019/05/01 01:01:00	BASE	2.53	40	3.96	61	-4.0	64	-9.9	0	0	977.4	NA	0.0000		9999	0	0	0	0
2019/05/01 01:02:00	BASE	2.38	50	3.91	48	-4.0	64	-9.8	0	0	977.4	NA	0.0000		9999	0	0	0	0
2019/05/01 01:03:00	BASE	2.26	59	3.45	49	-4.0	65	-9.7	0	0	977.4	NA	0.0000		9999	0	0	0	0
2019/05/01 01:04:00	BASE	2.51	56	4.48	24	-4.1	65	-9.6	0	0	977.3	NA	0.0000		9999	0	0	0	0
2019/05/01 01:05:00	BASE	3.59	38	4.94	25	-4.1	66	-9.5	0	0	977.3	NA	0.0000		9999	0	0	0	0
2019/05/01 01:06:00	BASE	3.83	40	4.94	25	-4.1	66	-9.5	0	0	977.4	NA	0.0000		9999	0	0	0	0
2019/05/01 01:07:00	BASE	2.66	66	4.94	25	-4.1	66	-9.5	0	0	977.3	NA	0.0000		9999	0	0	0	0
2019/05/01 01:08:00	BASE	2.38	75	4.94	25	-4.2	66	-9.5	0	0	977.3	NA	0.0000		9999	0	0	0	0
2019/05/01 01:09:00	BASE	2.08	70	4.94	25	-4.2	67	-9.4	0	0	977.3	NA	0.0000		9999	0	0	0	0
2019/05/01 01:10:00	BASE	2.23	55	4.94	25	-4.2	67	-9.4	0	0	977.3	NA	0.0000		9999	0	0	0	0
2019/05/01 01:11:00	BASE	3.35	44	4.94	25	-4.2	67	-9.5	0	0	977.3	NA	0.0000		9999	0	0	0	0
2019/05/01 01:12:00	BASE	3.65	37	4.94	25	-4.2	67	-9.5	0	0	977.3	NA	0.0000		9999	0	0	0	0
2019/05/01 01:13:00	BASE	3.05	37	4.94	25	-4.2	67	-9.4	0	0	977.3	NA	0.0000		9999	0	0	0	0
2019/05/01 01:14:00	BASE	2.40	49	4.94	25	-4.2	67	-9.4	0	0	977.3	NA	0.0000		9999	0	0	0	0
2019/05/01 01:15:00	BASE	2.71	58	4.32	41	-4.1	67	-9.3	0	0	977.3	NA	0.0000		9999	0	0	0	0
2019/05/01 01:16:00	BASE	3.27	60	4.32	41	-4.1	67	-9.2	0	0	977.3	NA	0.0000		9999	0	0	0	0
2019/05/01 01:17:00	BASE	3.22	56	4.32	41	-4.0	67	-9.2	0	0	977.3	NA	0.0000		9999	0	0	0	0
2019/05/01 01:18:00	BASE	2.80	59	4.32	41	-3.9	67	-9.3	0	0	977.3	NA	0.0000		9999	0	0	0	0
2019/05/01 01:19:00	BASE	3.00	62	4.32	41	-3.9	66	-9.3	0	0	977.3	NA	0.0000		9999	0	0	0	0
2019/05/01 01:20:00	BASE	2.99	68	4.32	41	-3.9	66	-9.4	0	0	977.3	NA	0.0000		9999	0	0	0	0
2019/05/01 01:21:00	BASE	2.38	70	4.17	50	-3.9	66	-9.4	0	0	977.3	NA	0.0000		9999	0	0	0	0
2019/05/01 01:22:00	BASE	2.56	68	4.17	50	-3.9	66	-9.4	0	0	977.3	NA	0.0000		9999	0	0	0	0
2019/05/01 01:23:00	BASE	2.90	76	4.17	50	-3.9	66	-9.3	0	0	977.3	NA	0.0000		9999	0	0	0	0
2019/05/01 01:24:00	BASE	3.35	79	4.17	50	-3.9	66	-9.4	0	0	977.3	NA	0.0000		9999	0	0	0	0
2019/05/01 01:25:00	BASE	3.20	77	4.17	50	-3.9	66	-9.3	0	0	977.3	NA	0.0000		9999	0	0	0	0
2019/05/01 01:26:00	BASE	2.66	80	4.17	50	-3.9	66	-9.3	0	0	977.3	NA	0.0000		9999	0	0	0	0
2019/05/01 01:27:00	BASE	2.75	77	4.12	87	-3.9	67	-9.2	0	0	977.3	NA	0.0000		9999	0	0	0	0
2019/05/01 01:28:00	BASE	2.91	74	4.12	87	-3.9	67	-9.2	0	0	977.3	NA	0.0000		9999	0	0	0	0
2019/05/01 01:29:00	BASE	2.75	80	4.12	87	-3.9	67	-9.1	0	0	977.3	NA	0.0000		9999	0	0	0	0
2019/05/01 01:30:00	BASE	2.48	69	4.12	87	-3.9	67	-9.1	0	0	977.3	NA	0.0000		9999	0	0	0	0
2019/05/01 01:31:00	BASE	2.30	45	4.12	87	-3.9	67	-9.1	0	0	977.3	NA	0.0000		9999	0	0	0	0
2019/05/01 01:32:00	BASE	2.04	33	4.12	87	-3.9	67	-9.1	0	0	977.3	NA	0.0000		9999	0	0	0	0
2019/05/01 01:33:00	BASE	2.18	37	4.12	87	-3.9	67	-9.1	0	0	977.3	NA	0.0000		9999	0	0	0	0
2019/05/01 01:34:00	BASE	2.70	44	3.91	30	-3.8	67	-9.2	0	0	977.3	NA	0.0000		9999	0	0	0	0
2019/05/01 01:35:00	BASE	2.73	37	3.91	30	-3.8	66	-9.2	0	0	977.3	NA	0.0000		9999	0	0	0	0
2019/05/01 01:36:00	BASE	2.11	34	3.91	30	-3.7	66	-9.2	0	0	977.3	NA	0.0000		9999	0	0	0	0
2019/05/01 01:37:00	BASE	1.80	43	3.91	30	-3.7	66	-9.2	0	0	977.3	NA	0.0000		9999	0	0	0	0
2019/05/01 01:38:00	BASE	1.74	46	3.91	30	-3.7	66	-9.2	0	0	977.3	NA	0.0000		9999	0	0	0	0
2019/05/01 01:39:00	BASE	1.88	43	3.91	30	-3.7	66	-9.2	0	0	977.3	NA	0.0000		9999	0	0	0	0
2019/05/01 01:40:00	BASE	2.36	49	3.91	30	-3.7	66	-9.2	0	0	977.3	NA	0.0000		9999	0	0	0	0
2019/05/01 01:41:00	BASE	2.61	53	3.91	30	-3.7	66	-9.1	0	0	977.3	NA	0.0000		9999	0	0	0	0
2019/05/01 01:42:00	BASE	2.65	52	3.91	30	-3.7	67	-9.0	0	0	977.3	NA	0.0000		9999	0	0	0	0
2019/05/01 01:43:00	BASE	2.76	55	3.91	30	-3.8	67	-9.0	0	0	977.3	NA	0.0000		9999	0	0	0	0
2019/05/01 01:44:00	BASE	2.68	52	3.19	54	-3.8	67	-9.0	0	0	977.3	NA	0.0000		9999	0	0	0	0
2019/05/01 01:45:00	BASE	2.59	55	3.29	71	-3.8	67	-9.0	0	0	977.3	NA	0.0000		9999	0	0	0	0
2019/05/01 01:46:00	BASE	2.65	61	3.29	71	-3.8	67	-9.0	0	0	977.2	NA	0.0000		9999	0	0	0	0
2019/05/01 01:47:00	BASE	2.40	57	3.29	71	-3.9	67	-9.0	0	0	977.2	NA	0.0000		9999	0	0	0	0
2019/05/01 01:48:00	BASE	2.08	62	3.29	71	-3.9	68	-9.0	0	0	977.2	NA	0.0000		9999	0	0	0	0
2019/05/01 01:49:00	BASE	2.16	67	3.29	71	-3.9	68	-9.0	0	0	977.2	NA	0.0000		9999	0	0	0	0
2019/05/01 01:50:00	BASE	2.35	61	3.29	71	-3.9	68	-8.9	0	0	977.2	NA	0.0000		9999	0	0	0	0
2019/05/01 01:51:00	BASE	2.38	55	3.29	71	-3.9	68	-8.9	0	0	977.2	NA	0.0000		9999	0	0	0	0
2019/05/01 01:52:00	BASE	2.63	49	3.29	71	-3.9	68	-8.9	0	0	977.2	NA	0.0000		9999	0	0	0	0
2019/05/01 01:53:00	BASE	2.73	52	3.29	71	-3.8	68	-8.9	0	0	977.2	NA	0.0000		9999	0	0	0	0
2019/05/01 01:54:00	BASE	2.73	55	3.29	71	-3.8	67	-8.9	0	0	977.2	NA	0.0000		9999	0	0	0	0
2019/05/01 01:55:00	BASE	2.69	54	3.24	52	-3.8	67	-9.0	0	0	977.2	NA	0.0000		9999	0	0	0	0
2019/05/01 01:56:00	BASE	2.19	52	3.24	52	-3.8	67	-9.0	0	0	977.2	NA	0.0000		9999	0	0	0	0
2019/05/01 01:57:00	BASE	1.83	52	3.24	52	-3.8	67	-9.0	0	0	977.2	NA	0.0000		9999	0	0	0	0
2019/05/01 01:58:00	BASE	1.61	61	3.24	52	-3.9	67	-9.0	0	0	977.2	NA	0.0000		9999	0	0	0	0
2019/05/01 01:59:00	BASE	1.66	52	3.24	52	-3.9	68	-9.0	0	0	977.2	NA	0.0000		9999	0	0	0	0
2019/05/01 02:00:00	BASE	2.04	45	3.24	52	-3.9	68	-9.0	0	0	977.2	NA	0.0000		9999	0	0	0	0
2019/05/01 02:01:00	BASE	2.56	52	3.34	50	-3.9	68	-9.0	0	0	977.2	NA	0.0000		9999	0	0	0	0
2019/05/01 02:02:00	BASE	2.95	51	3.34	45	-3.9	68	-8.9	0	0	977.2	NA	0.0000		9999	0	0	0	0
2019/05/01 02:03:00	BASE	3.05	56	3.40	58	-3.9	68	-8.9	0	0	977.2	NA	0.0000		9999	0	0	0	0
2019/05/01 02:04:00	BASE	3.06	56	3.65	57	-3.9	68	-8.8	0	0	977.2	NA	0.0000		9999	0	0	0	0
2019/05/01 02:05:00	BASE	2.81	47	3.65	57	-3.9	69	-8.8	0	0	977.2	NA	0.0000		9999	0	0	0	0
2019/05/01 02:06:00	BASE	2.66	52	3.65	57	-3.8	69	-8.7	0	0	977.1	NA	0.0000		9999	0	0	0	0
2019/05/01 02:07:00	BASE	2.77	56	3.65	57	-3.8	69	-8.7	0	0	977.1	NA	0.0000		9999	0	0	0	0
2019/05/01 02:08:00	BASE	2.99	49	3.65	57	-3.8	69	-8.7	0	0	977.1	NA	0.0000		9999	0	0	0	0
2019/05/01 02:09:00	BASE	3.31	47	3.70	48	-3.8	69	-8.8	0	0	977.1	NA	0.0000		9999	0	0	0	0
2019/05/01 02:10:00	BASE	3.15	51	3.70	48	-3.8	69	-8.8	0	0	977.1	NA	0.0000		9999	0	0	0	0
2019/05/01 02:11:00	BASE	2.61	57	3.70	48	-3.8	69	-8.8	0	0	977.1	NA	0.0000		9999	0	0	0	0
2019/05/01 02:12:00	BASE	2.12	59	3.70	48	-3.9	69	-8.8	0	0	977.1	NA	0.0000		9999	0	0	0	0
2019/05/01 02:13:00	BASE	1.90	62	3.70	48	-3.8	69	-8.7	0	0	977.1	NA	0.0000		9999	0	0	0	0
2019/05/01 02:14:00	BASE	1.93	65	3.70	48	-3.8	69	-8.7	0	0	977.0	NA	0.0000		9999	0	0	0	0
2019/05/01 02:15:00	BASE	1.80	67	3.70	48	-3.7	69	-8.7	0	0	977.0	NA	0.0000		9999	0	0	0	0
2019/05/01 02:16:00	BASE	1.70	70	3.70	48	-3.7	68	-8.7	0	0	977.0	NA	0.0000		9999	0	0	0	0
2019/05/01 02:17:00	BASE	1.95	72	3.70	48	-3.6	68	-8.7	0	0	977.0	NA	0.0000		9999	0	0	0	0
2019/05/01 02:18:00	BASE	2.19	78	3.70	48	-3.6	68	-8.7	0	0	977.0	NA	0.0000		9999	0	0	0	0
2019/05/01 02:19:00	BASE	2.47	80	3.19	47	-3.6	67	-8.8	0	0	977.0	NA	0.0000		9999	0	0	0	0
2019/05/01 02:20:00	BASE	2.53	83	3.04	82	-3.8	67	-9.0	0	0	977.0	NA	0.0000		9999	0	0	0	0
2019/05/01 02:21:00	BASE	2.04	90	3.04	82	-3.9	67	-9.1	0	0	977.0	NA	0.0000		9999	0	0	0	0
2019/05/01 02:22:00	BASE	1.93	94	3.04	82	-4.0	67	-9.2	0	0	977.0	NA	0.0000		9999	0	0	0	0
2019/05/01 02:23:00	BASE	2.25	96	3.04	82	-4.1	67	-9.3	0	0	977.0	NA	0.0000		9999	0	0	0	0
2019/05/01 02:24:00	BASE	2.10	96	3.04	82	-4.2	68	-9.3	0	0	977.0	NA	0.0000		9999	0	0	0	0
2019/05/01 02:25:00	BASE	1.88	97	3.04	82	-4.1	68	-9.2	0	0	977.0	NA	0.0000		9999	0	0	0	0
2019/05/01 02:26:01	BASE	2.06	94	3.04	82	-4.1	68	-9.2	0	0	977.0	NA	0.0000		9999	0	0	0	0
2019/05/01 02:27:01	BASE	2.12	92	3.04	82	-4.0	68	-9.1	0	0	977.0	NA	0.0000		9999	0	0	0	0
2019/05/01 02:28:00	BASE	1.87	88	3.04	82	-3.9	68	-9.0	0	0	977.0	NA	0.0000		9999	0	0	0	0
2019/05/01 02:29:01	BASE	1.05	93	2.62	95	-3.8	67	-9.0	0	0	977.0	NA	0.0000		9999	0	0	0	0
2019/05/01 02:30:01	BASE	0.72	96	2.52	91	-3.8	67	-9.0	0	0	977.0	NA	0.0000		9999	0	0	0	0
2019/05/01 02:31:01	BASE	0.50	78	2.52	91	-3.7	66	-9.1	0	0	977.0	NA	0.0000		9999	0	0	0	0
2019/05/01 02:32:01	BASE	0.81	64	2.52	91	-3.6	66	-9.1	0	0	977.0	NA	0.0000		9999	0	0	0	0
2019/05/01 02:33:01	BASE	1.49	60	2.52	91	-3.6	65	-9.1	0	0	977.0	NA	0.0000		9999	0	0	0	0
2019/05/01 02:34:01	BASE	1.51	52	2.52	91	-3.6	65	-9.2	0	0	977.0	NA	0.0000		9999	0	0	0	0
2019/05/01 02:35:01	BASE	1.79	44	2.52	91	-3.6	65	-9.2	0	0	977.0	NA	0.0000		9999	0	0	0	0
2019/05/01 02:36:01	BASE	1.89	41	2.52	91	-3.6	66	-9.1	0	0	977.0	NA	0.0000		9999	0	0	0	0
2019/05/01 02:37:01	BASE	1.70	37	2.11	40	-3.6	66	-9.1	0	0	977.0	NA	0.0000		9999	0	0	0	0
2019/05/01 02:38:01	BASE	1.58	36	2.11	40	-3.7	67	-9.0	0	0	977.0	NA	0.0000		9999	0	0	0	0
2019/05/01 02:39:01	BASE	1.65	37	2.11	40	-3.8	67	-9.0	0	0	977.0	NA	0.0000		9999	0	0	0	0
2019/05/01 02:40:01	BASE	1.72	41	2.11	40	-3.8	68	-8.9	0	0	977.0	NA	0.0000		9999	0	0	0	0
2019/05/01 02:41:01	BASE	1.85	47	2.26	50	-3.9	68	-8.9	0	0	977.0	NA	0.0000		9999	0	0	0	0
2019/05/01 02:42:01	BASE	1.97	48	2.26	50	-3.9	69	-8.8	0	0	977.0	NA	0.0000		9999	0	0	0	0
2019/05/01 02:43:01	BASE	2.12	45	2.68	44	-3.9	69	-8.8	0	0	977.0	NA	0.0000		9999	0	0	0	0
2019/05/01 02:44:01	BASE	2.55	45	3.34	45	-3.9	69	-8.7	0	0	977.0	NA	0.0000		9999	0	0	0	0
2019/05/01 02:45:01	BASE	2.96	47	3.34	45	-3.9	69	-8.7	0	0	977.0	NA	0.0000		9999	0	0	0	0
2019/05/01 02:46:01	BASE	2.96	45	3.34	45	-3.9	69	-8.7	0	0	977.0	NA	0.0000		9999	0	0	0	0
2019/05/01 02:47:01	BASE	2.77	37	3.34	45	-3.9	69	-8.7	0	0	977.0	NA	0.0000		9999	0	0	0	0
2019/05/01 02:48:01	BASE	2.70	28	3.34	45	-3.9	69	-8.8	0	0	977.0	NA	0.0000		9999	0	0	0	0
2019/05/01 02:49:01	BASE	3.02	23	3.60	24	-3.9	69	-8.7	0	0	977.0	NA	0.0000		9999	0	0	0	0
2019/05/01 02:50:01	BASE	3.29	25	3.70	25	-4.0	70	-8.7	0	0	977.0	NA	0.0000		9999	0	0	0	0
2019/05/01 02:51:01	BASE	3.39	27	3.86	32	-4.1	70	-8.7	0	0	977.0	NA	0.0000		9999	11580	0	0	0
2019/05/01 02:52:01	BASE	3.31	34	3.86	32	-4.1	70	-8.7	0	0	977.0	NA	0.0000		9999	3670	11420	0	0
2019/05/01 02:53:01	BASE	3.39	45	4.12	52	-4.1	71	-8.6	0	0	977.0	NA	0.0000		9999	3640	0	0	0
2019/05/01 02:54:01	BASE	3.54	50	4.12	52	-4.2	71	-8.6	0	0	977.0	NA	0.0000		9999	0	0	0	0
2019/05/01 02:55:01	BASE	3.37	52	4.12	52	-4.2	71	-8.6	0	0	977.0	NA	0.0000		9999	11450	0	0	0
2019/05/01 02:56:01	BASE	3.24	53	4.12	52	-4.2	72	-8.6	0	0	977.0	NA	0.0000		9999	11420	0	0	0
2019/05/01 02:57:01	BASE	3.06	54	4.12	52	-4.2	72	-8.5	0	0	977.0	NA	0.0000		9999	0	0	0	0
2019/05/01 02:58:01	BASE	3.06	55	4.12	52	-4.2	72	-8.5	0	0	977.0	NA	0.0000		9999	0	0	0	0
2019/05/01 02:59:01	BASE	3.36	57	4.12	52	-4.1	72	-8.4	0	0	977.0	NA	0.0000		9999	0	0	0	0
2019/05/01 03:00:01	BASE	3.52	57	4.12	52	-4.1	72	-8.4	0	0	977.0	NA	0.0000		9999	0	0	0	0
2019/05/01 03:01:01	BASE	3.40	55	4.12	52	-4.1	72	-8.4	0	0	977.0	NA	0.0000		9999	0	0	0	0
2019/05/01 03:02:01	BASE	3.35	57	4.12	52	-4.1	72	-8.4	0	0	977.0	NA	0.0000		9999	11350	0	0	0
2019/05/01 03:03:01	BASE	3.40	60	3.81	50	-4.1	72	-8.4	0	0	977.0	NA	0.0000		9999	3540	11320	0	0
2019/05/01 03:04:01	BASE	3.22	58	3.81	50	-4.1	72	-8.4	0	0	977.0	NA	0.0000		9999	3540	11250	0	0
2019/05/01 03:05:01	BASE	2.93	56	3.81	50	-4.1	72	-8.4	0	0	977.0	NA	0.0000		9999	3580	11450	0	0
2019/05/01 03:06:01	BASE	3.08	57	3.81	50	-4.0	71	-8.4	0	0	977.0	NA	0.0000		9999	3540	11390	0	0
2019/05/01 03:07:01	BASE	3.04	57	3.81	50	-4.0	71	-8.4	0	0	977.0	NA	0.0000		9999	3540	11420	0	0
2019/05/01 03:08:01	BASE	2.91	58	3.81	50	-4.0	71	-8.5	0	0	977.0	NA	0.0000		9999	3540	11420	0	0
2019/05/01 03:09:01	BASE	3.06	59	3.81	50	-4.0	71	-8.5	0	0	977.0	NA	0.0000		9999	3580	11390	0	0
2019/05/01 03:10:01	BASE	3.03	63	3.81	50	-3.9	71	-8.4	0	0	977.0	NA	0.0000		9999	3540	11480	0	0
2019/05/01 03:11:01	BASE	2.93	63	3.70	56	-3.9	71	-8.4	0	0	977.0	NA	0.0000		9999	3480	11420	0	0
2019/05/01 03:12:01	BASE	2.86	60	3.70	56	-3.8	71	-8.4	0	0	977.0	NA	0.0000		9999	3480	11420	0	0
2019/05/01 03:13:01	BASE	2.81	58	3.55	62	-3.8	71	-8.3	0	0	977.0	NA	0.0000		9999	3480	11390	0	0
2019/05/01 03:14:01	BASE	2.64	52	3.55	62	-3.7	70	-8.3	0	0	977.0	NA	0.0000		9999	3480	11420	0	0
2019/05/01 03:15:01	BASE	2.72	50	3.55	62	-3.6	70	-8.3	0	0	977.0	NA	0.0000		9999	3450	11350	0	0
2019/05/01 03:16:01	BASE	2.98	51	3.65	54	-3.6	69	-8.4	0	0	976.9	NA	0.0000		9999	3410	11220	0	0
2019/05/01 03:17:01	BASE	2.92	49	3.65	54	-3.6	69	-8.4	0	0	976.9	NA	0.0000		9999	3450	11320	0	0
2019/05/01 03:18:01	BASE	2.74	39	3.65	54	-3.6	69	-8.5	0	0	976.9	NA	0.0000		9999	3450	11320	0	0
2019/05/01 03:19:01	BASE	2.51	30	3.65	54	-3.6	69	-8.5	0	0	976.9	NA	0.0000		9999	3410	11420	0	0
2019/05/01 03:20:01	BASE	2.15	25	3.65	54	-3.7	69	-8.5	0	0	976.9	NA	0.0000		9999	3380	11320	0	0
2019/05/01 03:21:01	BASE	1.74	22	3.65	54	-3.7	69	-8.5	0	0	976.9	NA	0.0000		9999	3380	11290	0	0
2019/05/01 03:22:01	BASE	1.35	19	3.65	54	-3.8	70	-8.5	0	0	976.9	NA	0.0000		9999	3410	11420	0	0
2019/05/01 03:23:00	BASE	0.62	8	3.65	54	-3.8	70	-8.5	0	0	976.8	NA	0.0000		9999	3410	11420	0	0
2019/05/01 03:24:00	BASE	0.00	1	3.65	54	-3.8	70	-8.4	0	0	976.8	NA	0.0000		9999	3380	11480	0	0
2019/05/01 03:25:00	BASE	0.00	11	3.65	54	-3.8	71	-8.4	0	0	976.8	NA	0.0000		9999	3410	11450	0	0
2019/05/01 03:26:00	BASE	0.45	25	3.34	49	-3.8	71	-8.3	0	0	976.8	NA	0.0000		9999	3450	11250	0	0
2019/05/01 03:27:00	BASE	0.49	32	2.93	36	-3.8	72	-8.2	0	0	976.8	NA	0.0000		9999	3410	11160	0	0
2019/05/01 03:28:00	BASE	0.04	33	2.78	27	-3.8	72	-8.1	0	0	976.8	NA	0.0000		9999	3350	11220	0	0
2019/05/01 03:29:00	BASE	0.00	47	2.31	24	-3.8	72	-8.1	0	0	976.8	NA	0.0000		9999	3410	11190	0	0
2019/05/01 03:30:00	BASE	0.00	68	1.59	18	-3.8	72	-8.1	0	0	976.8	NA	0.0000		9999	3410	11190	0	0
2019/05/01 03:31:00	BASE	0.00	109	1.54	28	-3.8	72	-8.1	0	0	976.8	NA	0.0000		9999	3380	11190	0	0
2019/05/01 03:32:00	BASE	0.00	146	1.18	33	-3.9	72	-8.2	0	0	976.8	NA	0.0000		9999	3350	11090	0	0
2019/05/01 03:33:00	BASE	0.33	146	1.23	151	-4.0	72	-8.3	0	0	976.7	NA	0.0000		9999	3350	11020	0	0
2019/05/01 03:34:00	BASE	0.33	137	1.23	151	-4.1	73	-8.3	0	0	976.7	NA	0.0000		9999	3350	11190	0	0
2019/05/01 03:35:00	BASE	0.00	120	1.23	151	-4.2	73	-8.3	0	0	976.7	NA	0.0000		9999	3350	11320	0	0
2019/05/01 03:36:00	BASE	0.00	106	1.23	151	-4.2	73	-8.3	0	0	976.7	NA	0.0000		9999	10990	0	0	0
2019/05/01 03:37:01	BASE	0.00	100	1.23	151	-4.1	73	-8.2	0	0	976.7	NA	0.0000		9999	11190	0	0	0
2019/05/01 03:38:01	BASE	0.00	99	1.23	151	-4.0	73	-8.2	0	0	976.7	NA	0.0000		9999	11160	0	0	0
2019/05/01 03:39:01	BASE	0.00	98	1.23	151	-3.9	73	-8.1	0	0	976.7	NA	0.0000		9999	11090	0	0	0
2019/05/01 03:40:00	BASE	0.00	89	1.23	151	-3.8	72	-8.1	0	0	976.7	NA	0.0000		9999	11190	0	0	0
2019/05/01 03:41:00	BASE	0.00	82	1.23	151	-3.8	72	-8.1	0	0	976.7	NA	0.0000		9999	11020	0	0	0
2019/05/01 03:42:01	BASE	0.00	75	1.23	151	-3.7	71	-8.1	0	0	976.7	NA	0.0000		9999	10990	0	0	0
2019/05/01 03:43:01	BASE	0.00	67	M	M	-3.6	71	-8.1	0	0	976.7	NA	0.0000		9999	10930	0	0	0
2019/05/01 03:44:01	BASE	0.00	62	M	M	-3.5	70	-8.1	0	0	976.7	NA	0.0000		9999	10930	0	0	0
2019/05/01 03:45:01	BASE	0.00	61	M	M	-3.5	70	-8.2	0	0	976.7	NA	0.0000		9999	10890	0	0	0
2019/05/01 03:46:01	BASE	0.00	61	M	M	-3.4	69	-8.3	0	0	976.7	NA	0.0000		9999	10960	0	0	0
2019/05/01 03:47:01	BASE	0.00	69	M	M	-3.4	68	-8.5	0	0	976.7	NA	0.0000		9999	10960	0	0	0
2019/05/01 03:48:01	BASE	0.00	83	M	M	-3.4	67	-8.7	0	0	976.7	NA	0.0000		9999	10760	0	0	0
2019/05/01 03:49:01	BASE	0.00	88	M	M	-3.5	67	-8.8	0	0	976.7	NA	0.0000		9999	10630	0	0	0
2019/05/01 03:50:01	BASE	0.00	88	M	M	-3.6	67	-8.9	0	0	976.7	NA	0.0000		9999	10660	0	0	0
2019/05/01 03:51:01	BASE	0.00	88	M	M	-3.6	67	-8.9	0	0	976.7	NA	0.0000		9999	10730	0	0	0
2019/05/01 03:52:01	BASE	0.00	88	M	M	-3.7	67	-8.8	0	0	976.7	NA	0.0000		9999	10660	0	0	0
2019/05/01 03:53:01	BASE	0.00	88	M	M	-3.6	68	-8.8	0	0	976.7	NA	0.0000		9999	10660	0	0	0
2019/05/01 03:54:01	BASE	0.00	88	M	M	-3.5	68	-8.7	0	0	976.6	NA	0.0000		9999	10530	0	0	0
2019/05/01 03:55:01	BASE	0.00	88	M	M	-3.5	67	-8.6	0	0	976.6	NA	0.0000		9999	10430	0	0	0
2019/05/01 03:56:01	BASE	0.00	88	M	M	-3.4	67	-8.6	0	0	976.6	NA	0.0000		9999	10630	0	0	0
2019/05/01 03:57:01	BASE	0.00	89	M	M	-3.4	67	-8.7	0	0	976.6	NA	0.0000		9999	10600	0	0	0
2019/05/01 03:58:01	BASE	0.00	107	M	M	-3.4	66	-8.7	0	0	976.6	NA	0.0000		9999	11060	0	0	0
2019/05/01 03:59:01	BASE	0.00	129	M	M	-3.4	66	-8.8	0	0	976.6	NA	0.0000		9999	10960	0	0	0
2019/05/01 04:00:01	BASE	0.05	135	1.08	135	-3.4	66	-8.8	0	0	976.5	NA	0.0000		9999	11160	0	0	0
2019/05/01 04:01:01	BASE	0.66	132	1.34	134	-3.4	66	-8.9	0	0	976.5	NA	0.0000		9999	11190	0	0	0
2019/05/01 04:02:00	BASE	1.27	118	1.95	104	-3.5	66	-8.9	0	0	976.5	NA	0.0000		9999	10890	0	0	0
2019/05/01 04:03:00	BASE	1.55	98	1.95	104	-3.5	66	-9.0	0	0	976.5	NA	0.0000		9999	11090	0	0	0
2019/05/01 04:04:00	BASE	1.65	81	1.95	104	-3.6	66	-9.0	0	0	976.6	NA	0.0000		9999	11090	0	0	0
2019/05/01 04:05:00	BASE	1.68	64	2.06	51	-3.6	66	-9.0	0	0	976.6	NA	0.0000		9999	10530	0	0	0
2019/05/01 04:06:00	BASE	1.55	54	2.06	51	-3.6	67	-8.9	0	0	976.6	NA	0.0000		9999	10470	0	0	0
2019/05/01 04:07:00	BASE	1.39	50	2.06	51	-3.6	67	-8.9	0	0	976.6	NA	0.0000		9999	10500	0	0	0
2019/05/01 04:08:00	BASE	1.41	51	2.06	51	-3.5	67	-8.8	0	0	976.6	NA	0.0000		9999	10530	0	0	0
2019/05/01 04:09:00	BASE	1.70	52	2.06	53	-3.4	66	-8.8	0	0	976.6	NA	0.0000		9999	3310	10500	0	0
2019/05/01 04:10:00	BASE	1.93	52	2.21	52	-3.4	66	-8.8	0	0	976.6	NA	0.0000		9999	10790	0	0	0
2019/05/01 04:11:00	BASE	2.11	53	2.42	54	-3.4	66	-8.8	0	0	976.6	NA	0.0000		9999	10600	0	0	0
2019/05/01 04:12:00	BASE	2.24	57	2.42	54	-3.4	66	-8.8	0	0	976.6	NA	0.0000		9999	10990	0	0	0
2019/05/01 04:13:00	BASE	2.12	61	2.42	54	-3.5	67	-8.7	0	0	976.6	NA	0.0000		9999	10830	0	0	0
2019/05/01 04:14:00	BASE	2.11	68	2.42	69	-3.5	67	-8.7	0	0	976.5	NA	0.0000		9999	10930	11840	0	0
2019/05/01 04:15:00	BASE	2.25	74	2.62	83	-3.6	68	-8.7	0	0	976.5	NA	0.0000		9999	10760	0	0	0
2019/05/01 04:16:00	BASE	2.45	80	2.73	88	-3.7	68	-8.7	0	0	976.5	NA	0.0000		9999	10600	0	0	0
2019/05/01 04:17:00	BASE	2.65	89	2.88	97	-3.8	68	-8.8	0	0	976.5	NA	0.0000		9999	10600	0	0	0
2019/05/01 04:18:00	BASE	2.82	98	3.14	100	-3.9	68	-8.9	0	0	976.4	NA	0.0000		9999	10790	0	0	0
2019/05/01 04:19:00	BASE	2.97	101	3.34	110	-4.0	69	-8.9	0	0	976.4	NA	0.0000		9999	10730	0	0	0
2019/05/01 04:20:00	BASE	2.90	101	3.34	110	-4.0	69	-8.9	0	0	976.4	NA	0.0000		9999	10760	0	0	0
2019/05/01 04:21:00	BASE	2.44	97	3.34	110	-4.1	69	-8.8	0	0	976.4	NA	0.0000		9999	10630	0	0	0
2019/05/01 04:22:00	BASE	2.63	88	3.86	78	-4.1	70	-8.8	0	0	976.4	NA	0.0000		9999	8660	0	0	0
2019/05/01 04:23:00	BASE	3.10	83	3.86	78	-4.0	70	-8.7	0	0	976.4	NA	0.0000		9999	10760	0	0	0
2019/05/01 04:24:00	BASE	2.46	93	3.86	78	-3.9	69	-8.7	0	0	976.4	NA	0.0000		9999	8170	0	0	0
2019/05/01 04:25:00	BASE	1.76	121	3.86	78	-3.9	69	-8.7	0	0	976.4	NA	0.0000		9999	10560	0	0	0
2019/05/01 04:26:00	BASE	2.00	132	3.86	78	-3.9	69	-8.8	0	0	976.4	NA	0.0000		9999	10630	0	0	0
2019/05/01 04:27:00	BASE	2.30	131	3.86	78	-4.0	68	-8.9	0	0	976.4	NA	0.0000		9999	10700	0	0	0
2019/05/01 04:28:00	BASE	1.82	139	3.86	78	-4.1	69	-9.0	0	0	976.4	NA	0.0000		9999	10730	11520	0	0
2019/05/01 04:29:00	BASE	1.15	136	3.86	78	-4.1	69	-9.0	0	0	976.4	NA	0.0000		9999	10930	0	0	0
2019/05/01 04:30:00	BASE	1.03	123	3.86	78	-4.1	69	-8.9	0	0	976.4	NA	0.0000		9999	11610	0	0	0
2019/05/01 04:31:00	BASE	1.49	110	3.86	78	-4.1	70	-8.8	0	0	976.4	NA	0.0000		9999	11550	0	0	0
2019/05/01 04:32:00	BASE	1.95	105	3.60	74	-4.1	70	-8.8	0	0	976.4	NA	0.0000		9999	10730	0	0	0
2019/05/01 04:33:00	BASE	2.25	108	3.19	119	-4.1	70	-8.8	0	0	976.4	NA	0.0000		9999	10500	0	0	0
2019/05/01 04:34:00	BASE	2.78	112	3.70	108	-4.1	70	-8.8	0	0	976.4	NA	0.0000		9999	10300	0	0	0
2019/05/01 04:35:00	BASE	2.90	117	3.70	108	-4.2	70	-8.9	0	0	976.4	NA	0.0000		9999	10240	0	0	0
2019/05/01 04:36:00	BASE	2.83	111	3.70	108	-4.2	70	-8.9	0	0	976.4	NA	0.0000		9999	10500	0	0	0
2019/05/01 04:37:00	BASE	3.41	101	4.12	114	-4.3	70	-8.9	0	0	976.4	NA	0.0000		9999	10560	0	0	0
2019/05/01 04:38:00	BASE	4.16	104	5.09	126	-4.3	70	-8.9	0	0	976.4	NA	0.0000		9999	10300	0	0	0
2019/05/01 04:39:00	BASE	4.57	118	5.56	120	-4.3	71	-8.8	0	0	976.4	NA	0.0000		9999	10730	0	0	0
2019/05/01 04:40:00	BASE	4.76	118	5.56	120	-4.2	71	-8.7	0	0	976.4	NA	0.0000		9999	8560	0	0	0
2019/05/01 04:41:00	BASE	5.28	102	6.64	99	-4.2	71	-8.7	0	0	976.4	NA	0.0000		9999	7840	9840	0	0
2019/05/01 04:42:00	BASE	5.66	100	6.64	99	-4.1	71	-8.7	0	0	976.3	NA	0.0000		9999	10530	0	0	0
2019/05/01 04:43:00	BASE	6.16	99	7.05	98	-4.2	70	-8.7	0	0	976.3	NA	0.0000		9999	7190	10660	0	0
2019/05/01 04:44:00	BASE	6.64	98	7.05	98	-4.2	70	-8.8	0	0	976.4	NA	0.0000		9999	6960	10470	0	0
2019/05/01 04:45:00	BASE	6.72	98	7.10	93	-4.4	70	-9.0	0	0	976.3	NA	0.0000		9999	11060	0	0	0
2019/05/01 04:46:00	BASE	6.73	94	7.15	94	-4.5	71	-9.0	0	0	976.3	NA	0.0000		9999	11090	0	0	0
2019/05/01 04:47:00	BASE	6.76	94	7.61	98	-4.5	71	-8.9	0	0	976.2	NA	0.0000		9999	10890	0	0	0
2019/05/01 04:48:00	BASE	6.96	97	7.61	98	-4.5	72	-8.9	0	0	976.2	NA	0.0000		9999	10700	0	0	0
2019/05/01 04:49:00	BASE	6.97	100	7.61	98	-4.5	72	-8.9	0	0	976.2	NA	0.0000		9999	10830	0	0	0
2019/05/01 04:50:00	BASE	7.02	109	7.61	98	-4.5	72	-8.9	0	0	976.2	NA	0.0000		9999	8730	10760	0	0
2019/05/01 04:51:00	BASE	7.15	116	7.61	98	-4.5	72	-8.8	0	0	976.2	NA	0.0000		9999	10730	0	0	0
2019/05/01 04:52:00	BASE	6.79	116	7.61	98	-4.4	72	-8.8	0	0	976.2	NA	0.0000		9999	10170	0	0	0
2019/05/01 04:53:00	BASE	6.58	116	7.61	98	-4.4	71	-8.8	0	0	976.2	NA	0.0000		9999	10370	0	0	0
2019/05/01 04:54:00	BASE	6.71	112	7.61	98	-4.3	72	-8.7	0	0	976.2	NA	0.0000		9999	9970	10500	0	0
2019/05/01 04:55:00	BASE	6.90	104	7.61	98	-4.2	72	-8.6	0	0	976.2	NA	0.0000		9999	10400	0	0	0
2019/05/01 04:56:00	BASE	7.28	101	7.92	101	-4.3	72	-8.6	0	0	976.2	NA	0.0000		9999	10300	0	0	0
2019/05/01 04:57:00	BASE	7.58	103	8.03	104	-4.4	72	-8.7	0	0	976.2	NA	0.0000		9999	9940	0	0	0
2019/05/01 04:58:00	BASE	7.46	107	8.03	104	-4.5	72	-8.8	0	0	976.2	NA	0.0000		9999	10070	0	0	0
2019/05/01 04:59:00	BASE	6.99	112	8.03	104	-4.6	72	-8.9	0	0	976.2	NA	0.0000		9999	10070	0	0	0
2019/05/01 05:00:00	BASE	7.08	114	8.03	104	-4.6	73	-8.8	0	0	976.2	NA	0.0000		9999	10040	0	0	0
2019/05/01 05:01:00	BASE	7.20	117	8.03	104	-4.5	73	-8.7	0	0	976.2	NA	0.0000		9999	9970	0	0	0
2019/05/01 05:02:00	BASE	6.78	119	8.03	104	-4.4	73	-8.5	0	0	976.2	NA	0.0000		9999	8560	0	0	0
2019/05/01 05:03:00	BASE	6.56	118	8.03	104	-4.2	74	-8.2	0	0	976.2	NA	0.0000		9999	9880	0	0	0
2019/05/01 05:04:00	BASE	6.58	119	8.03	104	-4.1	74	-8.1	0	0	976.1	NA	0.0000		9999	9880	0	0	0
2019/05/01 05:05:00	BASE	6.51	121	8.03	104	-4.0	73	-8.0	0	0	976.1	NA	0.0000		9999	9970	0	0	0
2019/05/01 05:06:00	BASE	6.49	122	8.03	104	-3.9	73	-8.0	0	0	976.0	NA	0.0000		9999	7840	9810	0	0
2019/05/01 05:07:00	BASE	7.08	125	8.18	132	-3.9	73	-8.0	0	0	976.0	NA	0.0000		9999	7680	9910	0	0
2019/05/01 05:08:00	BASE	7.40	130	8.18	132	-3.9	73	-8.0	0	0	976.0	NA	0.0000		9999	7550	8960	0	0
2019/05/01 05:09:00	BASE	7.09	132	8.18	132	-3.8	73	-8.0	0	0	976.0	NA	0.0000		9999	7450	8690	0	0
2019/05/01 05:10:00	BASE	7.01	132	8.18	132	-3.8	73	-8.0	0	0	976.0	NA	0.0000		9999	7640	10140	0	0
2019/05/01 05:11:00	BASE	6.53	131	8.18	132	-3.8	73	-7.9	0	0	976.0	NA	0.0000		9999	8140	0	0	0
2019/05/01 05:12:00	BASE	5.87	123	8.18	132	-3.9	73	-7.9	0	0	976.0	NA	0.0000		9999	8300	10040	0	0
2019/05/01 05:13:00	BASE	5.74	122	8.18	132	-3.9	74	-7.9	0	0	976.0	NA	0.0000		9999	8460	0	0	0
2019/05/01 05:14:00	BASE	6.01	120	8.18	132	-3.9	74	-7.9	0	0	976.0	NA	0.0000		9999	8010	0	0	0
2019/05/01 05:15:00	BASE	6.60	111	8.18	132	-3.9	74	-7.9	0	0	976.0	NA	0.0000		9999	6760	9840	0	0
2019/05/01 05:16:00	BASE	7.12	107	8.18	132	-3.9	74	-7.8	0	0	976.0	NA	0.0000		9999	6460	8040	9740	0
2019/05/01 05:17:00	BASE	6.88	107	7.82	107	-3.9	74	-7.8	0	0	976.0	NA	0.0000		9999	8240	9710	0	0
2019/05/01 05:18:01	BASE	6.79	111	8.13	117	-4.0	75	-7.8	0	0	976.0	NA	0.0000		9999	9580	0	0	0
2019/05/01 05:19:01	BASE	6.97	113	8.13	117	-4.0	75	-7.8	0	0	976.0	NA	0.0000		9999	10010	0	0	0
2019/05/01 05:20:01	BASE	6.94	112	8.13	117	-4.1	75	-7.8	0	0	976.0	NA	0.0000		9999	8660	0	0	0
2019/05/01 05:21:01	BASE	7.06	111	8.13	117	-4.1	76	-7.8	0	0	976.0	NA	0.0000		9999	7020	0	0	0
2019/05/01 05:22:01	BASE	7.46	111	8.18	105	-4.2	76	-7.7	0	0	976.0	NA	0.0000		9999	6660	8920	0	0
2019/05/01 05:23:01	BASE	7.75	111	8.18	105	-4.2	77	-7.6	0	0	976.0	NA	0.0000		9999	8560	0	0	0
2019/05/01 05:24:01	BASE	7.74	108	8.23	106	-4.2	77	-7.5	0	0	976.0	NA	0.0000		9999	8400	0	0	0
2019/05/01 05:25:01	BASE	7.40	104	8.23	106	-4.2	78	-7.5	0	0	976.0	NA	0.0000		9999	8400	0	0	0
2019/05/01 05:26:01	BASE	6.67	104	8.23	106	-4.2	78	-7.4	0	0	976.0	NA	0.0000		9999	8300	0	0	0
2019/05/01 05:27:01	BASE	6.19	107	8.23	106	-4.1	78	-7.4	0	0	976.0	NA	0.0000		9999	8200	0	0	0
2019/05/01 05:28:01	BASE	5.69	109	8.23	106	-4.1	78	-7.4	0	0	976.0	NA	0.0000		9999	8070	0	0	0
2019/05/01 05:29:01	BASE	5.19	114	8.23	106	-4.2	78	-7.4	0	0	976.0	NA	0.0000		9999	8040	9320	0	0
2019/05/01 05:30:01	BASE	5.39	116	8.23	106	-4.2	78	-7.4	0	0	976.0	NA	0.0000		9999	7940	0	0	0
2019/05/01 05:31:01	BASE	5.78	112	8.23	106	-4.2	78	-7.4	0	0	976.0	NA	0.0000		9999	7870	0	0	0
2019/05/01 05:32:01	BASE	5.58	107	8.23	106	-4.2	79	-7.4	0	0	976.0	NA	0.0000		9999	7910	9780	0	0
2019/05/01 05:33:01	BASE	5.23	106	8.23	106	-4.2	79	-7.4	0	0	976.0	NA	0.0000		9999	7940	9060	9740	0
2019/05/01 05:34:01	BASE	5.34	108	7.61	107	-4.2	79	-7.3	0	0	976.0	NA	0.0000		9999	8920	9650	0	0
2019/05/01 05:35:01	BASE	5.67	109	6.84	97	-4.2	79	-7.3	0	0	976.0	NA	0.0000		9999	8760	9250	0	0
2019/05/01 05:36:01	BASE	6.01	110	6.94	109	-4.3	79	-7.3	0	0	976.0	NA	0.0000		9999	9510	0	0	0
2019/05/01 05:37:01	BASE	6.24	112	6.94	109	-4.3	80	-7.3	0	0	976.0	NA	0.0000		9999	8240	9810	0	0
2019/05/01 05:38:01	BASE	6.18	112	6.94	109	-4.3	80	-7.2	0	0	976.0	NA	0.0000		9999	7940	10140	0	0
2019/05/01 05:39:01	BASE	6.19	109	6.94	109	-4.3	80	-7.2	0	0	976.0	NA	0.0000		9999	8010	10170	0	0
2019/05/01 05:40:01	BASE	6.29	110	6.94	109	-4.2	80	-7.2	0	0	976.0	NA	0.0000		9999	7970	10110	0	0
2019/05/01 05:41:01	BASE	6.46	113	6.94	109	-4.2	80	-7.1	0	0	976.0	NA	0.0000		9999	8010	10200	0	0
2019/05/01 05:42:01	BASE	6.50	116	6.94	121	-4.2	80	-7.1	0	0	975.9	NA	0.0000		9999	8010	9810	0	0
2019/05/01 05:43:01	BASE	6.66	118	7.72	123	-4.1	80	-7.1	0	0	975.9	NA	0.0000		9999	7970	9740	0	0
2019/05/01 05:44:01	BASE	6.76	117	7.72	123	-4.1	80	-7.0	0	0	975.9	NA	0.0000		9999	7940	9810	0	0
2019/05/01 05:45:01	BASE	6.68	117	7.72	123	-4.1	80	-7.0	0	0	975.9	NA	0.0000		9999	8010	9610	0	0
2019/05/01 05:46:01	BASE	6.51	118	7.72	123	-4.0	80	-7.0	0	0	975.9	NA	0.0000		9999	7910	0	0	0
2019/05/01 05:47:01	BASE	6.34	116	7.72	123	-4.0	80	-6.9	0	0	975.9	NA	0.0000		9999	7870	0	0	0
2019/05/01 05:48:01	BASE	6.48	111	7.72	123	-4.0	80	-6.9	0	0	975.9	NA	0.0000		9999	7810	0	0	0
2019/05/01 05:49:01	BASE	6.75	102	7.72	123	-4.0	80	-6.9	0	0	975.9	NA	0.0000		9999	7780	0	0	0
2019/05/01 05:50:01	BASE	6.38	92	7.72	123	-4.0	80	-7.0	0	0	976.0	NA	0.0000		9999	7810	0	0	0
2019/05/01 05:51:01	BASE	5.78	88	7.72	123	-4.1	80	-7.0	0	0	976.0	NA	0.0000		9999	7780	0	0	0
2019/05/01 05:52:01	BASE	5.69	87	7.72	123	-4.1	80	-7.0	0	0	975.9	NA	0.0000		9999	7710	9480	0	0
2019/05/01 05:53:01	BASE	5.87	91	7.51	95	-4.2	80	-7.1	0	0	975.9	NA	0.0000		9999	7640	9220	0	0
2019/05/01 05:54:01	BASE	5.68	96	7.51	95	-4.2	80	-7.1	0	0	975.9	NA	0.0000		9999	7610	9480	0	0
2019/05/01 05:55:01	BASE	5.12	93	7.51	95	-4.2	80	-7.1	0	0	975.9	NA	0.0000		9999	9480	0	0	0
2019/05/01 05:56:01	BASE	4.97	84	7.51	95	-4.2	80	-7.2	0	0	975.9	NA	0.0000		9999	7550	9580	0	0
2019/05/01 05:57:01	BASE	5.36	81	7.51	95	-4.2	80	-7.2	0	0	975.9	NA	0.0000		9999	7550	9610	0	0
2019/05/01 05:58:01	BASE	5.90	85	7.51	95	-4.2	80	-7.2	0	0	975.9	NA	0.0000		9999	7580	0	0	0
2019/05/01 05:59:01	BASE	5.88	85	7.05	85	-4.2	79	-7.3	0	0	975.9	NA	0.0000		9999	7550	9740	0	0
2019/05/01 06:00:01	BASE	5.83	85	7.05	85	-4.2	79	-7.3	0	0	975.9	NA	0.0000		9999	7510	9780	0	0
2019/05/01 06:01:01	BASE	5.94	88	7.05	85	-4.2	79	-7.4	0	0	975.9	NA	0.0000		9999	7480	9550	0	0
2019/05/01 06:02:01	BASE	6.06	88	7.05	85	-4.2	78	-7.4	0	0	975.9	NA	0.0000		9999	7510	10200	0	0
2019/05/01 06:03:01	BASE	6.24	87	7.05	85	-4.2	78	-7.5	0	0	975.9	NA	0.0000		9999	7550	10170	0	0
2019/05/01 06:04:00	BASE	6.39	91	7.05	85	-4.2	78	-7.5	0	0	975.9	NA	0.0000		9999	7550	9650	0	0
2019/05/01 06:05:00	BASE	6.47	96	7.05	85	-4.2	77	-7.5	0	0	975.9	NA	0.0000		9999	7480	9610	10110	0
2019/05/01 06:06:00	BASE	6.26	96	7.05	85	-4.2	77	-7.6	0	0	975.9	NA	0.0000		9999	7480	0	0	0
2019/05/01 06:07:00	BASE	6.24	96	7.20	97	-4.2	77	-7.6	0	0	975.9	NA	0.0000		9999	7480	9910	0	0
2019/05/01 06:08:00	BASE	6.61	98	7.25	96	-4.2	77	-7.6	0	0	975.9	NA	0.0000		9999	7510	0	0	0
2019/05/01 06:09:09	BASE	6.56	95	7.25	96	-4.2	77	-7.6	0	0	975.9	NA	0.0000		9999	7450	0	0	0
2019/05/01 06:10:01	BASE	6.28	94	7.25	96	-4.2	77	-7.6	0	0	975.8	NA	0.0000		9999	7480	0	0	0
2019/05/01 06:11:00	BASE	6.44	94	7.46	91	-4.1	77	-7.6	0	0	975.8	NA	0.0000		9999	7510	0	0	0
2019/05/01 06:12:00	BASE	6.82	94	7.51	92	-4.1	76	-7.6	0	0	975.8	NA	0.0000		9999	7450	9480	10400	0
2019/05/01 06:13:01	BASE	6.53	99	7.51	92	-4.1	76	-7.7	0	0	975.8	NA	0.0000		9999	7450	9420	10240	0
2019/05/01 06:14:00	BASE	6.25	106	7.51	92	-4.1	76	-7.8	0	0	975.8	NA	0.0000		9999	7450	10040	0	0
2019/05/01 06:15:00	BASE	6.32	107	7.51	92	-4.2	75	-7.9	0	0	975.8	NA	0.0000		9999	7450	9610	0	0
2019/05/01 06:16:00	BASE	6.15	104	7.51	92	-4.2	75	-7.9	0	0	975.8	NA	0.0000		9999	7480	9450	0	0
2019/05/01 06:17:01	BASE	5.93	104	7.51	92	-4.2	76	-7.9	0	0	975.8	NA	0.0000		9999	7450	0	0	0
2019/05/01 06:18:00	BASE	6.00	105	7.51	92	-4.2	76	-7.8	0	0	975.8	NA	0.0000		9999	7450	9290	0	0
2019/05/01 06:19:00	BASE	6.35	103	7.51	92	-4.2	77	-7.7	0	0	975.9	NA	0.0000		9999	7450	9150	0	0
2019/05/01 06:20:00	BASE	6.33	101	7.51	92	-4.2	77	-7.7	0	0	975.9	NA	0.0000		9999	7420	9120	0	0
2019/05/01 06:21:00	BASE	6.06	101	7.51	92	-4.2	77	-7.7	0	0	975.9	NA	0.0000		9999	7380	9120	0	0
2019/05/01 06:22:00	BASE	6.10	102	6.84	103	-4.1	76	-7.7	0	0	975.8	NA	0.0000		9999	9020	0	0	0
2019/05/01 06:23:00	BASE	6.28	103	6.84	103	-4.1	76	-7.8	0	0	975.8	NA	0.0000		9999	9090	0	0	0
2019/05/01 06:24:00	BASE	6.17	103	6.84	103	-4.1	75	-7.8	0	0	975.8	NA	0.0000		9999	8890	0	0	0
2019/05/01 06:25:00	BASE	6.08	102	6.84	103	-4.0	75	-7.8	0	0	975.7	NA	0.0000		9999	9020	0	0	0
2019/05/01 06:26:00	BASE	6.06	104	6.84	103	-4.0	74	-7.9	0	0	975.7	NA	0.0000		9999	8860	0	0	0
2019/05/01 06:27:00	BASE	5.94	105	6.84	103	-4.0	74	-8.0	0	0	975.6	NA	0.0000		9999	8990	0	0	0
2019/05/01 06:28:00	BASE	5.87	104	6.79	102	-4.1	74	-8.0	0	0	975.6	NA	0.0000		9999	9060	0	0	0
2019/05/01 06:29:00	BASE	5.98	103	6.74	99	-4.1	74	-8.0	0	0	975.7	NA	0.0000		9999	8920	0	0	0
2019/05/01 06:30:00	BASE	6.15	103	6.74	99	-4.1	75	-8.0	0	0	975.7	NA	0.0000		9999	8960	0	0	0
2019/05/01 06:31:00	BASE	6.42	109	7.72	114	-4.1	75	-7.9	0	0	975.7	NA	0.0000		9999	8960	0	0	0
2019/05/01 06:32:00	BASE	6.08	116	7.72	114	-4.1	75	-7.8	0	0	975.7	NA	0.0000		9999	8890	0	0	0
2019/05/01 06:33:00	BASE	5.60	113	7.72	114	-4.1	76	-7.7	0	0	975.6	NA	0.0000		9999	8790	0	0	0
2019/05/01 06:34:00	BASE	5.66	107	7.72	114	-4.0	76	-7.6	0	0	975.6	NA	0.0000		9999	7450	0	0	0
2019/05/01 06:35:00	BASE	5.69	106	7.72	114	-3.9	75	-7.7	0	0	975.6	NA	0.0000		9999	7220	8760	0	0
2019/05/01 06:36:00	BASE	5.81	108	7.72	114	-3.9	75	-7.7	0	0	975.6	NA	0.0000		9999	8760	0	0	0
2019/05/01 06:37:00	BASE	6.12	109	7.72	114	-3.9	75	-7.7	0	0	975.6	NA	0.0000		9999	8860	0	0	0
2019/05/01 06:38:00	BASE	6.88	110	8.08	112	-3.8	74	-7.8	0	0	975.6	NA	0.0000		9999	8690	0	0	0
2019/05/01 06:39:00	BASE	7.68	113	8.59	115	-3.9	74	-7.8	0	0	975.6	NA	0.0000		9999	8760	0	0	0
2019/05/01 06:40:00	BASE	7.78	115	8.59	115	-3.8	74	-7.8	0	0	975.6	NA	0.0000		9999	8860	0	0	0
2019/05/01 06:41:00	BASE	7.82	117	8.59	115	-3.8	74	-7.8	0	0	975.6	NA	0.0000		9999	8760	0	0	0
2019/05/01 06:42:00	BASE	7.93	118	8.59	115	-3.8	74	-7.8	0	0	975.6	NA	0.0000		9999	8600	0	0	0
2019/05/01 06:43:00	BASE	7.77	117	8.59	115	-3.7	74	-7.7	0	0	975.6	NA	0.0000		9999	8760	0	0	0
2019/05/01 06:44:00	BASE	7.51	118	8.59	115	-3.7	73	-7.7	0	0	975.6	NA	0.0000		9999	8730	0	0	0
2019/05/01 06:45:00	BASE	7.26	123	8.59	115	-3.6	73	-7.8	0	0	975.6	NA	0.0000		9999	8730	0	0	0
2019/05/01 06:46:00	BASE	7.26	124	8.59	115	-3.6	73	-7.8	0	0	975.5	NA	0.0000		9999	8760	0	0	0
2019/05/01 06:47:00	BASE	7.37	123	8.59	115	-3.6	72	-7.9	0	0	975.4	NA	0.0000		9999	6730	8660	0	0
2019/05/01 06:48:00	BASE	7.23	125	8.59	115	-3.6	72	-8.0	0	0	975.4	NA	0.0000		9999	6630	8630	0	0
2019/05/01 06:49:00	BASE	6.94	126	8.39	117	-3.7	72	-8.0	0	0	975.4	NA	0.0000		9999	6590	8760	0	0
2019/05/01 06:50:00	BASE	6.69	127	8.39	117	-3.7	72	-8.0	0	0	975.4	NA	0.0000		9999	6530	8760	0	0
2019/05/01 06:51:00	BASE	6.38	127	8.39	117	-3.7	72	-7.9	0	0	975.4	NA	0.0000		9999	8070	0	0	0
2019/05/01 06:52:00	BASE	6.27	126	8.18	127	-3.7	73	-7.9	0	0	975.4	NA	0.0000		9999	8560	0	0	0
2019/05/01 06:53:00	BASE	6.47	124	8.18	127	-3.7	73	-7.8	0	0	975.5	NA	0.0000		9999	8830	0	0	0
2019/05/01 06:54:00	BASE	6.30	123	8.18	127	-3.7	74	-7.7	0	0	975.5	NA	0.0000		9999	8660	0	0	0
2019/05/01 06:55:00	BASE	5.79	120	8.18	127	-3.7	74	-7.7	0	0	975.4	NA	0.0000		9999	8660	0	0	0
2019/05/01 06:56:00	BASE	5.59	120	8.18	127	-3.7	74	-7.7	0	0	975.4	NA	0.0000		9999	8730	0	0	0
2019/05/01 06:57:00	BASE	5.59	124	7.72	130	-3.7	74	-7.7	0	0	975.4	NA	0.0000		9999	8730	0	0	0
2019/05/01 06:58:00	BASE	5.73	125	7.25	127	-3.8	75	-7.6	0	0	975.4	NA	0.0000		9999	8690	0	0	0
2019/05/01 06:59:00	BASE	5.78	124	7.10	124	-3.8	75	-7.6	0	0	975.4	NA	0.0000		9999	8730	0	0	0
2019/05/01 07:00:00	BASE	5.38	125	7.10	124	-3.8	75	-7.5	0	0	975.4	NA	0.0000		9999	8630	0	0	0
2019/05/01 07:01:00	BASE	4.97	125	7.10	124	-3.8	76	-7.4	0	0	975.4	NA	0.0000		9999	8730	0	0	0
2019/05/01 07:02:00	BASE	5.09	126	7.10	124	-3.8	76	-7.4	0	0	975.4	NA	0.0000		9999	8690	0	0	0
2019/05/01 07:03:00	BASE	5.36	125	6.69	125	-3.8	76	-7.4	0	0	975.4	NA	0.0000		9999	8630	0	0	0
2019/05/01 07:04:00	BASE	5.36	127	6.38	126	-3.7	76	-7.4	0	0	975.4	NA	0.0000		9999	8660	0	0	0
2019/05/01 07:05:00	BASE	5.05	126	6.38	126	-3.7	76	-7.3	0	0	975.4	NA	0.0000		9999	8690	0	0	0
2019/05/01 07:06:00	BASE	4.78	123	6.33	127	-3.7	76	-7.3	0	0	975.4	NA	0.0000		9999	8200	0	0	0
2019/05/01 07:07:00	BASE	4.49	123	6.33	127	-3.7	76	-7.3	0	0	975.4	NA	0.0000		9999	7940	8630	0	0
2019/05/01 07:08:00	BASE	4.01	124	6.17	129	-3.7	76	-7.3	0	0	975.3	NA	0.0000		9999	8790	0	0	0
2019/05/01 07:09:00	BASE	3.49	120	5.92	118	-3.7	76	-7.3	0	0	975.4	NA	0.0000		9999	8960	0	0	0
2019/05/01 07:10:00	BASE	2.85	119	5.92	118	-3.7	76	-7.3	0	0	975.3	NA	0.0000		9999	8990	0	0	0
2019/05/01 07:11:00	BASE	2.28	121	5.92	118	-3.7	77	-7.3	0	0	975.3	NA	0.0000		9999	8890	0	0	0
2019/05/01 07:12:00	BASE	1.52	113	5.81	122	-3.8	77	-7.2	0	0	975.4	NA	0.0000		9999	8790	0	0	0
2019/05/01 07:13:00	BASE	1.01	89	5.76	129	-3.8	77	-7.2	0	0	975.3	NA	0.0000		9999	8790	0	0	0
2019/05/01 07:14:00	BASE	1.59	74	5.45	124	-3.9	77	-7.3	0	0	975.3	NA	0.0000		9999	8730	0	0	0
2019/05/01 07:15:00	BASE	2.58	67	5.35	113	-3.9	77	-7.3	0	0	975.3	NA	0.0000		9999	9060	10930	0	0
2019/05/01 07:16:00	BASE	2.61	49	5.04	119	-3.9	77	-7.3	0	0	975.3	NA	0.0000		9999	9120	10990	0	0
2019/05/01 07:17:00	BASE	2.50	22	4.32	127	-3.9	78	-7.2	0	0	975.3	NA	0.0000		9999	9060	0	0	0
2019/05/01 07:18:00	BASE	2.52	0	3.60	112	-3.8	78	-7.2	0	0	975.3	NA	0.0000		9999	8960	10960	0	0
2019/05/01 07:19:00	BASE	2.17	349	3.55	50	-3.7	77	-7.1	0	0	975.3	NA	0.0000		9999	11160	0	0	0
2019/05/01 07:20:00	BASE	1.90	341	3.55	50	-3.6	77	-7.1	0	0	975.3	NA	0.0000		9999	8920	11160	0	0
2019/05/01 07:21:00	BASE	2.14	340	3.55	50	-3.5	77	-7.1	0	0	975.3	NA	0.0000		9999	8560	0	0	0
2019/05/01 07:22:00	BASE	2.36	333	3.55	50	-3.5	76	-7.1	0	0	975.3	NA	0.0000		9999	6370	8530	0	0
2019/05/01 07:23:00	BASE	2.19	338	3.55	50	-3.5	75	-7.2	0	0	975.3	NA	0.0000		9999	8460	0	0	0
2019/05/01 07:24:00	BASE	2.65	2	3.65	17	-3.5	75	-7.2	0	0	975.3	NA	0.0000		9999	6330	8370	0	0
2019/05/01 07:25:00	BASE	2.96	7	3.65	17	-3.4	75	-7.2	0	0	975.3	NA	0.0000		9999	6300	0	0	0
2019/05/01 07:26:00	BASE	2.69	14	4.48	25	-3.4	74	-7.3	0	0	975.3	NA	0.0000		9999	6330	0	0	0
2019/05/01 07:27:00	BASE	3.39	29	4.68	31	-3.3	74	-7.4	0	0	975.3	NA	0.0000		9999	8300	0	0	0
2019/05/01 07:28:00	BASE	3.94	41	4.68	31	-3.3	73	-7.4	0	0	975.3	NA	0.0000		9999	7740	0	0	0
2019/05/01 07:29:00	BASE	3.09	51	4.68	31	-3.2	72	-7.5	0	0	975.3	NA	0.0000		9999	6400	8330	0	0
2019/05/01 07:30:00	BASE	2.51	59	4.68	31	-3.2	71	-7.7	0	0	975.3	NA	0.0000		9999	6370	8300	0	0
2019/05/01 07:31:00	BASE	2.87	63	4.68	31	-3.1	70	-7.9	0	0	975.3	NA	0.0000		9999	6270	0	0	0
2019/05/01 07:32:00	BASE	2.96	62	4.68	31	-3.1	69	-8.1	0	0	975.3	NA	0.0000		9999	6200	8330	8990	0
2019/05/01 07:33:00	BASE	2.53	53	4.68	31	-3.1	68	-8.2	0	0	975.3	NA	0.0000		9999	6170	8330	0	0
2019/05/01 07:34:00	BASE	2.53	36	4.68	31	-3.1	68	-8.2	0	0	975.3	NA	0.0000		9999	7550	0	0	0
2019/05/01 07:35:00	BASE	2.83	20	4.68	31	-3.2	68	-8.2	0	0	975.3	NA	0.0000		9999	7320	8330	0	0
2019/05/01 07:36:00	BASE	2.92	13	4.68	31	-3.2	68	-8.2	0	0	975.3	NA	0.0000		9999	7280	8890	0	0
2019/05/01 07:37:00	BASE	2.79	7	4.32	55	-3.2	68	-8.3	0	0	975.3	NA	0.0000		9999	7320	0	0	0
2019/05/01 07:38:00	BASE	2.67	355	3.65	56	-3.2	67	-8.4	0	0	975.3	NA	0.0000		9999	7740	0	0	0
2019/05/01 07:39:00	BASE	2.25	340	3.65	56	-3.2	67	-8.5	0	0	975.3	NA	0.0000		9999	7780	0	0	0
2019/05/01 07:40:01	BASE	2.08	330	3.65	56	-3.2	66	-8.6	0	0	975.3	NA	0.0000		9999	7250	0	0	0
2019/05/01 07:41:01	BASE	2.17	328	3.40	15	-3.2	66	-8.6	0	0	975.3	NA	0.0000		9999	7090	0	0	0
2019/05/01 07:42:01	BASE	2.31	326	3.40	15	-3.2	67	-8.5	0	0	975.3	NA	0.0000		9999	8400	0	0	0
2019/05/01 07:43:01	BASE	2.62	326	3.40	15	-3.3	67	-8.4	0	0	975.3	NA	0.0000		9999	7150	0	0	0
2019/05/01 07:44:01	BASE	2.71	323	3.40	15	-3.3	68	-8.4	0	0	975.3	NA	0.0000		9999	6890	0	0	0
2019/05/01 07:45:01	BASE	2.38	315	3.40	15	-3.3	68	-8.3	0	0	975.3	NA	0.0000		9999	6660	0	0	0
2019/05/01 07:46:01	BASE	2.07	314	3.09	325	-3.3	68	-8.3	0	0	975.2	NA	0.0000		9999	6590	8040	0	0
2019/05/01 07:47:01	BASE	1.98	320	3.09	325	-3.3	69	-8.3	0	0	975.2	NA	0.0000		9999	6140	7940	0	0
2019/05/01 07:48:01	BASE	1.79	317	3.09	325	-3.3	69	-8.3	0	0	975.2	NA	0.0000		9999	5840	0	0	0
2019/05/01 07:49:01	BASE	1.77	310	3.09	325	-3.3	69	-8.2	0	0	975.2	NA	0.0000		9999	5710	0	0	0
2019/05/01 07:50:01	BASE	1.57	301	3.09	325	-3.3	69	-8.3	0	0	975.2	NA	0.0000		9999	5580	7550	0	0
2019/05/01 07:51:01	BASE	0.66	293	3.09	325	-3.3	68	-8.3	0	0	975.1	NA	0.0000		9999	5410	0	0	0
2019/05/01 07:52:01	BASE	0.00	291	3.09	325	-3.3	68	-8.4	0	0	975.1	NA	0.0000		9999	5320	0	0	0
2019/05/01 07:53:01	BASE	0.00	295	3.04	319	-3.3	67	-8.5	0	0	975.1	NA	0.0000		9999	5380	0	0	0
2019/05/01 07:54:01	BASE	0.00	299	2.31	313	-3.2	66	-8.7	0	0	975.1	NA	0.0000		9999	5450	0	0	0
2019/05/01 07:55:01	BASE	0.00	292	2.21	319	-3.2	65	-8.8	0	0	975.2	NA	0.0000		9999	5410	6730	0	0
2019/05/01 07:56:01	BASE	0.00	287	2.11	323	-3.2	64	-9.0	0	0	975.2	NA	0.0000		9999	5450	0	0	0
2019/05/01 07:57:01	BASE	0.00	301	1.95	296	-3.2	64	-9.1	0	0	975.2	NA	0.0000		9999	5510	0	0	0
2019/05/01 07:58:01	BASE	0.75	338	2.16	354	-3.2	63	-9.1	0	0	975.2	NA	0.0000		9999	5450	0	0	0
2019/05/01 07:59:01	BASE	0.84	358	2.16	354	-3.1	63	-9.1	0	0	975.2	NA	0.0000		9999	5380	0	0	0
2019/05/01 08:00:01	BASE	0.10	339	2.16	354	-3.1	63	-9.2	0	0	975.2	NA	0.0000		9999	5350	0	0	0
2019/05/01 08:01:01	BASE	0.00	299	2.16	354	-3.1	63	-9.1	0	0	975.2	NA	0.0000		9999	5280	6630	0	0
2019/05/01 08:02:01	BASE	0.00	283	2.16	354	-3.1	63	-9.1	0	0	975.2	NA	0.0000		9999	5220	6560	0	0
2019/05/01 08:03:01	BASE	0.00	284	2.16	354	-3.1	64	-9.1	0	0	975.2	NA	0.0000		9999	5120	0	0	0
2019/05/01 08:04:01	BASE	0.00	280	2.16	354	-3.2	64	-9.1	0	0	975.2	NA	0.0000		9999	5050	0	0	0
2019/05/01 08:05:01	BASE	0.00	278	2.16	354	-3.2	64	-9.0	0	0	975.2	NA	0.0000		9999	5050	0	0	0
2019/05/01 08:06:01	BASE	0.00	278	2.16	354	-3.2	64	-9.0	0	0	975.2	NA	0.0000		9999	4990	0	0	0
2019/05/01 08:07:01	BASE	0.00	287	2.16	354	-3.2	64	-9.0	0	0	975.2	NA	0.0000		9999	4990	6500	7250	0
2019/05/01 08:08:01	BASE	0.00	320	1.29	343	-3.2	65	-8.9	0	0	975.2	NA	0.0000		9999	5610	6460	0	0
2019/05/01 08:09:01	BASE	0.00	345	M	M	-3.2	65	-8.9	0	0	975.2	NA	0.0000		9999	5510	6820	0	0
2019/05/01 08:10:01	BASE	0.00	342	M	M	-3.1	65	-8.9	0	0	975.2	NA	0.0000		9999	5320	7120	9220	0
2019/05/01 08:11:01	BASE	0.00	349	M	M	-3.1	64	-8.9	0	0	975.2	NA	0.0000		9999	5180	6500	9250	0
2019/05/01 08:12:01	BASE	0.00	352	M	M	-3.1	64	-8.9	0	0	975.2	NA	0.0000		9999	5050	6330	0	0
2019/05/01 08:13:01	BASE	0.00	352	M	M	-3.1	64	-9.0	0	0	975.2	NA	0.0000		9999	4890	6270	0	0
2019/05/01 08:14:01	BASE	0.00	352	M	M	-3.1	64	-9.0	0	0	975.2	NA	0.0000		9999	4760	6230	0	0
2019/05/01 08:15:01	BASE	0.00	352	M	M	-3.1	64	-9.0	0	0	975.2	NA	0.0000		9999	4720	5510	0	0
2019/05/01 08:16:01	BASE	0.00	353	M	M	-3.1	64	-9.0	0	0	975.1	NA	0.0000		9999	4690	0	0	0
2019/05/01 08:17:01	BASE	0.00	358	M	M	-3.1	64	-8.9	0	0	975.1	NA	0.0000		9999	4720	0	0	0
2019/05/01 08:18:01	BASE	0.00	49	M	M	-3.0	64	-8.9	0	0	975.1	NA	0.0000		9999	4660	0	0	0
2019/05/01 08:19:01	BASE	0.00	103	M	M	-3.0	64	-8.9	0	0	975.1	NA	0.0000		9999	5350	0	0	0
2019/05/01 08:20:01	BASE	0.00	111	M	M	-3.0	64	-8.9	0	0	975.1	NA	0.0000		9999	5120	0	0	0
2019/05/01 08:21:01	BASE	0.00	129	M	M	-3.0	64	-8.9	0	0	975.1	NA	0.0000		9999	5410	0	0	0
2019/05/01 08:22:01	BASE	0.00	150	M	M	-3.0	64	-8.9	0	0	975.1	NA	0.0000		9999	5350	0	0	0
2019/05/01 08:23:01	BASE	0.00	166	M	M	-3.1	64	-8.9	0	0	975.1	NA	0.0000		9999	5180	0	0	0
2019/05/01 08:24:01	BASE	0.00	181	M	M	-3.1	64	-8.9	0	0	975.1	NA	0.0000		9999	5020	0	0	0
2019/05/01 08:25:01	BASE	0.00	186	M	M	-3.2	64	-9.0	0	0	975.1	NA	0.0000		9999	3840	0	0	0
2019/05/01 08:26:01	BASE	0.00	186	M	M	-3.2	64	-9.0	0	0	975.1	NA	0.0000		9999	4890	0	0	0
2019/05/01 08:27:01	BASE	0.00	170	M	M	-3.2	64	-9.0	0	0	975.1	NA	0.0000		9999	4920	0	0	0
2019/05/01 08:28:01	BASE	0.00	132	M	M	-3.1	64	-9.0	0	0	975.1	NA	0.0000		9999	4760	0	0	0
2019/05/01 08:29:01	BASE	0.00	109	M	M	-3.1	64	-9.1	0	0	975.1	NA	0.0000		9999	4790	0	0	0
2019/05/01 08:30:01	BASE	0.00	107	M	M	-3.1	64	-9.0	0	0	975.1	NA	0.0000		9999	4720	0	0	0
2019/05/01 08:31:01	BASE	0.00	108	M	M	-3.1	64	-9.0	0	0	975.1	NA	0.0000		9999	4630	0	0	0
2019/05/01 08:32:01	BASE	0.00	111	M	M	-3.1	64	-9.0	0	0	975.1	NA	0.0000		9999	4790	0	0	0
2019/05/01 08:33:01	BASE	0.00	114	M	M	-3.1	64	-9.0	0	0	975.1	NA	0.0000		9999	4790	0	0	0
2019/05/01 08:34:01	BASE	0.00	118	M	M	-3.1	64	-9.0	0	0	975.0	NA	0.0000		9999	4490	0	0	0
2019/05/01 08:35:01	BASE	0.00	121	M	M	-3.1	64	-9.0	0	0	975.0	NA	0.0000		9999	4690	0	0	0
2019/05/01 08:36:01	BASE	0.00	123	M	M	-3.1	64	-9.0	0	0	974.9	NA	0.0000		9999	4330	0	0	0
2019/05/01 08:37:01	BASE	0.00	123	M	M	-3.1	64	-9.0	0	0	974.9	NA	0.0000		9999	4690	0	0	0
2019/05/01 08:38:01	BASE	0.00	123	M	M	-3.2	64	-9.0	0	0	974.9	NA	0.0000		9999	4660	0	0	0
2019/05/01 08:39:01	BASE	0.00	123	M	M	-3.1	64	-9.0	0	0	974.9	NA	0.0000		9999	4590	0	0	0
2019/05/01 08:40:01	BASE	0.00	123	M	M	-3.1	64	-9.0	0	0	974.9	NA	0.0000		9999	4660	0	0	0
2019/05/01 08:41:01	BASE	0.00	122	M	M	-3.1	64	-9.0	0	0	974.9	NA	0.0000		9999	4560	0	0	0
2019/05/01 08:42:01	BASE	0.00	73	M	M	-3.1	64	-9.0	0	0	974.9	NA	0.0000		9999	4530	0	0	0
2019/05/01 08:43:01	BASE	0.11	35	1.34	53	-3.1	64	-9.0	0	0	974.9	NA	0.0000		9999	4560	0	0	0
2019/05/01 08:44:01	BASE	0.79	49	1.65	63	-3.1	64	-9.0	0	0	974.9	NA	0.0000		9999	4490	0	0	0
2019/05/01 08:45:01	BASE	1.53	60	1.85	66	-3.2	64	-9.0	0	0	974.9	NA	0.0000		9999	4430	0	0	0
2019/05/01 08:46:01	BASE	1.59	68	1.85	66	-3.2	65	-8.9	0	0	974.9	NA	0.0000		9999	5710	0	0	0
2019/05/01 08:47:01	BASE	1.35	73	1.85	66	-3.3	65	-8.9	0	0	974.9	NA	0.0000		9999	5540	0	0	0
2019/05/01 08:48:01	BASE	0.95	68	1.90	73	-3.3	66	-8.8	0	0	974.9	NA	0.0000		9999	5410	0	0	0
2019/05/01 08:49:01	BASE	0.94	68	1.90	73	-3.3	66	-8.7	0	0	974.9	NA	0.0000		9999	5280	0	0	0
2019/05/01 08:50:01	BASE	0.74	77	1.90	73	-3.3	67	-8.6	0	0	974.9	NA	0.0000		9999	5180	0	0	0
2019/05/01 08:51:01	BASE	0.83	72	1.90	73	-3.3	67	-8.5	0	0	974.9	NA	0.0000		9999	5090	0	0	0
2019/05/01 08:52:01	BASE	1.43	65	1.90	73	-3.3	67	-8.5	0	0	974.9	NA	0.0000		9999	4950	0	0	0
2019/05/01 08:53:01	BASE	1.34	69	1.90	73	-3.3	67	-8.5	0	0	974.9	NA	0.0000		9999	4820	0	0	0
2019/05/01 08:54:01	BASE	0.98	74	1.90	73	-3.3	68	-8.4	0	0	974.9	NA	0.0000		9999	4760	0	0	0
2019/05/01 08:55:01	BASE	0.71	82	1.90	73	-3.3	68	-8.4	0	0	974.9	NA	0.0000		9999	4720	0	0	0
2019/05/01 08:56:01	BASE	0.99	91	2.11	123	-3.3	68	-8.4	0	0	974.9	NA	0.0000		9999	4790	0	0	0
2019/05/01 08:57:01	BASE	1.53	93	2.31	89	-3.3	68	-8.4	0	0	974.8	NA	0.0000		9999	4820	0	0	0
2019/05/01 08:58:01	BASE	1.76	101	2.42	96	-3.3	67	-8.4	0	0	974.8	NA	0.0000		9999	4860	0	0	0
2019/05/01 08:59:01	BASE	1.86	110	2.52	114	-3.3	67	-8.5	0	0	974.8	NA	0.0000		9999	4950	0	0	0
2019/05/01 09:00:01	BASE	1.83	122	2.52	114	-3.3	67	-8.5	0	0	974.8	NA	0.0000		9999	4990	0	0	0
2019/05/01 09:01:01	BASE	1.73	138	2.52	114	-3.3	68	-8.5	0	0	974.8	NA	0.0000		9999	4920	0	0	0
2019/05/01 09:02:01	BASE	1.13	134	2.52	114	-3.3	68	-8.4	0	0	974.8	NA	0.0000		9999	4890	0	0	0
2019/05/01 09:03:01	BASE	0.97	128	2.52	114	-3.3	68	-8.3	0	0	974.8	NA	0.0000		9999	4760	0	0	0
2019/05/01 09:04:01	BASE	1.14	135	2.52	114	-3.3	68	-8.3	0	0	974.8	NA	0.0000		9999	4720	0	0	0
2019/05/01 09:05:01	BASE	0.90	141	2.52	114	-3.2	68	-8.3	0	0	974.8	NA	0.0000		9999	4630	0	0	0
2019/05/01 09:06:01	BASE	1.05	155	2.52	114	-3.1	68	-8.3	0	0	974.8	NA	0.0000		9999	4630	0	0	0
2019/05/01 09:07:01	BASE	1.49	171	2.52	114	-3.1	67	-8.3	0	0	974.8	NA	0.0000		9999	4530	0	0	0
2019/05/01 09:08:01	BASE	1.67	166	2.52	114	-3.0	67	-8.3	0	0	974.8	NA	0.0000		9999	4530	0	0	0
2019/05/01 09:09:01	BASE	1.93	164	2.57	166	-3.0	67	-8.3	0	0	974.8	NA	0.0000		9999	4720	0	0	0
2019/05/01 09:10:01	BASE	2.29	179	2.78	179	-3.0	67	-8.2	0	0	974.8	NA	0.0000		9999	4760	0	0	0
2019/05/01 09:11:01	BASE	1.76	184	2.78	179	-3.0	67	-8.2	0	0	974.8	NA	0.0000		9999	4820	0	0	0
2019/05/01 09:12:01	BASE	1.34	175	2.78	179	-3.0	67	-8.2	0	0	974.8	NA	0.0000		9999	5020	0	0	0
2019/05/01 09:13:01	BASE	1.44	164	2.78	179	-3.0	68	-8.1	0	0	974.8	NA	0.0000		9999	5120	0	0	0
2019/05/01 09:14:01	BASE	1.51	151	2.78	179	-3.0	68	-8.1	0	0	974.8	NA	0.0000		9999	5280	0	0	0
2019/05/01 09:15:01	BASE	1.72	150	2.78	179	-3.0	68	-8.1	0	0	974.8	NA	0.0000		9999	5320	0	0	0
2019/05/01 09:16:01	BASE	1.20	160	2.78	179	-3.0	68	-8.1	0	0	974.8	NA	0.0000		9999	5380	0	0	0
2019/05/01 09:17:01	BASE	0.85	160	2.78	179	-3.0	68	-8.1	0	0	974.8	NA	0.0000		9999	5250	0	0	0
2019/05/01 09:18:01	BASE	1.65	173	2.78	194	-3.0	68	-8.1	0	0	974.7	NA	0.0000		9999	5150	0	0	0
2019/05/01 09:19:01	BASE	2.29	193	3.19	198	-3.0	68	-8.0	0	0	974.7	NA	0.0000		9999	5020	0	0	0
2019/05/01 09:20:01	BASE	2.29	191	3.19	198	-3.0	69	-8.0	0	0	974.7	NA	0.0000		9999	5050	0	0	0
2019/05/01 09:21:01	BASE	1.29	180	3.19	198	-3.0	69	-7.9	0	0	974.7	NA	0.0000		9999	4990	0	0	0
2019/05/01 09:22:01	BASE	0.36	178	3.19	198	-3.0	69	-7.8	0	0	974.7	NA	0.0000		9999	5020	0	0	0
2019/05/01 09:23:01	BASE	0.84	209	3.19	198	-2.9	70	-7.7	0	0	974.7	NA	0.0000		9999	4920	0	0	0
2019/05/01 09:24:01	BASE	1.72	231	3.19	198	-2.9	70	-7.6	0	0	974.7	NA	0.0000		9999	4820	0	0	0
2019/05/01 09:25:01	BASE	1.85	223	3.19	198	-2.9	71	-7.5	0	0	974.7	NA	0.0000		9999	4760	0	0	0
2019/05/01 09:26:01	BASE	1.84	222	3.19	198	-2.9	71	-7.5	0	0	974.7	NA	0.0000		9999	4630	0	0	0
2019/05/01 09:27:01	BASE	1.99	215	3.19	198	-2.9	71	-7.5	0	0	974.6	NA	0.0000		9999	4690	0	0	0
2019/05/01 09:28:01	BASE	1.89	203	3.19	198	-2.9	70	-7.5	0	0	974.6	NA	0.0000		9999	0	0	0	5020
2019/05/01 09:29:01	BASE	1.56	194	2.68	220	-2.8	70	-7.6	0	0	974.6	NA	0.0000		9999	0	0	0	4950
2019/05/01 09:30:01	BASE	1.18	185	2.37	219	-2.8	69	-7.7	0	0	974.6	NA	0.0000		9999	4490	0	0	0
2019/05/01 09:31:01	BASE	0.80	184	2.37	219	-2.8	69	-7.8	0	0	974.6	NA	0.0000		9999	4660	0	0	0
2019/05/01 09:32:01	BASE	0.31	191	2.37	219	-2.8	68	-7.8	0	0	974.6	NA	0.0000		9999	0	0	0	5150
2019/05/01 09:33:01	BASE	0.00	193	2.37	219	-2.8	69	-7.8	0	0	974.6	NA	0.0000		9999	0	0	0	5180
2019/05/01 09:34:01	BASE	0.22	208	2.37	219	-2.9	69	-7.8	0	0	974.6	NA	0.0000		9999	4920	0	0	0
2019/05/01 09:35:01	BASE	0.97	219	2.37	219	-2.9	69	-7.7	0	0	974.6	NA	0.0000		9999	5090	0	0	0
2019/05/01 09:36:01	BASE	1.51	215	2.21	205	-2.9	70	-7.6	0	0	974.6	NA	0.0000		9999	5090	0	0	0
2019/05/01 09:37:01	BASE	1.53	234	2.11	205	-2.9	70	-7.5	0	0	974.6	NA	0.0000		9999	5120	0	0	0
2019/05/01 09:38:01	BASE	1.48	247	2.01	218	-2.9	70	-7.5	0	0	974.6	NA	0.0000		9999	5120	0	0	0
2019/05/01 09:39:01	BASE	1.41	248	2.01	218	-2.9	71	-7.4	0	0	974.6	NA	0.0000		9999	5120	0	0	0
2019/05/01 09:40:01	BASE	1.64	246	2.21	232	-2.9	71	-7.4	0	0	974.6	NA	0.0000		9999	5020	0	0	0
2019/05/01 09:41:01	BASE	1.45	250	2.21	232	-2.9	72	-7.3	0	0	974.6	NA	0.0000		9999	4950	0	0	0
2019/05/01 09:42:01	BASE	0.53	271	2.21	232	-2.9	72	-7.3	0	0	974.6	NA	0.0000		9999	4860	0	0	0
2019/05/01 09:43:01	BASE	0.00	292	2.21	232	-2.9	72	-7.3	0	0	974.6	NA	0.0000		9999	0	0	0	4990
2019/05/01 09:44:01	BASE	0.54	16	2.26	79	-3.0	72	-7.3	0	0	974.6	NA	0.0000		9999	4760	0	0	0
2019/05/01 09:45:01	BASE	1.15	95	2.26	79	-3.0	72	-7.3	0	0	974.6	NA	0.0000		9999	4590	0	0	0
2019/05/01 09:46:01	BASE	1.09	92	2.62	84	-3.1	72	-7.4	0	0	974.6	NA	0.0000		9999	4360	0	0	0
2019/05/01 09:47:01	BASE	2.01	80	3.34	70	-3.1	72	-7.5	0	0	974.6	NA	0.0000		9999	4130	0	0	0
2019/05/01 09:48:01	BASE	3.06	81	3.34	70	-3.1	72	-7.5	0	0	974.6	NA	0.0000		9999	3870	0	0	0
2019/05/01 09:49:01	BASE	2.58	85	3.34	70	-3.1	71	-7.6	0	0	974.6	NA	0.0000		9999	3770	0	0	0
2019/05/01 09:50:01	BASE	2.17	95	3.34	70	-3.1	71	-7.6	0	0	974.6	NA	0.0000		9999	0	0	0	3940
2019/05/01 09:51:01	BASE	2.08	105	3.34	70	-3.1	71	-7.6	0	0	974.6	NA	0.0000		9999	0	0	0	3840
2019/05/01 09:52:01	BASE	2.24	101	3.34	70	-3.0	71	-7.5	0	0	974.6	NA	0.0000		9999	0	0	0	3810
2019/05/01 09:53:01	BASE	3.18	95	4.27	87	-3.0	71	-7.6	0	0	974.6	NA	0.0000		9999	0	0	0	3770
2019/05/01 09:54:01	BASE	3.95	92	4.32	90	-3.0	70	-7.6	0	0	974.6	NA	0.0000		9999	0	0	0	3770
2019/05/01 09:55:01	BASE	3.84	91	4.32	90	-3.1	70	-7.7	0	0	974.6	NA	0.0000		9999	0	0	0	3710
2019/05/01 09:56:01	BASE	3.55	86	4.32	90	-3.1	71	-7.7	0	0	974.6	NA	0.0000		9999	2660	0	0	0
2019/05/01 09:57:01	BASE	3.39	85	4.32	90	-3.2	71	-7.7	0	0	974.6	NA	0.0000		9999	0	0	0	3640
2019/05/01 09:58:01	BASE	2.83	90	4.32	90	-3.3	72	-7.6	0	0	974.6	NA	0.0000		9999	0	0	0	3580
2019/05/01 09:59:01	BASE	2.62	94	4.32	90	-3.2	72	-7.5	0	0	974.6	NA	0.0000		9999	0	0	0	3510
2019/05/01 10:00:01	BASE	2.60	99	4.32	90	-3.2	73	-7.4	0	0	974.6	NA	0.0000		9999	0	0	0	3450
2019/05/01 10:01:01	BASE	2.35	97	4.32	90	-3.2	73	-7.3	0	0	974.6	NA	0.0000	UP	9999	0	0	0	3350
2019/05/01 10:02:01	BASE	2.27	92	4.32	90	-3.2	73	-7.3	0	0	974.6	NA	0.0000	UP	9999	0	0	0	3350
2019/05/01 10:03:01	BASE	2.23	96	4.32	90	-3.3	74	-7.3	0	0	974.6	NA	0.0000	UP	9999	0	0	0	3250
2019/05/01 10:04:01	BASE	2.30	101	3.91	96	-3.3	74	-7.2	0	0	974.6	NA	0.0000	UP	9999	0	0	0	3250
2019/05/01 10:05:01	BASE	2.37	104	3.81	84	-3.3	75	-7.2	0	0	974.6	NA	0.0000	UP	9999	0	0	0	3280
2019/05/01 10:06:01	BASE	2.23	106	3.81	84	-3.3	75	-7.1	0	0	974.6	NA	0.0000	UP	9999	0	0	0	3180
2019/05/01 10:07:01	BASE	1.86	104	3.19	94	-3.3	75	-7.1	0	0	974.6	NA	0.0000	UP	9999	0	0	0	3150
2019/05/01 10:08:01	BASE	1.60	100	3.19	94	-3.3	74	-7.2	0	0	974.6	NA	0.0000	UP	9999	0	0	0	3150
2019/05/01 10:09:01	BASE	1.66	97	2.68	92	-3.2	74	-7.2	0	0	974.6	NA	0.0000	UP	9999	0	0	0	3120
2019/05/01 10:10:01	BASE	1.60	95	2.68	92	-3.2	73	-7.3	0	0	974.6	NA	0.0000	UP	9999	1640	0	0	0
2019/05/01 10:11:01	BASE	0.92	94	2.62	106	-3.2	73	-7.4	0	0	974.6	NA	0.0000	UP	9999	1350	0	0	0
2019/05/01 10:12:01	BASE	0.20	100	2.62	106	-3.2	73	-7.4	0	0	974.6	NA	0.0000	UP	9999	0	0	0	2890
2019/05/01 10:13:01	BASE	0.00	117	2.62	106	-3.2	73	-7.4	0	0	974.6	NA	0.0000	UP	9999	0	0	0	2990
2019/05/01 10:14:01	BASE	0.00	131	2.52	111	-3.2	73	-7.4	0	0	974.7	NA	0.0000	UP	9999	0	0	0	3080
2019/05/01 10:15:01	BASE	0.00	142	2.21	107	-3.2	72	-7.4	0	0	974.7	NA	0.0000	UP	9999	0	0	0	2990
2019/05/01 10:16:01	BASE	0.00	151	1.95	102	-3.2	72	-7.5	0	0	974.7	NA	0.0000	UP	9999	0	0	0	2920
2019/05/01 10:17:01	BASE	0.00	153	1.85	95	-3.1	72	-7.5	0	0	974.7	NA	0.0000	UP	9999	0	0	0	2850
2019/05/01 10:18:01	BASE	0.00	153	1.85	95	-3.1	71	-7.6	0	0	974.7	NA	0.0000	UP	9999	0	0	0	2790
2019/05/01 10:19:01	BASE	0.00	153	1.59	95	-3.0	70	-7.7	0	0	974.7	NA	0.0000	UP	9999	0	0	0	2720
2019/05/01 10:20:01	BASE	0.00	153	1.39	95	-3.0	69	-7.8	0	0	974.7	NA	0.0000	UP	9999	0	0	0	2620
2019/05/01 10:21:01	BASE	0.00	153	M	M	-3.0	69	-7.8	0	0	974.7	NA	0.0000	UP	9999	0	0	0	2620
2019/05/01 10:22:01	BASE	0.00	153	M	M	-2.9	69	-7.9	0	0	974.7	NA	0.0000	UP	9999	0	0	0	2460
2019/05/01 10:23:01	BASE	0.00	153	M	M	-2.9	69	-7.9	0	0	974.7	NA	0.0000	UP	9999	0	0	0	2360
2019/05/01 10:24:01	BASE	0.00	155	M	M	-2.9	68	-7.9	0	0	974.7	NA	0.0000	UP	9999	0	0	0	2260
2019/05/01 10:25:01	BASE	0.00	169	M	M	-2.9	68	-8.0	0	0	974.7	NA	0.0000	UP	9999	390	0	0	0
2019/05/01 10:26:01	BASE	0.00	205	M	M	-2.9	68	-8.0	0	0	974.7	NA	0.0000	UP	9999	0	0	0	2300
2019/05/01 10:27:01	BASE	0.00	227	M	M	-3.0	68	-8.0	0	0	974.6	NA	0.0000	UP	9999	390	0	0	0
2019/05/01 10:28:01	BASE	0.04	230	1.03	225	-3.0	69	-7.9	0	0	974.6	NA	0.0000	UP	9000	430	0	0	0
2019/05/01 10:29:01	BASE	0.29	264	2.06	286	-3.0	69	-7.9	0	0	974.6	NA	0.0000	UP	8000	1020	0	0	0
2019/05/01 10:30:01	BASE	0.25	296	2.06	286	-3.0	70	-7.8	0	0	974.6	NA	0.0000	UP	9999	750	0	0	0
2019/05/01 10:31:01	BASE	0.00	290	2.06	286	-3.0	70	-7.8	0	0	974.6	NA	0.0000	UP	9999	950	0	0	0
2019/05/01 10:32:01	BASE	0.00	205	2.06	286	-3.1	71	-7.7	0	0	974.5	NA	0.0000	UP	9999	460	0	0	0
2019/05/01 10:33:01	BASE	0.00	137	2.06	286	-3.1	71	-7.6	0	0	974.5	NA	0.0000	UP	9999	430	0	0	0
2019/05/01 10:34:01	BASE	0.00	98	2.06	286	-3.2	72	-7.5	0	0	974.5	NA	0.0000	UP	9999	590	0	0	0
2019/05/01 10:35:01	BASE	0.00	72	2.06	286	-3.2	73	-7.4	0	0	974.5	NA	0.0000	UP	9999	620	0	0	0
2019/05/01 10:36:01	BASE	0.00	75	2.06	286	-3.2	73	-7.3	0	0	974.5	NA	0.0000	UP	9999	390	0	0	0
2019/05/01 10:37:01	BASE	0.00	76	2.06	286	-3.2	74	-7.3	0	0	974.5	NA	0.0000	UP	9999	0	0	0	2430
2019/05/01 10:38:00	BASE	0.00	76	2.06	286	-3.2	74	-7.3	0	0	974.5	NA	0.0000	UP	9999	0	0	0	2430
2019/05/01 10:39:01	BASE	0.00	77	M	M	-3.2	74	-7.3	0	0	974.5	NA	0.0000	UP	9000	0	0	0	2400
2019/05/01 10:40:01	BASE	0.00	75	M	M	-3.2	73	-7.3	0	0	974.5	NA	0.0000	UP	8000	0	0	0	2360
2019/05/01 10:41:00	BASE	0.00	72	M	M	-3.2	73	-7.3	0	0	974.5	NA	0.0000	UP	8000	0	0	0	2170
2019/05/01 10:42:01	BASE	0.00	73	M	M	-3.2	73	-7.4	0	0	974.5	NA	0.0000	UP	9000	0	0	0	2170
2019/05/01 10:43:01	BASE	0.00	82	M	M	-3.3	73	-7.3	0	0	974.5	NA	0.0000	UP	8000	0	0	0	2100
2019/05/01 10:44:00	BASE	0.00	105	M	M	-3.3	74	-7.3	0	0	974.5	NA	0.0000	UP	6000	430	0	0	0
2019/05/01 10:45:00	BASE	0.10	129	1.29	157	-3.3	74	-7.2	0	0	974.5	NA	0.0000	-SN	6000	390	0	0	0
2019/05/01 10:46:00	BASE	0.57	148	1.39	156	-3.3	75	-7.1	0	0	974.4	NA	0.0000	-SN	6000	620	0	0	0
2019/05/01 10:47:00	BASE	0.47	155	1.39	156	-3.3	75	-7.1	0	0	974.4	NA	0.0000	-SN	6000	390	0	0	0
2019/05/01 10:48:00	BASE	0.77	126	2.11	101	-3.3	76	-7.0	0	0	974.5	NA	0.0000	-SN	7000	460	0	0	0
2019/05/01 10:49:01	BASE	1.81	102	2.52	103	-3.3	76	-6.9	0	0	974.5	NA	0.0000	-SN	9000	490	0	0	0
2019/05/01 10:50:01	BASE	3.04	106	4.84	103	-3.3	77	-6.8	0	0	974.5	NA	0.0000	-SN	5000	390	0	0	0
2019/05/01 10:51:00	BASE	3.66	118	4.84	103	-3.4	77	-6.8	0	0	974.5	NA	0.0000	-SN	3700	0	0	0	1670
2019/05/01 10:52:01	BASE	3.76	130	5.35	151	-3.4	78	-6.7	0	0	974.4	NA	0.0000	-SN	3600	330	0	0	0
2019/05/01 10:53:01	BASE	4.48	140	5.45	146	-3.4	78	-6.6	0	0	974.3	NA	0.0000	-SN	3600	230	0	0	0
2019/05/01 10:54:00	BASE	4.68	148	5.45	146	-3.4	79	-6.5	0	0	974.3	NA	0.0000	-SN	3700	300	0	0	0
2019/05/01 10:55:01	BASE	4.91	148	6.38	138	-3.4	79	-6.4	0	0	974.3	NA	0.0000	-SN	4100	430	0	0	0
2019/05/01 10:56:00	BASE	5.88	142	7.61	133	-3.3	80	-6.3	0	0	974.3	NA	0.0000	-SN	3800	300	0	0	0
2019/05/01 10:57:01	BASE	6.93	138	7.82	142	-3.3	80	-6.2	0	0	974.3	NA	0.0000	-SN	3100	260	0	0	0
2019/05/01 10:58:01	BASE	6.69	135	7.82	142	-3.2	81	-6.1	0	0	974.3	NA	0.0000	-SN	2800	260	0	0	0
2019/05/01 10:59:01	BASE	7.20	135	9.77	130	-3.2	81	-5.9	0	0	974.2	NA	0.0000	-SN	2800	260	0	0	0
2019/05/01 11:00:01	BASE	8.23	136	9.77	130	-3.2	82	-5.8	0	0	974.2	NA	0.0000	-SN	2600	0	0	0	1710
2019/05/01 11:01:01	BASE	8.97	133	10.65	126	-3.1	83	-5.7	0	0	974.2	NA	0.0000	-SN	2300	0	0	0	1640
2019/05/01 11:02:01	BASE	9.54	132	10.65	126	-3.2	83	-5.6	0	0	974.2	NA	0.0000	-SN	2000	0	0	0	1670
2019/05/01 11:03:01	BASE	8.81	138	10.65	126	-3.2	84	-5.5	0	0	974.2	NA	0.0000	-SN	2300	0	0	0	1740
2019/05/01 11:04:01	BASE	8.24	140	10.65	126	-3.2	84	-5.4	0	0	974.2	NA	0.0000	-SN	2800	260	0	0	0
2019/05/01 11:05:01	BASE	8.47	140	10.65	126	-3.2	85	-5.4	0	0	974.2	NA	0.0000	-SN BR	2900	260	0	0	0
2019/05/01 11:06:01	BASE	9.51	137	11.16	137	-3.2	86	-5.3	0	0	974.2	NA	0.0000	-SN BR	2100	0	0	0	1510
2019/05/01 11:07:00	BASE	10.13	134	11.16	137	-3.2	86	-5.2	0	0	974.2	NA	0.0000	-SN BR	1400	0	0	0	1510
2019/05/01 11:08:00	BASE	9.66	133	11.16	137	-3.2	87	-5.1	0	0	974.2	NA	0.0000	-SN BR	1300	0	0	0	1510
2019/05/01 11:09:01	BASE	9.56	133	11.16	137	-3.3	87	-5.1	0	0	974.2	NA	0.0000	-SN BR	1300	0	0	0	1510
2019/05/01 11:10:01	BASE	9.61	132	11.16	137	-3.3	88	-5.0	0	0	974.2	NA	0.0000	-SN BR	1300	0	0	0	1510
2019/05/01 11:11:00	BASE	9.19	130	11.16	137	-3.4	89	-4.9	0	0	974.2	NA	0.0000	-SN BR	1300	0	0	0	1510
2019/05/01 11:12:00	BASE	8.56	126	11.16	137	-3.4	90	-4.8	0	0	974.2	NA	0.0000	-SN BR	1200	0	0	0	1740
2019/05/01 11:13:01	BASE	7.97	124	11.16	137	-3.4	91	-4.7	0	0	974.2	NA	0.0000	-SN BR	1200	0	0	0	1800
2019/05/01 11:14:00	BASE	8.03	119	11.16	137	-3.5	92	-4.6	0	0	974.2	NA	0.0000	-SN BR	1300	0	0	0	2000
2019/05/01 11:15:00	BASE	7.78	111	11.16	137	-3.5	93	-4.5	0	0	974.2	NA	0.0000	-SN BR	1300	0	0	0	2070
2019/05/01 11:16:00	BASE	7.13	103	10.75	133	-3.6	94	-4.4	0	0	974.2	NA	0.0000	-SN BR	1300	0	0	0	2070
2019/05/01 11:17:01	BASE	7.77	95	10.55	132	-3.7	96	-4.3	0	0	974.2	NA	0.0000	-SN BR	1500	0	0	0	2230
2019/05/01 11:18:01	BASE	9.30	90	11.99	84	-3.7	97	-4.2	0	0	974.2	NA	0.0000	-SN BR	1600	0	0	0	2360
2019/05/01 11:19:00	BASE	10.03	93	11.99	84	-3.8	98	-4.0	0	0	974.2	NA	0.0000	-SN BR	1400	0	0	0	2400
2019/05/01 11:20:00	BASE	10.46	98	12.14	106	-3.8	99	-3.9	0	0	974.2	NA	0.0000	-SN BR	1300	0	0	0	2400
2019/05/01 11:21:00	BASE	11.26	102	13.07	97	-3.8	99	-3.9	0	0	974.2	NA	0.0000	-SN BR	1300	0	0	0	2260
2019/05/01 11:22:01	BASE	11.64	105	13.07	97	-3.8	100	-3.9	0	0	974.1	NA	0.0000	-SN BR	1700	0	0	0	2170
2019/05/01 11:23:00	BASE	11.58	107	13.07	97	-3.9	100	-3.9	0	0	974.2	NA	0.0000	-SN BR	1700	0	0	0	2230
2019/05/01 11:24:00	BASE	11.24	108	13.07	97	-3.9	100	-3.9	0	0	974.2	NA	0.0000	-SN BR	1600	0	0	0	2260
2019/05/01 11:25:01	BASE	10.98	110	13.07	97	-3.9	100	-3.9	0	0	974.2	NA	0.0000	-SN BR	1800	0	0	0	2330
2019/05/01 11:26:00	BASE	10.92	113	13.07	97	-3.9	100	-3.9	0	0	974.2	NA	0.0000	-SN BR	2000	0	0	0	2430
2019/05/01 11:27:00	BASE	10.31	114	13.07	97	-3.9	100	-3.9	0	0	974.2	NA	0.0000	-SN BR	2300	0	0	0	2530
2019/05/01 11:28:00	BASE	9.85	115	13.07	97	-3.9	100	-3.9	0	0	974.2	NA	0.0000	-SN BR	2600	0	0	0	2530
2019/05/01 11:29:00	BASE	9.55	114	13.07	97	-3.9	100	-3.9	0	0	974.2	NA	0.0000	-SN BR	2600	0	0	0	2690
2019/05/01 11:30:00	BASE	9.27	112	13.07	97	-3.9	100	-3.9	0	0	974.2	NA	0.0000	-SN BR	2600	360	0	0	0
2019/05/01 11:31:00	BASE	9.03	112	12.66	107	-3.9	100	-3.9	0	0	974.2	NA	0.0000	-SN BR	2500	330	0	0	0
2019/05/01 11:32:00	BASE	8.81	115	12.66	107	-3.9	100	-3.9	0	0	974.2	NA	0.0000	-SN BR	2500	330	0	0	0
2019/05/01 11:33:01	BASE	8.79	115	11.78	106	-3.9	100	-3.9	0	0	974.2	NA	0.0000	-SN BR	2500	330	0	0	0
2019/05/01 11:34:00	BASE	8.67	117	11.68	111	-3.9	100	-3.9	0	0	974.2	NA	0.0000	-SN BR	2600	330	0	0	0
2019/05/01 11:35:00	BASE	8.45	119	11.32	118	-3.9	100	-3.9	0	0	974.2	NA	0.0000	-SN BR	2900	260	0	0	0
2019/05/01 11:36:00	BASE	8.22	121	10.65	122	-3.9	100	-3.9	0	0	974.2	NA	0.0000	-SN BR	3100	950	0	0	0
2019/05/01 11:37:00	BASE	8.15	124	10.44	117	-3.9	100	-3.9	0	0	974.2	NA	0.0000	-SN BR	3000	260	0	0	0
2019/05/01 11:38:00	BASE	7.87	124	10.13	109	-3.9	100	-3.9	0	0	974.0	NA	0.0000	-SN BR	2700	0	0	0	2070
2019/05/01 11:39:00	BASE	7.78	120	10.13	109	-3.9	100	-3.9	0	0	974.2	NA	0.0000	-SN BR	2600	230	0	0	0
2019/05/01 11:40:00	BASE	8.15	118	9.36	115	-3.9	100	-3.9	0	0	974.2	NA	0.0000	-SN BR	2700	0	0	0	2000
2019/05/01 11:41:00	BASE	8.09	121	9.36	115	-3.9	100	-3.9	0	0	974.0	NA	0.0000	-SN BR	2900	260	0	0	0
2019/05/01 11:42:00	BASE	7.95	123	9.36	115	-3.8	100	-3.8	0	0	973.7	NA	0.0000	-SN BR	2900	0	0	0	1800
2019/05/01 11:43:00	BASE	8.27	122	9.05	117	-3.8	100	-3.8	0	0	974.2	NA	0.0000	-SN BR	2700	0	0	0	1900
2019/05/01 11:44:00	BASE	8.74	121	9.47	120	-3.8	100	-3.8	0	0	974.2	NA	0.0000	-SN BR	2600	0	0	0	1770
2019/05/01 11:45:01	BASE	8.80	121	9.47	120	-3.8	100	-3.8	0	0	974.2	NA	0.0000	-SN BR	2600	0	0	0	2170
2019/05/01 11:46:00	BASE	8.59	123	9.47	120	-3.8	100	-3.8	0	0	974.2	NA	0.0000	-SN BR	2000	0	0	0	1610
2019/05/01 11:47:00	BASE	8.61	123	9.47	120	-3.8	100	-3.8	0	0	974.1	NA	0.0000	-SN BR	1500	0	0	0	1870
2019/05/01 11:48:00	BASE	8.53	122	9.47	120	-3.8	100	-3.8	0	0	974.2	NA	0.0000	-SN BR	1400	0	0	0	3220
2019/05/01 11:49:00	BASE	8.74	120	9.62	116	-3.8	100	-3.8	0	0	974.2	NA	0.0000	-SN BR	1400	0	0	0	3180
2019/05/01 11:50:00	BASE	9.02	119	9.62	116	-3.8	100	-3.8	0	0	973.8	NA	0.0000	-SN BR	1200	0	0	0	2920
2019/05/01 11:51:00	BASE	8.88	121	9.62	116	-3.8	100	-3.8	0	0	973.7	NA	0.0000	-SN BR	1300	0	0	0	2850
2019/05/01 11:52:00	BASE	8.84	121	9.62	116	-3.8	100	-3.8	0	0	974.1	NA	0.0000	-SN BR	1300	0	0	0	2990
2019/05/01 11:53:00	BASE	8.73	124	9.62	116	-3.8	100	-3.8	0	0	974.1	NA	0.0000	-SN BR	1500	0	0	0	2950
2019/05/01 11:54:00	BASE	8.29	126	9.62	116	-3.8	100	-3.8	0	0	974.2	NA	0.0000	-SN BR	2300	260	0	0	0
2019/05/01 11:55:00	BASE	8.36	126	9.62	116	-3.8	100	-3.8	0	0	974.1	NA	0.0000	-SN BR	2500	0	0	0	2890
2019/05/01 11:56:00	BASE	8.20	126	9.62	116	-3.8	100	-3.8	0	0	974.2	NA	0.0000	-SN BR	2400	0	0	0	2950
2019/05/01 11:57:00	BASE	7.78	127	9.62	116	-3.8	100	-3.8	0	0	974.2	NA	0.0000	-SN BR	2400	0	0	0	3120
2019/05/01 11:58:01	BASE	8.14	127	9.62	116	-3.8	100	-3.8	0	0	974.1	NA	0.0000	-SN BR	2400	0	0	0	3080
2019/05/01 11:59:00	BASE	8.68	127	9.62	128	-3.8	100	-3.8	0	0	974.1	NA	0.0000	-SN BR	2400	0	0	0	3540
2019/05/01 12:00:00	BASE	8.75	128	9.62	128	-3.8	100	-3.8	0	0	974.1	NA	0.0000	-SN BR	2400	0	0	0	3120
2019/05/01 12:01:00	BASE	8.42	126	9.62	128	-3.8	100	-3.8	1	0	974.1	NA	0.0000	-SN BR	2800	330	0	0	0
2019/05/01 12:02:00	BASE	8.87	124	10.70	123	-3.8	100	-3.8	1	0	974.1	NA	0.0000	-SN BR	3200	360	0	0	0
2019/05/01 12:03:00	BASE	9.07	122	10.70	123	-3.8	100	-3.8	1	0	973.9	NA	0.0000	-SN BR	3300	360	0	0	0
2019/05/01 12:04:00	BASE	9.29	122	11.32	112	-3.8	100	-3.8	1	0	973.6	NA	0.0000	-SN BR	3400	390	0	0	0
2019/05/01 12:05:00	BASE	10.50	119	12.09	118	-3.8	100	-3.8	1	0	974.1	NA	0.0000	-SN BR	3600	330	0	0	0
2019/05/01 12:06:00	BASE	10.71	117	12.09	118	-3.7	100	-3.7	1	0	974.1	NA	0.0000	-SN BR	3700	360	0	0	0
2019/05/01 12:07:00	BASE	10.56	117	12.09	118	-3.7	100	-3.7	1	0	973.8	NA	0.0000	-SN BR	4000	360	0	0	0
2019/05/01 12:08:00	BASE	10.48	117	12.09	118	-3.7	100	-3.7	1	0	974.1	NA	0.0000	-SN BR	4100	330	0	0	0
2019/05/01 12:09:00	BASE	9.86	116	12.09	118	-3.7	100	-3.7	1	0	974.1	NA	0.0000	-SN BR	2300	300	0	0	0
2019/05/01 12:10:01	BASE	9.51	116	12.09	118	-3.6	100	-3.6	1	0	974.1	NA	0.0000	-SN BR	2300	300	0	0	0
2019/05/01 12:11:00	BASE	9.46	119	12.09	118	-3.6	100	-3.6	1	0	974.1	NA	0.0000	-SN BR	2400	300	0	0	0
2019/05/01 12:12:00	BASE	9.25	123	12.09	118	-3.6	100	-3.6	1	0	974.0	NA	0.0000	-SN BR	2500	300	0	0	0
2019/05/01 12:13:00	BASE	9.59	124	12.09	118	-3.6	100	-3.6	1	0	974.0	NA	0.0000	-SN BR	2500	300	0	0	0
2019/05/01 12:14:00	BASE	11.10	120	12.60	118	-3.6	100	-3.6	1	0	974.0	NA	0.0000	-SN BR	3500	330	0	0	0
2019/05/01 12:15:00	BASE	12.20	115	13.27	112	-3.6	100	-3.6	1	0	973.9	NA	0.0000	-SN BR	4000	300	0	0	0
2019/05/01 12:16:00	BASE	12.16	116	13.27	112	-3.6	100	-3.6	1	0	973.9	NA	0.0000	-SN BR	3700	330	3350	0	0
2019/05/01 12:17:00	BASE	11.36	117	13.27	112	-3.6	100	-3.6	2	0	973.9	NA	0.0000	-SN BR	4100	300	3310	0	0
2019/05/01 12:18:00	BASE	10.61	121	13.27	112	-3.5	100	-3.5	2	0	973.9	NA	0.0000	-SN BR	4100	330	3310	0	0
2019/05/01 12:19:00	BASE	9.88	125	13.27	112	-3.5	100	-3.5	2	0	973.9	NA	0.0000	-SN BR	5000	330	3380	0	0
2019/05/01 12:20:00	BASE	9.03	129	13.27	112	-3.5	100	-3.5	2	0	973.9	NA	0.0000	-SN BR	7000	360	0	0	0
2019/05/01 12:21:00	BASE	8.68	130	13.27	112	-3.5	100	-3.5	2	0	973.9	NA	0.0000	-SN BR	5000	330	0	0	0
2019/05/01 12:22:00	BASE	8.63	131	13.27	112	-3.5	100	-3.5	2	0	973.9	NA	0.0000	-SN BR	4300	360	0	0	0
2019/05/01 12:23:00	BASE	8.91	131	13.27	112	-3.5	100	-3.5	2	0	973.9	NA	0.0000	-SN BR	5000	360	3310	0	0
2019/05/01 12:24:01	BASE	9.08	132	13.27	112	-3.5	100	-3.5	2	0	973.9	NA	0.0000	-SN BR	7000	430	0	0	0
2019/05/01 12:25:00	BASE	8.92	133	12.66	120	-3.5	100	-3.5	2	0	973.9	NA	0.0000	-SN BR	9999	460	0	0	0
2019/05/01 12:26:00	BASE	9.01	133	11.73	115	-3.5	100	-3.5	2	0	973.9	NA	0.0000	-SN BR	9000	360	3250	0	0
2019/05/01 12:27:00	BASE	8.98	133	10.96	123	-3.5	100	-3.5	2	0	973.9	NA	0.0000	-SN BR	7000	360	3250	0	0
2019/05/01 12:28:00	BASE	8.72	134	10.19	129	-3.5	100	-3.5	2	0	973.9	NA	0.0000	-SN BR	5000	360	0	0	0
2019/05/01 12:29:01	BASE	9.24	136	10.70	138	-3.5	100	-3.5	2	0	973.9	NA	0.0000	-SN BR	4500	360	0	0	0
2019/05/01 12:30:00	BASE	9.58	137	10.70	138	-3.5	100	-3.5	2	0	973.8	NA	0.0000	-SN BR	5000	360	0	0	0
2019/05/01 12:31:00	BASE	9.37	138	10.70	138	-3.4	100	-3.4	2	0	973.8	NA	0.0000	-SN BR	3600	0	0	0	3450
2019/05/01 12:32:00	BASE	9.04	138	10.70	138	-3.4	100	-3.4	3	0	973.8	NA	0.0000	-SN BR	2600	0	0	0	3450
2019/05/01 12:33:00	BASE	8.66	139	10.70	138	-3.4	100	-3.4	3	0	973.8	NA	0.0000	-SN BR	2300	0	0	0	3350
2019/05/01 12:34:00	BASE	8.24	141	10.70	138	-3.4	100	-3.4	3	0	973.7	NA	0.0000	-SN BR	2200	0	0	0	3350
2019/05/01 12:35:00	BASE	8.13	143	10.70	138	-3.4	100	-3.4	3	0	973.4	NA	0.0000	-SN BR	2200	0	0	0	3310
2019/05/01 12:36:01	BASE	8.09	142	10.70	138	-3.4	100	-3.4	4	0	973.7	NA	0.0000	-SN BR	2200	300	0	0	0
2019/05/01 12:37:00	BASE	7.86	140	10.70	138	-3.4	100	-3.4	4	0	973.7	NA	0.0000	-SN BR	2600	330	0	0	0
2019/05/01 12:38:00	BASE	7.81	141	10.70	138	-3.4	100	-3.4	4	0	973.7	NA	0.0000	-SN BR	3200	330	0	0	0
2019/05/01 12:39:00	BASE	7.62	142	10.44	141	-3.4	100	-3.4	5	0	973.7	NA	0.0000	-SN BR	4000	330	0	0	0
2019/05/01 12:40:01	BASE	8.06	140	10.08	137	-3.4	100	-3.4	5	0	973.7	NA	0.0000	-SN BR	2800	300	0	0	0
2019/05/01 12:41:00	BASE	7.96	138	10.03	134	-3.4	100	-3.4	6	0	973.6	NA	0.0000	-SN BR	2200	300	0	0	0
2019/05/01 12:42:00	BASE	7.58	137	10.03	134	-3.4	100	-3.4	6	0	973.7	NA	0.0000	-SN BR	2300	300	0	0	0
2019/05/01 12:43:00	BASE	8.75	136	10.65	134	-3.4	100	-3.4	7	0	973.7	NA	0.0000	-SN BR	2200	300	0	0	0
2019/05/01 12:44:00	BASE	9.80	134	10.80	134	-3.4	100	-3.4	7	0	973.7	NA	0.0000	-SN BR	2100	330	0	0	0
2019/05/01 12:45:01	BASE	10.07	134	11.16	133	-3.4	100	-3.4	8	0	973.6	NA	0.0000	-SN BR	2100	300	0	0	0
2019/05/01 12:46:00	BASE	10.32	133	11.16	133	-3.4	100	-3.4	8	0	973.7	NA	0.0000	-SN BR	2200	300	1150	0	0
2019/05/01 12:47:00	BASE	10.52	133	11.37	134	-3.3	100	-3.3	9	0	973.7	NA	0.0000	-SN BR	2200	300	3280	0	0
2019/05/01 12:48:00	BASE	10.39	134	11.37	134	-3.3	100	-3.3	9	0	973.2	NA	0.0000	-SN BR	2100	300	3180	0	0
2019/05/01 12:49:00	BASE	10.21	135	11.37	134	-3.3	100	-3.3	10	0	973.7	NA	0.0000	-SN BR	2200	330	3120	0	0
2019/05/01 12:50:00	BASE	10.16	136	11.37	134	-3.3	100	-3.3	11	0	973.7	NA	0.0000	-SN BR	2300	260	3120	0	0
2019/05/01 12:51:00	BASE	10.06	137	11.42	137	-3.3	100	-3.3	12	0	973.7	NA	0.0000	-SN BR	2300	300	3220	0	0
2019/05/01 12:52:00	BASE	9.84	139	11.42	137	-3.3	100	-3.3	13	0	973.7	NA	0.0000	-SN BR	2200	300	2760	0	0
2019/05/01 12:53:00	BASE	10.20	139	12.35	140	-3.2	100	-3.2	13	0	973.7	NA	0.0000	-SN BR	2100	300	2790	0	0
2019/05/01 12:54:00	BASE	11.01	138	12.35	140	-3.2	100	-3.2	14	0	973.7	NA	0.0000	-SN BR	2000	300	3080	0	0
2019/05/01 12:55:00	BASE	11.65	137	13.32	137	-3.2	100	-3.2	15	0	973.7	NA	0.0000	-SN BR	2100	300	0	0	0
2019/05/01 12:56:01	BASE	12.59	134	14.20	128	-3.2	100	-3.2	15	0	973.7	NA	0.0000	-SN BR	2200	300	0	0	0
2019/05/01 12:57:00	BASE	12.10	135	14.20	128	-3.2	100	-3.2	16	0	973.7	NA	0.0000	-SN BR	2200	360	0	0	0
2019/05/01 12:58:00	BASE	11.05	136	14.20	128	-3.2	100	-3.2	16	0	973.7	NA	0.0000	-SN BR	2300	0	0	0	3510
2019/05/01 12:59:00	BASE	11.32	135	14.20	128	-3.1	100	-3.1	17	0	973.7	NA	0.0000	-SN BR	2100	0	0	0	3450
2019/05/01 13:00:00	BASE	11.26	135	14.20	128	-3.1	100	-3.1	17	0	973.7	NA	0.0000	-SN BR	2200	0	0	0	3280
2019/05/01 13:01:00	BASE	10.76	135	14.20	128	-3.1	100	-3.1	17	0	973.7	NA	0.0000	-SN BR	2500	0	0	0	3150
2019/05/01 13:02:00	BASE	11.09	134	14.20	128	-3.0	100	-3.0	18	0	973.7	NA	0.0000	-SN BR	2700	0	0	0	3250
2019/05/01 13:03:00	BASE	11.18	134	14.20	128	-3.0	100	-3.0	18	0	973.7	NA	0.0000	-SN BR	2800	360	0	0	0
2019/05/01 13:04:00	BASE	11.18	133	14.20	128	-3.0	100	-3.0	19	0	973.7	NA	0.0000	-SN BR	2700	390	0	0	0
2019/05/01 13:05:00	BASE	11.70	133	14.20	128	-3.0	100	-3.0	19	0	973.7	NA	0.0000	-SN BR	2600	390	0	0	0
2019/05/01 13:06:00	BASE	11.34	135	13.12	131	-3.1	100	-3.1	19	0	973.7	NA	0.0000	-SN BR	2700	390	0	0	0
2019/05/01 13:07:00	BASE	11.24	133	13.12	131	-3.1	100	-3.1	20	0	973.7	NA	0.0000	-SN BR	2800	390	0	0	0
2019/05/01 13:08:00	BASE	11.49	127	13.12	131	-3.1	100	-3.1	20	0	973.7	NA	0.0000	-SN BR	2700	360	0	0	0
2019/05/01 13:09:00	BASE	10.96	124	12.81	133	-3.1	100	-3.1	21	0	973.7	NA	0.0000	-SN BR	3000	360	0	0	0
2019/05/01 13:10:00	BASE	11.07	121	12.81	133	-3.1	100	-3.1	21	0	973.7	NA	0.0000	-SN BR	3500	360	0	0	0
2019/05/01 13:11:00	BASE	11.25	118	12.81	133	-3.1	100	-3.1	22	0	973.7	NA	0.0000	-SN BR	3300	360	0	0	0
2019/05/01 13:12:00	BASE	11.00	118	12.81	133	-3.1	100	-3.1	23	0	973.7	NA	0.0000	-SN BR	3200	330	0	0	0
2019/05/01 13:13:00	BASE	11.14	118	12.81	133	-3.1	100	-3.1	23	0	973.7	NA	0.0000	-SN BR	3500	330	0	0	0
2019/05/01 13:14:00	BASE	10.95	119	12.81	133	-3.1	100	-3.1	24	0	973.7	NA	0.0000	-SN BR	4000	360	0	0	0
2019/05/01 13:15:00	BASE	10.65	122	12.55	130	-3.0	100	-3.0	25	0	973.4	NA	0.0000	-SN BR	3500	300	0	0	0
2019/05/01 13:16:00	BASE	10.80	122	12.55	130	-3.0	100	-3.1	26	0	972.4	NA	0.0000	-SN BR	2400	300	0	0	0
2019/05/01 13:17:00	BASE	10.69	122	12.35	116	-3.1	100	-3.1	26	0	973.0	NA	0.0000	-SN BR	2100	0	0	0	3150
2019/05/01 13:18:00	BASE	10.28	124	12.35	116	-3.1	99	-3.1	27	0	972.9	NA	0.0000	-SN BR	1900	0	0	0	3080
2019/05/01 13:19:01	BASE	10.01	125	12.35	116	-3.1	99	-3.2	28	0	973.3	NA	0.0000	-SN BR	1600	260	0	0	0
2019/05/01 13:20:01	BASE	9.89	124	11.88	120	-3.1	99	-3.2	28	0	972.9	NA	0.0000	-SN BR	1700	300	23000	0	0
2019/05/01 13:21:00	BASE	10.04	121	11.78	119	-3.0	98	-3.3	29	0	973.7	NA	0.0000	-SN BR	1900	300	0	0	0
2019/05/01 13:22:00	BASE	9.95	119	11.78	119	-3.0	98	-3.3	29	0	973.2	NA	0.0000	-SN BR	1900	0	0	0	2690
2019/05/01 13:23:00	BASE	10.01	115	11.78	119	-3.0	98	-3.3	30	0	973.7	NA	0.0000	-SN BR	2000	0	0	0	2660
2019/05/01 13:24:00	BASE	10.61	113	11.73	118	-3.0	98	-3.2	30	0	973.2	NA	0.0000	-SN BR	2200	0	0	0	2720
2019/05/01 13:25:00	BASE	10.72	112	12.45	116	-2.9	98	-3.2	30	0	973.1	NA	0.0000	-SN BR	2200	0	0	0	2660
2019/05/01 13:26:00	BASE	10.72	113	12.45	116	-2.9	98	-3.2	31	0	973.7	NA	0.0000	-SN BR	2100	300	0	0	0
2019/05/01 13:27:00	BASE	10.62	113	12.45	116	-2.9	98	-3.1	31	0	973.7	NA	0.0000	-SN BR	2100	330	0	0	0
2019/05/01 13:28:00	BASE	9.85	111	12.45	116	-2.8	98	-3.1	31	0	972.9	NA	0.0000	-SN BR	2200	1350	0	0	0
2019/05/01 13:29:00	BASE	9.71	111	12.45	116	-2.8	98	-3.1	32	0	973.3	NA	0.0000	-SN BR	2100	0	0	0	2330
2019/05/01 13:30:00	BASE	10.08	111	12.45	116	-2.8	98	-3.1	31	0	973.6	NA	0.0000	-SN BR	2000	0	0	0	2230
2019/05/01 13:31:00	BASE	10.00	111	12.45	116	-2.8	98	-3.1	31	0	973.7	NA	0.0000	-SN BR	2100	0	0	0	2130
2019/05/01 13:32:00	BASE	9.89	109	12.45	116	-2.9	98	-3.1	31	0	973.7	NA	0.0000	-SN BR	2200	0	0	0	2070
2019/05/01 13:33:00	BASE	9.66	111	12.45	116	-2.9	98	-3.1	31	0	973.7	NA	0.0000	-SN BR	2300	330	0	0	0
2019/05/01 13:34:00	BASE	9.32	113	12.45	116	-2.9	98	-3.1	30	0	973.7	NA	0.0000	-SN BR	2300	0	0	0	2100
2019/05/01 13:35:00	BASE	9.18	113	11.57	117	-2.9	99	-3.1	30	0	973.7	NA	0.0000	-SN BR	2100	0	0	0	2620
2019/05/01 13:36:00	BASE	9.25	113	11.11	103	-2.9	99	-3.0	30	0	973.7	NA	0.0000	-SN BR	2100	0	0	0	2620
2019/05/01 13:37:00	BASE	9.01	110	10.96	115	-2.9	99	-3.0	30	0	973.7	NA	0.0000	-SN BR	2100	0	0	0	2460
2019/05/01 13:38:00	BASE	8.11	105	10.96	115	-2.9	100	-2.9	29	0	973.7	NA	0.0000	-SN BR	2000	0	0	0	2430
2019/05/01 13:39:00	BASE	8.10	100	10.96	115	-2.9	100	-2.9	29	0	973.7	NA	0.0000	-SN BR	1800	0	0	0	2360
2019/05/01 13:40:00	BASE	9.07	99	10.70	106	-2.9	100	-2.9	29	0	973.7	NA	0.0000	-SN BR	2000	0	0	0	2300
2019/05/01 13:41:00	BASE	9.29	101	10.55	106	-2.9	100	-2.9	29	0	973.7	NA	0.0000	-SN BR	2000	0	0	0	2170
2019/05/01 13:42:00	BASE	8.93	104	10.49	104	-2.9	100	-2.9	29	0	973.2	NA	0.0000	-SN BR	1900	0	0	0	2070
2019/05/01 13:43:00	BASE	9.17	103	10.55	92	-2.9	100	-2.9	29	0	973.7	NA	0.0000	-SN BR	1900	0	0	0	5510
2019/05/01 13:44:00	BASE	10.05	101	11.21	99	-2.9	100	-2.9	29	0	973.7	NA	0.0000	-SN BR	2100	0	0	0	5380
2019/05/01 13:45:00	BASE	10.10	102	11.21	99	-2.9	100	-3.0	28	0	973.7	NA	0.0000	-SN BR	2500	0	0	0	5350
2019/05/01 13:46:00	BASE	9.51	104	11.57	100	-2.9	100	-3.0	28	0	973.6	NA	0.0000	-SN BR	3200	0	0	0	5220
2019/05/01 13:47:00	BASE	9.67	106	11.57	100	-2.9	99	-3.0	28	0	972.9	NA	0.0000	-SN BR	3500	0	0	0	5280
2019/05/01 13:48:00	BASE	10.11	105	11.57	100	-2.9	99	-3.0	29	0	973.0	NA	0.0000	-SN BR	3600	0	0	0	5250
2019/05/01 13:49:00	BASE	10.60	102	12.35	100	-2.9	99	-3.0	29	0	973.6	NA	0.0000	-SN BR	4100	0	0	0	5250
2019/05/01 13:50:00	BASE	10.89	102	12.35	100	-2.9	99	-3.0	28	0	973.0	NA	0.0000	-SN BR	4500	0	0	0	5380
2019/05/01 13:51:00	BASE	10.41	100	12.35	100	-2.9	99	-3.0	28	0	973.7	NA	0.0000	-SN BR	4300	0	0	0	5280
2019/05/01 13:52:00	BASE	9.75	97	12.35	100	-2.9	99	-3.0	28	0	973.7	NA	0.0000	-SN BR	3800	0	0	0	5150
2019/05/01 13:53:00	BASE	9.93	99	12.35	100	-2.9	99	-3.0	28	0	973.7	NA	0.0000	-SN BR	3700	0	0	0	5150
2019/05/01 13:54:00	BASE	10.08	99	12.35	100	-2.9	99	-3.0	28	0	973.7	NA	0.0000	-SN BR	4100	0	0	0	5120
2019/05/01 13:55:00	BASE	9.96	98	12.35	100	-2.9	99	-3.0	29	0	973.5	NA	0.0000	-SN BR	3900	0	0	0	4920
2019/05/01 13:56:00	BASE	10.05	98	12.35	100	-2.9	99	-3.0	29	0	973.7	NA	0.0000	-SN BR	3800	0	0	0	4890
2019/05/01 13:57:00	BASE	10.24	100	12.35	100	-2.9	99	-3.0	29	0	973.7	NA	0.0000	-SN BR	3600	0	0	0	4990
2019/05/01 13:58:00	BASE	10.41	102	12.35	100	-2.9	99	-3.0	29	0	973.7	NA	0.0000	-SN BR	3000	0	0	0	5020
2019/05/01 13:59:00	BASE	9.89	103	11.73	103	-2.9	99	-3.0	30	0	973.8	NA	0.0000	-SN BR	2600	0	0	0	4790
2019/05/01 14:00:00	BASE	9.71	102	11.68	105	-2.8	99	-3.0	30	0	973.8	NA	0.0000	-SN BR	2700	0	0	0	4860
2019/05/01 14:01:00	BASE	10.06	103	11.68	105	-2.8	98	-3.0	30	0	974.0	NA	0.0000	-SN BR	3000	0	0	0	4720
2019/05/01 14:02:00	BASE	10.28	102	11.68	105	-2.8	98	-3.1	30	0	973.8	NA	0.0000	-SN BR	2500	0	0	0	4590
2019/05/01 14:03:00	BASE	10.19	101	11.68	105	-2.8	98	-3.1	31	0	974.0	NA	0.0000	-SN BR	2200	0	0	0	4530
2019/05/01 14:04:00	BASE	9.91	102	11.68	105	-2.8	98	-3.1	31	0	973.7	NA	0.0000	-SN BR	2600	0	0	0	4590
2019/05/01 14:05:00	BASE	9.63	102	11.68	105	-2.8	97	-3.2	32	0	973.7	NA	0.0000	-SN BR	2700	0	0	0	4630
2019/05/01 14:06:00	BASE	10.23	101	11.68	99	-2.8	97	-3.2	32	0	973.8	NA	0.0000	-SN BR	2100	0	0	0	4630
2019/05/01 14:07:01	BASE	10.70	103	11.68	99	-2.8	97	-3.3	33	0	973.9	NA	0.0000	-SN BR	2100	0	0	0	4720
2019/05/01 14:08:00	BASE	10.76	106	11.78	104	-2.8	96	-3.3	33	0	973.9	NA	0.0000	-SN BR	2200	0	0	0	4690
2019/05/01 14:09:00	BASE	10.97	106	11.78	104	-2.8	96	-3.3	33	0	973.9	NA	0.0000	-SN BR	2300	0	0	0	4790
2019/05/01 14:10:00	BASE	10.63	106	11.78	104	-2.8	96	-3.3	34	0	973.9	NA	0.0000	-SN BR	2300	0	0	0	4760
2019/05/01 14:11:00	BASE	10.73	106	11.94	104	-2.8	96	-3.4	34	0	973.9	NA	0.0000	-SN BR	2500	0	0	0	4690
2019/05/01 14:12:00	BASE	10.88	108	11.94	104	-2.8	96	-3.4	34	0	973.9	NA	0.0000	-SN BR	2500	0	0	0	4760
2019/05/01 14:13:00	BASE	9.94	109	11.94	104	-2.8	95	-3.4	34	0	973.9	NA	0.0000	-SN BR	2600	0	0	0	4790
2019/05/01 14:14:00	BASE	9.47	107	11.94	104	-2.8	95	-3.4	35	0	973.9	NA	0.0000	-SN BR	3000	0	0	0	4720
2019/05/01 14:15:00	BASE	10.04	105	11.94	104	-2.8	95	-3.5	35	0	973.9	NA	0.0000	-SN BR	3200	0	0	0	4760
2019/05/01 14:16:00	BASE	10.10	107	11.94	104	-2.8	95	-3.5	35	0	973.9	NA	0.0000	-SN BR	3000	0	0	0	4720
2019/05/01 14:17:00	BASE	9.58	109	11.94	104	-2.8	95	-3.4	35	0	973.9	NA	0.0000	-SN BR	3300	0	0	0	4760
2019/05/01 14:18:00	BASE	9.75	108	11.94	104	-2.8	95	-3.4	35	0	973.9	NA	0.0000	-SN BR	4000	0	0	0	4860
2019/05/01 14:19:00	BASE	10.47	107	11.94	104	-2.8	95	-3.5	36	0	973.9	NA	0.0000	-SN BR	4200	0	0	0	4890
2019/05/01 14:20:00	BASE	10.52	108	11.94	104	-2.8	95	-3.4	36	0	973.9	NA	0.0000	-SN BR	4700	3970	0	0	0
2019/05/01 14:21:00	BASE	10.50	108	11.42	106	-2.8	95	-3.4	35	0	973.9	NA	0.0000	-SN BR	4000	3970	0	0	0
2019/05/01 14:22:00	BASE	10.67	107	11.42	106	-2.8	96	-3.4	35	0	973.9	NA	0.0000	-SN BR	2500	0	0	0	4690
2019/05/01 14:23:00	BASE	10.37	109	11.42	106	-2.8	96	-3.4	35	0	973.9	NA	0.0000	-SN BR	2200	0	0	0	4630
2019/05/01 14:24:00	BASE	10.07	111	11.42	106	-2.8	96	-3.3	35	0	973.9	NA	0.0000	-SN BR	3100	0	0	0	4590
2019/05/01 14:25:00	BASE	10.42	110	11.68	108	-2.7	96	-3.3	35	0	973.9	NA	0.0000	-SN BR	4300	0	0	0	4590
2019/05/01 14:26:00	BASE	10.90	108	12.09	107	-2.7	96	-3.3	35	0	973.9	NA	0.0000	-SN BR	3000	0	0	0	4530
2019/05/01 14:27:00	BASE	11.25	107	12.09	107	-2.7	96	-3.2	35	0	973.9	NA	0.0000	-SN BR	2200	0	0	0	4460
2019/05/01 14:28:00	BASE	11.17	107	12.09	107	-2.7	96	-3.2	36	0	973.9	NA	0.0000	-SN BR	2200	430	0	0	0
2019/05/01 14:29:00	BASE	11.09	107	12.09	107	-2.7	96	-3.2	36	0	973.9	NA	0.0000	-SN BR	1800	390	0	0	0
2019/05/01 14:30:00	BASE	11.13	107	12.09	105	-2.7	96	-3.3	37	0	973.9	NA	0.0000	-SN BR	1600	390	0	0	0
2019/05/01 14:31:00	BASE	11.52	107	12.55	109	-2.7	96	-3.3	37	0	973.9	NA	0.0000	-SN BR	1400	430	0	0	0
2019/05/01 14:32:00	BASE	11.53	107	12.55	109	-2.7	96	-3.3	38	0	973.9	NA	0.0000	-SN BR	1300	390	0	0	0
2019/05/01 14:33:00	BASE	10.90	108	12.55	109	-2.8	96	-3.3	39	0	973.8	NA	0.0000	-SN BR	1500	430	0	0	0
2019/05/01 14:34:00	BASE	10.37	109	12.55	109	-2.8	96	-3.3	39	0	973.8	NA	0.0000	-SN BR	1500	390	0	0	0
2019/05/01 14:35:00	BASE	10.67	109	12.55	109	-2.8	96	-3.3	40	0	973.9	NA	0.0000	-SN BR	1300	3710	0	0	0
2019/05/01 14:36:00	BASE	11.39	109	12.71	111	-2.8	96	-3.3	41	0	973.9	NA	0.0000	-SN BR	1300	790	3610	0	0
2019/05/01 14:37:00	BASE	12.07	108	13.38	103	-2.8	96	-3.3	41	0	973.9	NA	0.0000	-SN BR	1400	3540	0	0	0
2019/05/01 14:38:00	BASE	12.67	105	13.68	104	-2.7	96	-3.3	42	0	973.9	NA	0.0000	-SN BR	1400	3480	0	0	0
2019/05/01 14:39:00	BASE	12.70	105	13.68	104	-2.8	96	-3.3	42	0	973.8	NA	0.0000	-SN BR	1500	3380	0	0	0
2019/05/01 14:40:00	BASE	12.45	105	13.68	104	-2.8	96	-3.4	43	0	973.9	NA	0.0000	-SN BR	1700	3350	19460	0	0
2019/05/01 14:41:00	BASE	11.75	107	13.68	104	-2.8	96	-3.4	43	0	973.9	NA	0.0000	-SN BR	1700	330	3180	0	0
2019/05/01 14:42:00	BASE	11.40	107	13.68	104	-2.8	96	-3.4	43	0	973.9	NA	0.0000	-SN BR	1800	330	3220	0	0
2019/05/01 14:43:00	BASE	11.07	107	13.68	104	-2.8	96	-3.4	43	0	973.9	NA	0.0000	-SN BR	1700	360	3250	0	0
2019/05/01 14:44:00	BASE	10.61	107	13.68	104	-2.8	96	-3.4	43	0	973.9	NA	0.0000	-SN BR	1600	360	3180	0	0
2019/05/01 14:45:00	BASE	11.18	106	13.68	104	-2.8	96	-3.4	44	0	973.9	NA	0.0000	-SN BR	1700	360	3220	0	0
2019/05/01 14:46:00	BASE	11.38	108	13.68	104	-2.8	96	-3.3	44	0	973.9	NA	0.0000	-SN BR	1900	360	2990	0	0
2019/05/01 14:47:00	BASE	11.00	109	13.68	104	-2.8	96	-3.3	44	0	973.9	NA	0.0000	-SN BR	2100	330	3120	0	0
2019/05/01 14:48:00	BASE	11.05	107	13.38	105	-2.8	96	-3.3	44	0	973.8	NA	0.0000	-SN BR	2200	330	2820	0	0
2019/05/01 14:49:00	BASE	11.14	108	12.55	105	-2.7	96	-3.2	45	0	973.8	NA	0.0000	-SN BR	2300	330	2690	0	0
2019/05/01 14:50:00	BASE	11.02	108	12.45	109	-2.7	97	-3.2	45	0	973.9	NA	0.0000	-SN BR	2200	2590	0	0	0
2019/05/01 14:51:00	BASE	10.77	108	12.24	104	-2.7	97	-3.1	46	0	973.9	NA	0.0000	-SN BR	2100	360	2460	0	0
2019/05/01 14:52:00	BASE	10.62	107	12.24	104	-2.7	96	-3.2	46	0	973.9	NA	0.0000	-SN BR	2500	2330	0	0	0
2019/05/01 14:53:00	BASE	10.53	107	12.24	104	-2.6	96	-3.1	47	0	973.9	NA	0.0000	-SN BR	3600	2300	0	0	0
2019/05/01 14:54:00	BASE	10.18	106	12.24	104	-2.6	96	-3.1	48	0	973.9	NA	0.0000	-SN BR	4000	2300	0	0	0
2019/05/01 14:55:00	BASE	9.72	109	12.14	111	-2.5	96	-3.1	48	0	973.9	NA	0.0000	-SN BR	5000	2490	0	0	0
2019/05/01 14:56:00	BASE	9.42	109	12.14	111	-2.5	96	-3.1	49	0	973.9	NA	0.0000	-SN BR	6000	2590	0	0	0
2019/05/01 14:57:00	BASE	9.42	108	12.14	111	-2.5	96	-3.1	50	0	974.0	NA	0.0000	-SN BR	6000	2720	0	0	0
2019/05/01 14:58:00	BASE	9.89	109	12.14	111	-2.5	96	-3.1	50	0	973.9	NA	0.0000	-SN BR	9999	2760	0	0	0
2019/05/01 14:59:00	BASE	9.96	107	12.14	111	-2.5	96	-3.1	51	0	974.0	NA	0.0000	-SN BR	7000	2690	0	0	0
2019/05/01 15:00:00	BASE	9.49	108	11.37	109	-2.5	95	-3.1	52	0	974.0	NA	0.0000	-SN BR	7000	2660	0	0	0
2019/05/01 15:01:00	BASE	9.40	110	11.21	109	-2.5	95	-3.2	52	0	974.0	NA	0.0000	-SN BR	9999	2560	0	0	0
2019/05/01 15:02:00	BASE	9.81	106	11.06	108	-2.4	95	-3.2	53	0	974.0	NA	0.0000	-SN BR	9999	2560	0	0	0
2019/05/01 15:03:00	BASE	10.18	104	11.42	109	-2.4	94	-3.2	54	0	974.0	NA	0.0000	-SN BR	9999	2530	0	0	0
2019/05/01 15:04:00	BASE	9.98	106	11.42	109	-2.4	94	-3.2	54	0	974.0	NA	0.0000	-SN BR	9999	2430	0	0	0
2019/05/01 15:05:00	BASE	9.82	108	11.42	109	-2.4	94	-3.3	55	0	974.0	NA	0.0000	-SN BR	9999	2330	0	0	0
2019/05/01 15:06:00	BASE	10.02	108	11.42	109	-2.4	93	-3.3	55	0	974.0	NA	0.0000	-SN	9999	2230	0	0	0
2019/05/01 15:07:00	BASE	9.96	108	11.42	109	-2.4	93	-3.4	56	0	974.0	NA	0.0000	-SN	9999	2170	0	0	0
2019/05/01 15:08:00	BASE	9.98	107	11.42	109	-2.4	93	-3.4	56	0	974.0	NA	0.0000	-SN	9999	2000	2990	0	0
2019/05/01 15:09:00	BASE	10.07	107	11.42	109	-2.4	93	-3.4	56	0	974.0	NA	0.0000	-SN	9000	1900	2950	0	0
2019/05/01 15:10:00	BASE	9.87	108	11.42	109	-2.4	93	-3.4	56	0	974.0	NA	0.0000	-SN	9000	1770	2920	0	0
2019/05/01 15:11:00	BASE	9.25	109	11.42	109	-2.4	93	-3.4	57	0	974.0	NA	0.0000	-SN	9999	1740	2890	0	0
2019/05/01 15:12:00	BASE	8.59	106	11.42	109	-2.4	93	-3.4	57	0	974.0	NA	0.0000	-SN	9999	1800	2850	0	0
2019/05/01 15:13:00	BASE	8.07	105	10.80	104	-2.4	93	-3.4	57	0	974.0	NA	0.0000	-SN	9999	560	2820	0	0
2019/05/01 15:14:00	BASE	8.49	106	10.80	104	-2.4	93	-3.4	57	0	974.0	NA	0.0000	-SN	9999	620	2790	0	0
2019/05/01 15:15:00	BASE	8.94	104	10.70	101	-2.4	93	-3.4	58	0	974.0	NA	0.0000	-SN	9999	590	2760	0	0
2019/05/01 15:16:00	BASE	9.18	102	10.70	101	-2.4	93	-3.4	58	0	974.0	NA	0.0000	-SN	9999	2690	3180	0	0
2019/05/01 15:17:00	BASE	10.16	100	11.57	101	-2.4	93	-3.4	59	0	974.0	NA	0.0000	-SN	9999	3050	0	0	0
2019/05/01 15:18:00	BASE	10.37	100	11.57	101	-2.5	93	-3.4	60	0	974.0	NA	0.0000	-SN	9999	3050	0	0	0
2019/05/01 15:19:00	BASE	9.83	104	11.57	101	-2.5	94	-3.4	61	0	974.0	NA	0.0000	-SN	9999	3120	0	0	0
2019/05/01 15:20:00	BASE	9.62	104	11.57	101	-2.5	94	-3.4	61	0	974.0	NA	0.0000	-SN	9999	3050	4230	0	0
2019/05/01 15:21:00	BASE	9.88	104	11.57	101	-2.5	94	-3.3	61	0	974.0	NA	0.0000	-SN	9999	3050	4690	0	0
2019/05/01 15:22:00	BASE	9.91	103	11.68	96	-2.5	94	-3.3	61	0	974.0	NA	0.0000	-SN	9999	3220	3900	0	0
2019/05/01 15:23:00	BASE	10.35	98	11.94	91	-2.5	94	-3.3	60	0	974.0	NA	0.0000	-SN	9999	3280	5150	0	0
2019/05/01 15:24:00	BASE	10.64	97	11.94	91	-2.5	94	-3.3	59	0	974.0	NA	0.0000	-SN	9999	2790	0	0	0
2019/05/01 15:25:00	BASE	10.08	99	11.94	91	-2.5	95	-3.3	59	0	974.0	NA	0.0000	-SN	9999	2760	3810	0	0
2019/05/01 15:26:00	BASE	9.74	99	11.94	91	-2.5	95	-3.2	58	0	974.0	NA	0.0000	-SN	9999	2690	0	0	0
2019/05/01 15:27:00	BASE	9.59	100	11.94	91	-2.5	95	-3.2	58	0	974.0	NA	0.0000	-SN	9999	2330	0	0	0
2019/05/01 15:28:00	BASE	9.23	102	11.94	91	-2.5	95	-3.2	57	0	974.0	NA	0.0000		9999	2170	0	0	0
2019/05/01 15:29:00	BASE	8.89	103	11.94	91	-2.5	95	-3.2	57	0	974.0	NA	0.0000	-SN	9999	2170	0	0	0
2019/05/01 15:30:00	BASE	9.01	102	11.94	91	-2.5	95	-3.2	56	0	974.0	NA	0.0000	-SN	9999	2130	0	0	0
2019/05/01 15:31:00	BASE	8.65	101	11.94	91	-2.5	95	-3.2	56	0	974.0	NA	0.0000	-SN	9999	2100	0	0	0
2019/05/01 15:32:00	BASE	8.21	104	11.94	91	-2.4	95	-3.1	55	0	974.0	NA	0.0000	-SN	9999	2130	0	0	0
2019/05/01 15:33:00	BASE	8.59	104	11.11	102	-2.4	95	-3.1	55	0	974.0	NA	0.0000	-SN	9999	2070	0	0	0
2019/05/01 15:34:00	BASE	8.64	101	10.65	94	-2.4	95	-3.1	55	0	974.0	NA	0.0000		9999	2100	0	0	0
2019/05/01 15:35:00	BASE	8.40	99	10.29	98	-2.4	95	-3.0	55	0	974.0	NA	0.0000		9999	2330	0	0	0
2019/05/01 15:36:00	BASE	8.49	102	10.08	105	-2.4	96	-3.0	55	0	974.0	NA	0.0000		9999	2590	0	0	0
2019/05/01 15:37:00	BASE	8.41	104	9.98	99	-2.4	96	-3.0	55	0	974.0	NA	0.0000		9999	2660	0	0	0
2019/05/01 15:38:00	BASE	7.83	104	9.98	99	-2.4	96	-2.9	55	0	974.0	NA	0.0000		9999	2660	0	0	0
2019/05/01 15:39:00	BASE	7.52	103	9.62	103	-2.3	96	-2.9	55	0	974.0	NA	0.0000		9999	1670	0	0	0
2019/05/01 15:40:00	BASE	7.34	97	9.62	103	-2.3	96	-2.9	55	0	974.0	NA	0.0000		9999	2660	0	0	0
2019/05/01 15:41:00	BASE	6.90	96	9.62	103	-2.3	95	-3.0	55	0	974.0	NA	0.0000		9999	2720	0	0	0
2019/05/01 15:42:00	BASE	6.78	101	9.57	106	-2.3	95	-3.0	55	0	974.0	NA	0.0000		9999	2720	0	0	0
2019/05/01 15:43:00	BASE	7.40	101	9.21	99	-2.4	95	-3.0	55	0	974.0	NA	0.0000		9999	2720	0	0	0
2019/05/01 15:44:00	BASE	8.23	98	9.11	94	-2.4	95	-3.1	55	0	974.0	NA	0.0000		9999	1250	0	0	0
2019/05/01 15:45:00	BASE	7.41	92	9.11	94	-2.4	95	-3.1	55	0	974.0	NA	0.0000		9999	2790	3450	0	0
2019/05/01 15:46:00	BASE	6.47	86	9.11	94	-2.4	95	-3.1	55	0	974.0	NA	0.0000	-SN	9999	2790	3410	0	0
2019/05/01 15:47:00	BASE	6.57	87	9.11	94	-2.4	96	-3.0	55	0	974.0	NA	0.0000	-SN	9999	2760	3410	0	0
2019/05/01 15:48:00	BASE	6.37	88	9.11	94	-2.4	96	-2.9	55	0	974.0	NA	0.0000	-SN	9000	2820	3450	0	0
2019/05/01 15:49:00	BASE	6.12	88	9.11	94	-2.3	96	-2.9	55	0	974.0	NA	0.0000	-SN	9999	2820	3480	0	0
2019/05/01 15:50:00	BASE	6.29	89	9.11	94	-2.3	96	-2.9	55	0	974.1	NA	0.0000	-SN	9999	2820	3480	0	0
2019/05/01 15:51:00	BASE	6.53	90	9.11	94	-2.2	95	-2.9	54	0	974.1	NA	0.0000	-SN	5000	2820	3480	0	0
2019/05/01 15:52:00	BASE	6.46	88	9.11	94	-2.2	95	-2.9	54	0	974.1	NA	0.0000	-SN BR	3200	2850	3410	0	0
2019/05/01 15:53:00	BASE	5.55	89	9.11	94	-2.2	95	-2.9	54	0	974.1	NA	0.0000	-SN BR	3100	2850	3410	0	0
2019/05/01 15:54:00	BASE	4.54	90	8.49	102	-2.1	95	-2.8	53	0	974.1	NA	0.0000	-SN BR	3800	2890	3380	0	0
2019/05/01 15:55:00	BASE	4.64	87	8.49	102	-2.1	95	-2.8	53	0	974.1	NA	0.0000	-SN BR	6000	1380	3350	0	0
2019/05/01 15:56:00	BASE	4.65	92	8.49	102	-2.0	95	-2.7	53	0	974.1	NA	0.0000	-SN BR	8000	1250	0	0	0
2019/05/01 15:57:00	BASE	4.09	97	8.49	102	-2.0	96	-2.6	53	0	974.2	NA	0.0000	-SN BR	5000	1180	2820	0	0
2019/05/01 15:58:00	BASE	3.43	93	8.49	102	-2.0	96	-2.6	54	0	974.2	NA	0.0000	-SN BR	3700	2720	0	0	0
2019/05/01 15:59:00	BASE	2.79	87	8.49	102	-2.0	96	-2.5	54	0	974.1	NA	0.0000	-SN BR	4700	1440	3280	0	0
2019/05/01 16:00:00	BASE	2.42	85	8.49	102	-2.0	96	-2.5	55	0	974.2	NA	0.0000	-SN BR	5000	1310	0	0	0
2019/05/01 16:01:00	BASE	2.21	93	6.94	93	-2.0	97	-2.5	55	0	974.2	NA	0.0000	-SN BR	5000	1280	3120	0	0
2019/05/01 16:02:00	BASE	2.11	93	6.28	92	-2.0	97	-2.4	55	0	974.2	NA	0.0000	-SN BR	9999	2720	0	0	0
2019/05/01 16:03:00	BASE	2.52	89	5.61	90	-2.0	97	-2.4	55	0	974.2	NA	0.0000	-SN BR	9999	2620	0	0	0
2019/05/01 16:04:00	BASE	3.20	97	5.61	90	-2.0	98	-2.3	55	0	974.2	NA	0.0000	-SN BR	8000	2590	0	0	0
2019/05/01 16:05:00	BASE	3.02	100	4.94	94	-2.0	98	-2.3	54	0	974.2	NA	0.0000	-SN BR	7000	2530	3220	0	0
2019/05/01 16:06:00	BASE	2.83	97	4.73	91	-2.0	99	-2.2	54	0	974.2	NA	0.0000	-SN BR	9999	2590	0	0	0
2019/05/01 16:07:00	BASE	3.24	94	3.96	82	-2.0	99	-2.2	53	0	974.2	NA	0.0000	-SN BR	9999	2430	0	0	0
2019/05/01 16:08:00	BASE	3.20	93	3.96	82	-2.0	99	-2.1	52	0	974.2	NA	0.0000	-SN BR	6000	2200	0	0	0
2019/05/01 16:09:00	BASE	3.06	97	3.96	82	-2.0	99	-2.1	51	0	974.2	NA	0.0000	-SN BR	6000	2100	0	0	0
2019/05/01 16:10:00	BASE	3.19	96	3.96	82	-2.1	100	-2.1	51	0	974.2	NA	0.0000	-SN BR	9999	2000	0	0	0
2019/05/01 16:11:00	BASE	3.40	94	4.06	98	-2.1	100	-2.1	50	0	974.2	NA	0.0000	-SN BR	9999	1900	0	0	0
2019/05/01 16:12:00	BASE	3.57	95	4.06	98	-2.1	100	-2.1	49	0	974.2	NA	0.0000	-SN BR	9999	4200	0	0	0
2019/05/01 16:13:00	BASE	3.62	95	4.12	93	-2.2	100	-2.2	49	0	974.2	NA	0.0000	-SN BR	9999	1510	0	0	0
2019/05/01 16:14:00	BASE	4.01	92	5.25	91	-2.2	100	-2.2	48	0	974.2	NA	0.0000	-SN BR	9999	1380	0	0	0
2019/05/01 16:15:00	BASE	4.93	93	5.86	97	-2.2	100	-2.2	48	0	974.2	NA	0.0000	-SN	9999	1350	0	0	0
2019/05/01 16:16:00	BASE	5.42	96	5.86	97	-2.2	100	-2.2	48	0	974.2	NA	0.0000	-SN	9999	3310	0	0	0
2019/05/01 16:17:00	BASE	5.11	100	5.86	97	-2.2	100	-2.3	48	0	974.2	NA	0.0000	-SN	9999	3350	0	0	0
2019/05/01 16:18:00	BASE	4.61	104	5.86	97	-2.3	100	-2.3	48	0	974.2	NA	0.0000	-SN	9999	1640	0	0	0
2019/05/01 16:19:00	BASE	4.55	103	5.86	97	-2.3	100	-2.3	48	0	974.2	NA	0.0000	-SN	9999	1440	0	0	0
2019/05/01 16:20:00	BASE	4.47	104	5.86	97	-2.3	100	-2.3	49	0	974.2	NA	0.0000	-SN	9999	3220	0	0	0
2019/05/01 16:21:00	BASE	3.94	108	5.86	97	-2.3	100	-2.3	49	0	974.2	NA	0.0000	-SN	9000	3120	0	0	0
2019/05/01 16:22:00	BASE	3.76	106	5.86	97	-2.2	100	-2.2	50	0	974.2	NA	0.0000	-SN	5000	3120	0	0	0
2019/05/01 16:23:00	BASE	3.86	106	5.86	97	-2.2	100	-2.2	51	0	974.2	NA	0.0000	-SN BR	3800	3150	0	0	0
2019/05/01 16:24:00	BASE	4.03	105	5.86	97	-2.2	100	-2.2	51	0	974.2	NA	0.0000	-SN BR	4600	3150	0	0	0
2019/05/01 16:25:00	BASE	3.72	100	5.45	93	-2.2	100	-2.2	51	0	974.2	NA	0.0000	-SN BR	6000	3220	22840	0	0
2019/05/01 16:26:00	BASE	3.11	102	5.14	104	-2.2	100	-2.2	51	0	974.2	NA	0.0000	-SN BR	6000	2070	0	0	0
2019/05/01 16:27:00	BASE	2.72	107	5.14	104	-2.2	100	-2.2	51	0	974.3	NA	0.0000	-SN BR	5000	1940	0	0	0
2019/05/01 16:28:00	BASE	2.79	109	5.14	104	-2.2	100	-2.2	51	0	974.3	NA	0.0000	-SN BR	5000	390	0	0	0
2019/05/01 16:29:00	BASE	3.32	111	4.68	102	-2.3	100	-2.3	51	0	974.3	NA	0.0000	-SN BR	4500	1740	0	0	0
2019/05/01 16:30:00	BASE	3.52	113	4.32	103	-2.3	100	-2.3	52	0	974.3	NA	0.0000	-SN BR	4000	1610	0	0	0
2019/05/01 16:31:00	BASE	3.45	113	4.32	103	-2.3	100	-2.3	52	0	974.3	NA	0.0000	-SN BR	4500	1480	0	0	0
2019/05/01 16:32:00	BASE	3.32	115	4.32	103	-2.3	100	-2.3	52	0	974.3	NA	0.0000	-SN BR	5000	1440	0	0	0
2019/05/01 16:33:00	BASE	3.34	118	4.32	103	-2.3	100	-2.3	53	0	974.3	NA	0.0000	-SN BR	5000	1480	0	0	0
2019/05/01 16:34:00	BASE	3.55	120	4.06	119	-2.2	100	-2.2	53	0	974.3	NA	0.0000	-SN BR	5000	1350	0	0	0
2019/05/01 16:35:00	BASE	3.74	121	4.06	119	-2.2	100	-2.2	53	0	974.3	NA	0.0000	-SN BR	5000	1310	0	0	0
2019/05/01 16:36:00	BASE	3.73	124	4.06	119	-2.2	100	-2.2	52	0	974.3	NA	0.0000	-SN BR	5000	1080	0	0	0
2019/05/01 16:37:00	BASE	3.52	124	4.06	119	-2.2	100	-2.2	52	0	974.3	NA	0.0000	-SN BR	5000	890	0	0	0
2019/05/01 16:38:00	BASE	3.38	125	4.06	119	-2.2	100	-2.2	51	0	974.3	NA	0.0000	-SN BR	4900	720	0	0	0
2019/05/01 16:39:00	BASE	3.46	127	4.06	119	-2.2	100	-2.2	51	0	974.3	NA	0.0000	-SN BR	6000	590	3150	0	0
2019/05/01 16:40:00	BASE	3.48	131	4.06	119	-2.2	100	-2.2	51	0	974.2	NA	0.0000	-SN BR	9000	0	0	0	3480
2019/05/01 16:41:00	BASE	3.32	134	4.06	119	-2.2	100	-2.2	50	0	974.3	NA	0.0000	-SN BR	8000	0	0	0	3480
2019/05/01 16:42:00	BASE	3.31	135	4.06	119	-2.2	100	-2.2	50	0	974.3	NA	0.0000	-SN BR	6000	390	0	0	0
2019/05/01 16:43:00	BASE	3.35	134	4.06	119	-2.3	100	-2.3	50	0	974.3	NA	0.0000	-SN BR	3700	330	0	0	0
2019/05/01 16:44:00	BASE	3.40	137	4.01	122	-2.3	100	-2.3	50	0	974.3	NA	0.0000	-SN BR	2500	330	0	0	0
2019/05/01 16:45:00	BASE	3.45	140	3.96	128	-2.3	100	-2.3	50	0	974.3	NA	0.0000	-SN BR	2200	3050	0	0	0
2019/05/01 16:46:00	BASE	3.54	141	3.96	128	-2.3	100	-2.3	50	0	974.4	NA	0.0000	-SN BR	2200	3050	0	0	0
2019/05/01 16:47:00	BASE	3.62	144	4.01	144	-2.3	100	-2.3	51	0	974.4	NA	0.0000	-SN BR	2100	0	0	0	2100
2019/05/01 16:48:00	BASE	3.47	145	4.01	144	-2.3	100	-2.3	51	0	974.4	NA	0.0000	-SN BR	2200	3220	0	0	0
2019/05/01 16:49:00	BASE	3.69	147	4.68	148	-2.3	100	-2.3	51	0	974.5	NA	0.0000	-SN BR	2600	3180	0	0	0
2019/05/01 16:50:00	BASE	4.22	150	4.73	146	-2.3	100	-2.3	51	0	974.5	NA	0.0000	-SN BR	2500	3180	0	0	0
2019/05/01 16:51:00	BASE	4.42	152	4.78	151	-2.3	100	-2.3	51	0	974.5	NA	0.0000	-SN BR	2800	0	0	0	2330
2019/05/01 16:52:00	BASE	4.46	155	4.78	151	-2.3	100	-2.3	50	0	974.5	NA	0.0000	-SN BR	2300	3120	0	0	0
2019/05/01 16:53:00	BASE	4.35	155	4.78	151	-2.3	100	-2.3	50	0	974.5	NA	0.0000	-SN BR	1700	3050	0	0	0
2019/05/01 16:54:00	BASE	4.03	151	4.78	151	-2.3	100	-2.3	50	0	974.5	NA	0.0000	-SN BR	2300	1150	3120	0	0
2019/05/01 16:55:00	BASE	3.83	151	4.78	151	-2.3	100	-2.3	50	0	974.5	NA	0.0000	-SN BR	3300	1080	3080	0	0
2019/05/01 16:56:00	BASE	3.55	155	4.78	151	-2.3	100	-2.3	49	0	974.5	NA	0.0000	-SN BR	2600	890	3080	0	0
2019/05/01 16:57:00	BASE	3.02	158	4.78	151	-2.3	100	-2.3	49	0	974.3	NA	0.0000	-SN BR	2200	750	3050	0	0
2019/05/01 16:58:00	BASE	3.04	164	4.78	151	-2.3	100	-2.3	48	0	974.4	NA	0.0000	-SN BR	3300	660	3050	0	0
2019/05/01 16:59:00	BASE	3.34	169	4.78	151	-2.3	100	-2.3	48	0	974.5	NA	0.0000	-SN BR	3400	460	3080	0	0
2019/05/01 17:00:00	BASE	3.24	170	4.78	151	-2.2	100	-2.2	47	0	974.5	NA	0.0000	-SN BR	3000	430	3020	0	0
2019/05/01 17:01:00	BASE	3.28	170	4.68	155	-2.2	100	-2.2	47	0	974.5	NA	0.0000	-SN BR	3900	390	2950	0	0
2019/05/01 17:02:00	BASE	3.28	168	4.37	150	-2.2	100	-2.2	46	0	974.5	NA	0.0000	-SN BR	2800	360	2920	0	0
2019/05/01 17:03:00	BASE	3.08	163	4.17	152	-2.2	100	-2.2	46	0	974.6	NA	0.0000	-SN BR	2100	360	2950	0	0
2019/05/01 17:04:00	BASE	3.04	164	4.12	152	-2.2	100	-2.2	46	0	974.6	NA	0.0000	-SN BR	2100	2920	0	0	0
2019/05/01 17:05:00	BASE	2.71	164	3.76	173	-2.2	100	-2.2	45	0	974.6	NA	0.0000	-SN BR	2300	2890	0	0	0
2019/05/01 17:06:00	BASE	2.34	152	3.76	173	-2.2	100	-2.2	45	0	974.6	NA	0.0000	-SN BR	2500	2890	0	0	0
2019/05/01 17:07:00	BASE	2.46	149	3.76	173	-2.2	100	-2.2	46	0	974.6	NA	0.0000	-SN BR	2800	2820	0	0	0
2019/05/01 17:08:00	BASE	2.47	154	3.60	168	-2.2	100	-2.2	46	0	974.6	NA	0.0000	-SN BR	2500	2850	0	0	0
2019/05/01 17:09:00	BASE	2.37	156	3.60	168	-2.2	100	-2.2	46	0	974.6	NA	0.0000	-SN BR	1900	2920	0	0	0
2019/05/01 17:10:00	BASE	2.64	162	3.60	168	-2.2	100	-2.2	47	0	974.6	NA	0.0000	-SN BR	1600	2720	0	0	0
2019/05/01 17:11:00	BASE	2.64	169	3.45	172	-2.3	100	-2.3	47	0	974.6	NA	0.0000	-SN BR	2000	2530	0	0	0
2019/05/01 17:12:00	BASE	2.69	170	3.45	172	-2.3	100	-2.3	48	0	974.6	NA	0.0000	-SN BR	3100	2530	0	0	0
2019/05/01 17:13:00	BASE	3.00	172	3.45	172	-2.3	100	-2.3	49	0	974.6	NA	0.0000	-SN BR	3600	2590	0	0	0
2019/05/01 17:14:00	BASE	3.14	174	3.40	175	-2.3	100	-2.3	49	0	974.6	NA	0.0000	-SN BR	4700	2620	0	0	0
2019/05/01 17:15:00	BASE	3.15	174	3.40	175	-2.3	100	-2.3	49	0	974.6	NA	0.0000	-SN BR	8000	2760	0	0	0
2019/05/01 17:16:00	BASE	3.03	177	3.40	175	-2.3	100	-2.3	49	0	974.6	NA	0.0000	-SN BR	9999	2560	0	0	0
2019/05/01 17:17:00	BASE	2.97	181	3.40	175	-2.3	100	-2.3	49	0	974.6	NA	0.0000	-SN BR	9999	2720	0	0	0
2019/05/01 17:18:00	BASE	2.96	182	3.40	175	-2.3	100	-2.3	48	0	974.6	NA	0.0000	-SN BR	9999	2590	0	0	0
2019/05/01 17:19:00	BASE	2.78	183	3.40	175	-2.3	100	-2.3	48	0	974.6	NA	0.0000	-SN BR	9999	2620	0	0	0
2019/05/01 17:20:00	BASE	2.53	186	3.40	175	-2.3	100	-2.3	47	0	974.6	NA	0.0000	-SN BR	9999	2660	0	0	0
2019/05/01 17:21:00	BASE	2.48	189	3.40	175	-2.3	100	-2.3	47	0	974.7	NA	0.0000	-SN BR	9999	2760	0	0	0
2019/05/01 17:22:00	BASE	2.56	188	3.40	175	-2.4	100	-2.4	47	0	974.7	NA	0.0000	-SN BR	9999	2590	0	0	0
2019/05/01 17:23:00	BASE	2.42	186	3.29	175	-2.4	100	-2.4	47	0	974.7	NA	0.0000	-SN	9999	2690	0	0	0
2019/05/01 17:24:00	BASE	2.31	187	3.24	187	-2.4	100	-2.4	47	0	974.7	NA	0.0000	-SN	9999	2720	0	0	0
2019/05/01 17:25:00	BASE	2.53	188	3.24	187	-2.4	100	-2.4	47	0	974.6	NA	0.0000	-SN	9999	2720	0	0	0
2019/05/01 17:26:00	BASE	2.69	188	3.14	177	-2.4	100	-2.4	48	0	974.7	NA	0.0000	-SN	9999	2660	0	0	0
2019/05/01 17:27:00	BASE	2.62	189	3.14	177	-2.4	100	-2.4	48	0	974.7	NA	0.0000	-SN	9999	2720	0	0	0
2019/05/01 17:28:00	BASE	2.60	189	3.09	188	-2.4	100	-2.4	49	0	974.7	NA	0.0000	-SN	9999	2790	0	0	0
2019/05/01 17:29:00	BASE	2.93	190	3.45	195	-2.4	100	-2.4	50	0	974.7	NA	0.0000	-SN	9999	3020	0	0	0
2019/05/01 17:30:00	BASE	3.39	192	3.76	194	-2.4	100	-2.4	51	0	974.6	NA	0.0000	-SN	9999	2990	0	0	0
2019/05/01 17:31:00	BASE	3.65	193	3.91	193	-2.5	100	-2.5	52	0	974.7	NA	0.0000	-SN	9999	2760	0	0	0
2019/05/01 17:32:00	BASE	4.05	190	4.63	191	-2.5	100	-2.5	52	0	974.7	NA	0.0000	-SN	9999	3120	0	0	0
2019/05/01 17:33:00	BASE	4.40	188	4.63	191	-2.5	100	-2.5	53	0	974.7	NA	0.0000		9999	3080	0	0	0
2019/05/01 17:34:00	BASE	4.30	185	4.63	191	-2.5	100	-2.5	54	0	974.7	NA	0.0000		9999	2950	0	0	0
2019/05/01 17:35:00	BASE	4.19	182	4.63	191	-2.4	100	-2.4	55	0	974.7	NA	0.0000		9999	3020	0	0	0
2019/05/01 17:36:00	BASE	3.98	182	4.63	191	-2.4	100	-2.4	56	0	974.7	NA	0.0000		9999	2990	0	0	0
2019/05/01 17:37:00	BASE	4.32	183	5.61	179	-2.4	100	-2.4	57	0	974.7	NA	0.0000		9999	2690	0	0	0
2019/05/01 17:38:00	BASE	4.93	177	5.92	172	-2.4	100	-2.4	58	0	974.7	NA	0.0000		9999	2790	0	0	0
2019/05/01 17:39:00	BASE	5.36	170	6.07	168	-2.4	100	-2.4	59	0	974.7	NA	0.0000		9999	2620	0	0	0
2019/05/01 17:40:00	BASE	5.98	168	6.69	168	-2.4	100	-2.4	61	0	974.6	NA	0.0000		9999	2360	0	0	0
2019/05/01 17:41:00	BASE	6.26	167	6.74	166	-2.4	100	-2.4	63	0	974.6	NA	0.0000		9999	2620	0	0	0
2019/05/01 17:42:00	BASE	5.79	165	6.74	166	-2.5	100	-2.5	65	0	974.7	NA	0.0000		9999	2430	0	0	0
2019/05/01 17:43:00	BASE	5.28	160	6.74	166	-2.5	100	-2.5	66	0	974.7	NA	0.0000		9999	2330	0	0	0
2019/05/01 17:44:00	BASE	5.56	158	6.74	166	-2.5	100	-2.5	67	0	974.7	NA	0.0000		9999	2920	0	0	0
2019/05/01 17:45:00	BASE	5.84	157	6.74	166	-2.4	100	-2.4	68	0	974.7	NA	0.0000		9999	3250	0	0	0
2019/05/01 17:46:00	BASE	5.34	155	6.74	166	-2.4	100	-2.4	68	0	974.6	NA	0.0000		9999	3310	0	0	0
2019/05/01 17:47:00	BASE	5.30	156	6.74	166	-2.4	100	-2.4	68	0	974.5	NA	0.0000		9999	3380	0	0	0
2019/05/01 17:48:00	BASE	5.92	154	6.84	153	-2.4	100	-2.4	69	0	974.7	NA	0.0000		9999	3280	0	0	0
2019/05/01 17:49:00	BASE	6.49	153	7.51	146	-2.4	100	-2.4	69	0	974.7	NA	0.0000		9999	3350	0	0	0
2019/05/01 17:50:00	BASE	7.49	151	9.52	153	-2.4	100	-2.4	70	0	974.7	NA	0.0000		9999	3310	0	0	0
2019/05/01 17:51:00	BASE	8.53	153	9.67	154	-2.4	100	-2.4	71	0	974.7	NA	0.0000		9999	3250	0	0	0
2019/05/01 17:52:00	BASE	8.62	153	9.67	154	-2.4	100	-2.4	73	0	974.7	NA	0.0000		9999	3610	8240	0	0
2019/05/01 17:53:00	BASE	8.65	150	10.24	156	-2.4	100	-2.4	74	0	974.6	NA	0.0000		9999	3640	5150	0	0
2019/05/01 17:54:00	BASE	9.60	147	11.88	149	-2.4	100	-2.4	75	0	974.7	NA	0.0000		9999	3610	8240	0	0
2019/05/01 17:55:00	BASE	10.41	147	12.04	161	-2.5	100	-2.5	76	0	974.7	NA	0.0000		9999	3610	5410	8240	0
2019/05/01 17:56:00	BASE	10.88	150	12.45	150	-2.5	100	-2.5	77	0	974.7	NA	0.0000		9999	3610	8270	0	0
2019/05/01 17:57:00	BASE	10.53	149	12.45	150	-2.5	100	-2.5	77	0	974.7	NA	0.0000		9999	8300	0	0	0
2019/05/01 17:58:00	BASE	10.08	150	12.45	150	-2.6	100	-2.6	78	0	974.6	NA	0.0000		9999	5510	8240	0	0
2019/05/01 17:59:00	BASE	10.51	153	12.45	150	-2.6	100	-2.6	78	0	974.7	NA	0.0000		9999	8200	0	0	0
2019/05/01 18:00:00	BASE	11.19	154	13.53	149	-2.7	100	-2.7	78	0	974.7	NA	0.0000		9999	7970	0	0	0
2019/05/01 18:01:00	BASE	11.41	150	13.53	149	-2.7	100	-2.7	78	0	974.7	NA	0.0000		9999	7910	0	0	0
2019/05/01 18:02:00	BASE	10.92	147	13.53	149	-2.7	100	-2.7	77	0	974.7	NA	0.0000		9999	8040	0	0	0
2019/05/01 18:03:00	BASE	11.18	147	13.53	149	-2.7	100	-2.8	78	0	974.7	NA	0.0000		9999	8010	0	0	0
2019/05/01 18:04:00	BASE	12.04	146	14.04	146	-2.7	99	-2.8	78	0	974.7	NA	0.0000		9999	8010	0	0	0
2019/05/01 18:05:00	BASE	12.58	147	14.25	147	-2.7	99	-2.9	78	0	974.6	NA	0.0000		9999	8040	0	0	0
2019/05/01 18:06:00	BASE	11.73	147	14.25	147	-2.7	98	-2.9	78	0	974.7	NA	0.0000		9999	8010	0	0	0
2019/05/01 18:07:00	BASE	10.63	145	14.25	147	-2.7	98	-3.0	78	0	974.7	NA	0.0000		9999	8070	0	0	0
2019/05/01 18:08:00	BASE	11.37	145	14.25	147	-2.6	97	-3.0	77	0	974.7	NA	0.0000		9999	8010	0	0	0
2019/05/01 18:09:00	BASE	11.98	148	14.25	147	-2.6	97	-3.1	78	0	974.7	NA	0.0000		9999	7810	0	0	0
2019/05/01 18:10:00	BASE	11.27	149	14.25	147	-2.6	96	-3.1	78	0	974.7	NA	0.0000		9999	7910	0	0	0
2019/05/01 18:11:00	BASE	10.72	146	14.25	147	-2.6	96	-3.1	78	0	974.8	NA	0.0000		9999	8070	0	0	0
2019/05/01 18:12:00	BASE	11.20	147	14.25	147	-2.5	96	-3.1	76	0	974.7	NA	0.0000		9999	8100	0	0	0
2019/05/01 18:13:00	BASE	11.90	147	14.25	147	-2.5	96	-3.1	74	0	974.7	NA	0.0000		9999	8070	0	0	0
2019/05/01 18:14:00	BASE	12.22	146	14.61	153	-2.5	96	-3.1	72	0	974.8	NA	0.0000		9999	7970	0	0	0
2019/05/01 18:15:00	BASE	12.45	149	14.61	153	-2.5	95	-3.1	70	0	974.8	NA	0.0000		9999	7970	0	0	0
2019/05/01 18:16:00	BASE	11.76	146	14.61	153	-2.5	95	-3.1	69	0	974.8	NA	0.0000		9999	3540	7970	0	0
2019/05/01 18:17:00	BASE	11.72	143	14.61	153	-2.5	95	-3.2	68	0	974.8	NA	0.0000		9999	8070	0	0	0
2019/05/01 18:18:00	BASE	11.00	147	14.61	153	-2.5	95	-3.2	66	0	974.8	NA	0.0000		9999	3580	8300	0	0
2019/05/01 18:19:00	BASE	9.88	147	14.61	153	-2.5	95	-3.2	64	0	974.8	NA	0.0000		9999	3540	8070	0	0
2019/05/01 18:20:00	BASE	9.66	142	14.61	153	-2.5	95	-3.2	62	0	974.8	NA	0.0000		9999	5020	8040	0	0
2019/05/01 18:21:00	BASE	9.30	144	14.61	153	-2.5	95	-3.2	61	0	974.9	NA	0.0000		9999	5020	8100	0	0
2019/05/01 18:22:01	BASE	9.30	148	14.61	153	-2.5	95	-3.2	60	0	974.9	NA	0.0000		9999	8200	0	0	0
2019/05/01 18:23:00	BASE	9.93	145	14.61	153	-2.5	95	-3.2	59	0	974.8	NA	0.0000		9999	5090	8270	0	0
2019/05/01 18:24:00	BASE	10.91	145	14.04	149	-2.5	95	-3.2	59	0	974.9	NA	0.0000		9999	8270	0	0	0
2019/05/01 18:25:00	BASE	11.34	146	13.94	148	-2.4	95	-3.1	58	0	974.9	NA	0.0000		9999	8170	0	0	0
2019/05/01 18:26:00	BASE	10.90	145	13.94	148	-2.4	95	-3.1	57	0	974.9	NA	0.0000		9999	8100	0	0	0
2019/05/01 18:27:00	BASE	10.45	146	13.68	145	-2.4	95	-3.1	55	0	974.9	NA	0.0000		9999	8170	0	0	0
2019/05/01 18:28:00	BASE	11.15	147	13.68	145	-2.4	95	-3.1	53	0	974.9	NA	0.0000		9999	8140	0	0	0
2019/05/01 18:29:00	BASE	11.33	150	14.15	156	-2.4	94	-3.2	52	0	974.9	NA	0.0000		9999	8240	0	0	0
2019/05/01 18:30:00	BASE	10.97	148	14.15	156	-2.3	94	-3.2	50	0	975.0	NA	0.0000		9999	8460	0	0	0
2019/05/01 18:31:00	BASE	9.12	136	14.15	156	-2.3	93	-3.2	48	0	974.9	NA	0.0000		9999	8270	0	0	0
2019/05/01 18:32:00	BASE	6.30	121	14.15	156	-2.3	93	-3.2	47	0	975.1	NA	0.0000		9999	8300	0	0	0
2019/05/01 18:33:00	BASE	4.54	113	14.15	156	-2.3	93	-3.3	45	0	975.2	NA	0.0000		9999	8140	0	0	0
2019/05/01 18:34:00	BASE	5.23	128	14.15	156	-2.4	93	-3.3	42	0	975.2	NA	0.0000		9999	8170	0	0	0
2019/05/01 18:35:00	BASE	7.14	150	14.15	156	-2.4	93	-3.3	41	0	975.2	NA	0.0000		9999	8270	0	0	0
2019/05/01 18:36:00	BASE	5.92	131	14.15	156	-2.5	94	-3.3	39	0	975.2	NA	0.0000		9999	8270	0	0	0
2019/05/01 18:37:00	BASE	3.66	119	14.15	156	-2.5	94	-3.4	38	0	975.3	NA	0.0000		9999	8400	0	0	0
2019/05/01 18:38:00	BASE	4.85	146	14.15	156	-2.6	94	-3.4	36	0	975.3	NA	0.0000		9999	8300	0	0	0
2019/05/01 18:39:00	BASE	5.98	150	12.71	145	-2.6	95	-3.3	36	0	975.0	NA	0.0000		9999	8070	0	0	0
2019/05/01 18:40:00	BASE	5.61	142	9.47	154	-2.6	95	-3.3	35	0	975.2	NA	0.0000		9999	8070	0	0	0
2019/05/01 18:41:00	BASE	8.05	142	12.24	150	-2.7	95	-3.3	35	0	975.2	NA	0.0000		9999	8200	0	0	0
2019/05/01 18:42:00	BASE	10.05	144	12.24	150	-2.7	95	-3.3	34	0	975.2	NA	0.0000		9999	8330	0	0	0
2019/05/01 18:43:00	BASE	9.45	147	12.24	150	-2.7	95	-3.4	34	0	975.3	NA	0.0000		9999	8140	0	0	0
2019/05/01 18:44:00	BASE	9.39	151	12.24	150	-2.7	95	-3.4	34	0	975.3	NA	0.0000		9999	8240	0	0	0
2019/05/01 18:45:00	BASE	9.78	156	12.24	150	-2.7	94	-3.5	33	0	975.3	NA	0.0000		9999	8200	0	0	0
2019/05/01 18:46:00	BASE	9.75	153	12.24	150	-2.7	94	-3.6	33	0	975.3	NA	0.0000		9999	8140	0	0	0
2019/05/01 18:47:00	BASE	10.25	149	12.71	149	-2.7	94	-3.6	33	0	975.2	NA	0.0000		9999	8170	0	0	0
2019/05/01 18:48:00	BASE	10.99	151	12.71	149	-2.7	93	-3.7	33	0	975.2	NA	0.0000		9999	7970	0	0	0
2019/05/01 18:49:00	BASE	10.93	152	12.71	149	-2.7	93	-3.7	33	0	975.2	NA	0.0000		9999	7910	10430	0	0
2019/05/01 18:50:00	BASE	10.60	152	12.71	149	-2.7	92	-3.8	32	0	975.2	NA	0.0000		9999	7910	0	0	0
2019/05/01 18:51:00	BASE	10.49	154	12.71	149	-2.8	92	-3.8	31	0	975.3	NA	0.0000		9999	8170	0	0	0
2019/05/01 18:52:00	BASE	10.02	154	12.71	149	-2.8	92	-3.9	30	0	975.3	NA	0.0000		9999	8140	0	0	0
2019/05/01 18:53:00	BASE	9.58	151	12.71	149	-2.8	92	-3.9	29	0	975.3	NA	0.0000		9999	8270	0	0	0
2019/05/01 18:54:00	BASE	9.76	151	12.71	149	-2.7	92	-3.9	28	0	975.3	NA	0.0000		9999	8070	0	0	0
2019/05/01 18:55:00	BASE	9.49	148	12.71	149	-2.7	91	-3.9	28	0	975.3	NA	0.0000		9999	8140	0	0	0
2019/05/01 18:56:00	BASE	8.39	149	12.71	149	-2.7	91	-3.9	27	0	975.3	NA	0.0000		9999	8240	0	0	0
2019/05/01 18:57:00	BASE	7.33	156	12.60	158	-2.6	91	-3.9	26	0	975.3	NA	0.0000		9999	8200	0	0	0
2019/05/01 18:58:00	BASE	7.33	157	12.60	158	-2.6	91	-3.9	26	0	975.3	NA	0.0000		9999	8300	9420	0	0
2019/05/01 18:59:00	BASE	8.11	153	11.47	155	-2.6	91	-3.8	25	0	975.3	NA	0.0000		9999	8330	9320	0	0
2019/05/01 19:00:00	BASE	9.11	153	11.47	155	-2.6	92	-3.7	25	0	975.3	NA	0.0000		9999	8330	9220	0	0
2019/05/01 19:01:00	BASE	9.47	154	11.47	155	-2.6	92	-3.7	24	0	975.3	NA	0.0000		9999	8400	0	0	0
2019/05/01 19:02:00	BASE	9.38	154	11.47	155	-2.5	93	-3.6	24	0	975.3	NA	0.0000		9999	8500	0	0	0
2019/05/01 19:03:00	BASE	9.98	154	13.48	157	-2.5	93	-3.5	24	0	975.3	NA	0.0000		9999	8730	0	0	0
2019/05/01 19:04:00	BASE	10.41	158	13.48	157	-2.5	93	-3.5	23	0	975.3	NA	0.0000		9999	8630	0	0	0
2019/05/01 19:05:00	BASE	10.82	160	13.48	157	-2.5	93	-3.5	23	0	975.2	NA	0.0000		9999	8660	0	0	0
2019/05/01 19:06:00	BASE	11.08	158	13.48	157	-2.5	93	-3.5	22	0	975.3	NA	0.0000		9999	8760	0	0	0
2019/05/01 19:07:00	BASE	11.60	160	13.74	164	-2.5	93	-3.5	21	0	975.2	NA	0.0000		9999	8630	0	0	0
2019/05/01 19:08:00	BASE	11.99	163	13.74	164	-2.5	92	-3.6	21	0	975.2	NA	0.0000		9999	8530	0	0	0
2019/05/01 19:09:00	BASE	11.21	161	13.74	164	-2.5	92	-3.6	20	0	975.2	NA	0.0000		9999	8760	0	0	0
2019/05/01 19:10:00	BASE	11.10	162	13.84	162	-2.5	92	-3.6	19	0	975.2	NA	0.0000		9999	8600	0	0	0
2019/05/01 19:11:00	BASE	11.49	163	13.84	162	-2.5	92	-3.5	18	0	975.2	NA	0.0000		9999	8600	0	0	0
2019/05/01 19:12:00	BASE	11.85	164	13.84	162	-2.5	93	-3.5	18	0	975.2	NA	0.0000		9999	8600	0	0	0
2019/05/01 19:13:00	BASE	12.32	165	13.84	162	-2.5	93	-3.5	17	0	975.2	NA	0.0000		9999	5410	8600	0	0
2019/05/01 19:14:00	BASE	11.79	165	13.84	162	-2.5	93	-3.5	16	0	975.2	NA	0.0000		9999	5410	8660	0	0
2019/05/01 19:15:00	BASE	11.33	169	13.84	162	-2.5	93	-3.5	16	0	975.2	NA	0.0000		9999	5380	8660	0	0
2019/05/01 19:16:00	BASE	11.76	171	13.84	162	-2.5	93	-3.5	15	0	975.2	NA	0.0000		9999	5410	8630	0	0
2019/05/01 19:17:00	BASE	10.75	170	13.84	162	-2.5	93	-3.5	14	0	975.3	NA	0.0000		9999	5380	8500	0	0
2019/05/01 19:18:00	BASE	9.35	171	13.84	162	-2.5	93	-3.4	14	0	975.3	NA	0.0000		9999	5350	8460	0	0
2019/05/01 19:19:00	BASE	9.18	167	13.84	162	-2.4	93	-3.4	14	0	975.3	NA	0.0000		9999	5380	8630	0	0
2019/05/01 19:20:00	BASE	8.50	158	13.38	160	-2.4	94	-3.3	13	0	975.4	NA	0.0000		9999	5380	8560	0	0
2019/05/01 19:21:00	BASE	7.32	155	13.38	160	-2.3	94	-3.2	13	0	975.4	NA	0.0000		9999	5380	8630	0	0
2019/05/01 19:22:00	BASE	8.46	161	13.38	160	-2.3	94	-3.1	12	0	975.4	NA	0.0000		9999	5380	8660	0	0
2019/05/01 19:23:00	BASE	9.67	166	13.07	172	-2.3	95	-3.0	12	0	975.4	NA	0.0000		9999	5380	8790	0	0
2019/05/01 19:24:00	BASE	9.48	168	13.07	172	-2.3	95	-3.0	12	0	975.4	NA	0.0000		9999	5410	5970	8660	0
2019/05/01 19:25:00	BASE	10.12	168	13.07	172	-2.3	95	-3.0	11	0	975.3	NA	0.0000		9999	5450	0	0	0
2019/05/01 19:26:00	BASE	9.87	169	11.94	156	-2.3	95	-3.0	11	0	975.4	NA	0.0000		9999	5410	8660	0	0
2019/05/01 19:27:00	BASE	9.26	166	11.94	156	-2.4	95	-3.0	10	0	975.4	NA	0.0000		9999	5380	8500	0	0
2019/05/01 19:28:00	BASE	8.60	156	11.94	156	-2.3	95	-3.0	10	0	975.4	NA	0.0000		9999	5380	8530	0	0
2019/05/01 19:29:00	BASE	8.24	153	11.94	156	-2.3	96	-2.9	10	0	975.4	NA	0.0000		9999	5350	0	0	0
2019/05/01 19:30:00	BASE	8.56	155	11.94	156	-2.3	96	-2.9	10	0	975.4	NA	0.0000		9999	5350	0	0	0
2019/05/01 19:31:00	BASE	9.27	154	11.94	156	-2.3	96	-2.8	9	0	975.4	NA	0.0000		9999	5320	8460	0	0
2019/05/01 19:32:00	BASE	9.87	152	11.94	156	-2.2	96	-2.8	9	0	975.4	NA	0.0000		9999	5380	8430	0	0
2019/05/01 19:33:00	BASE	10.21	150	11.99	149	-2.3	95	-2.9	9	0	975.4	NA	0.0000		9999	5380	8600	0	0
2019/05/01 19:34:00	BASE	11.54	151	14.35	147	-2.3	95	-3.0	9	0	975.4	NA	0.0000		9999	5410	8660	0	0
2019/05/01 19:35:00	BASE	11.88	155	14.35	147	-2.3	94	-3.1	8	0	975.4	NA	0.0000		9999	5410	0	0	0
2019/05/01 19:36:00	BASE	10.11	151	14.35	147	-2.3	94	-3.1	8	0	975.5	NA	0.0000		9999	5350	8500	0	0
2019/05/01 19:37:00	BASE	8.80	148	14.35	147	-2.3	94	-3.1	8	0	975.5	NA	0.0000		9999	5250	5640	8530	0
2019/05/01 19:38:00	BASE	7.88	142	14.35	147	-2.3	94	-3.1	8	0	975.6	NA	0.0000		9999	5320	8530	0	0
2019/05/01 19:39:00	BASE	6.18	118	14.35	147	-2.3	94	-3.2	7	0	975.6	NA	0.0000		9999	5320	8530	0	0
2019/05/01 19:40:00	BASE	5.55	97	14.35	147	-2.4	94	-3.2	7	0	975.7	NA	0.0000		9999	5280	8500	0	0
2019/05/01 19:41:00	BASE	5.66	100	14.35	147	-2.5	94	-3.3	7	0	975.8	NA	0.0000		9999	5510	8430	0	0
2019/05/01 19:42:00	BASE	6.07	106	14.35	147	-2.6	94	-3.4	7	0	975.8	NA	0.0000		9999	5510	8530	0	0
2019/05/01 19:43:00	BASE	6.92	109	14.35	147	-2.7	94	-3.5	7	0	975.8	NA	0.0000		9999	5540	0	0	0
2019/05/01 19:44:00	BASE	7.59	121	12.40	158	-2.8	94	-3.6	6	0	975.8	NA	0.0000		9999	5610	8630	0	0
2019/05/01 19:45:00	BASE	8.69	133	11.21	137	-2.7	94	-3.6	6	0	975.8	NA	0.0000		9999	5540	8500	0	0
2019/05/01 19:46:00	BASE	10.19	140	11.63	147	-2.7	94	-3.5	6	0	975.8	NA	0.0000		9999	8500	9350	0	0
2019/05/01 19:47:00	BASE	10.23	143	11.88	140	-2.7	94	-3.5	6	0	975.8	NA	0.0000		9999	8430	9060	0	0
2019/05/01 19:48:00	BASE	9.80	141	11.88	140	-2.6	94	-3.4	5	0	975.8	NA	0.0000		9999	8330	0	0	0
2019/05/01 19:49:00	BASE	9.87	141	11.88	140	-2.6	94	-3.4	5	0	975.9	NA	0.0000		9999	8400	0	0	0
2019/05/01 19:50:00	BASE	9.84	143	11.88	140	-2.6	94	-3.4	5	0	975.9	NA	0.0000		9999	8500	0	0	0
2019/05/01 19:51:00	BASE	9.96	142	11.88	140	-2.6	94	-3.5	5	0	975.9	NA	0.0000		9999	8370	0	0	0
2019/05/01 19:52:00	BASE	9.91	141	11.88	140	-2.6	94	-3.5	5	0	975.9	NA	0.0000		9999	8630	0	0	0
2019/05/01 19:53:00	BASE	9.22	142	11.88	140	-2.6	93	-3.5	4	0	975.9	NA	0.0000		9999	8300	0	0	0
2019/05/01 19:54:00	BASE	8.77	138	11.88	140	-2.6	93	-3.5	4	0	975.9	NA	0.0000		9999	8300	0	0	0
2019/05/01 19:55:00	BASE	9.41	138	11.88	140	-2.6	93	-3.6	4	0	975.9	NA	0.0000		9999	8240	0	0	0
2019/05/01 19:56:00	BASE	9.15	140	11.88	140	-2.6	93	-3.6	4	0	975.9	NA	0.0000		9999	8270	0	0	0
2019/05/01 19:57:00	BASE	8.53	144	11.78	145	-2.6	93	-3.6	4	0	975.9	NA	0.0000		9999	8530	0	0	0
2019/05/01 19:58:00	BASE	8.63	149	11.78	145	-2.6	93	-3.6	4	0	976.0	NA	0.0000		9999	8370	0	0	0
2019/05/01 19:59:00	BASE	8.24	151	11.78	145	-2.6	92	-3.6	3	0	976.0	NA	0.0000		9999	8300	0	0	0
2019/05/01 20:00:00	BASE	7.19	157	11.78	145	-2.6	92	-3.6	3	0	976.0	NA	0.0000		9999	8270	0	0	0
2019/05/01 20:01:00	BASE	6.96	159	11.78	145	-2.5	92	-3.7	3	0	976.0	NA	0.0000		9999	8300	0	0	0
2019/05/01 20:02:00	BASE	7.97	161	11.78	145	-2.5	92	-3.6	3	0	976.0	NA	0.0000		9999	8200	0	0	0
2019/05/01 20:03:00	BASE	9.13	168	11.78	145	-2.5	92	-3.6	3	0	976.0	NA	0.0000		9999	8170	0	0	0
2019/05/01 20:04:00	BASE	10.26	172	12.14	176	-2.5	93	-3.6	3	0	976.0	NA	0.0000		9999	8460	9450	0	0
2019/05/01 20:05:00	BASE	10.60	169	12.14	176	-2.5	93	-3.5	3	0	976.0	NA	0.0000		9999	4760	9350	0	0
2019/05/01 20:06:00	BASE	10.84	168	12.24	170	-2.5	93	-3.5	3	0	976.0	NA	0.0000		9999	4760	8560	0	0
2019/05/01 20:07:00	BASE	10.23	173	12.24	170	-2.5	93	-3.5	2	0	976.1	NA	0.0000		9999	8560	0	0	0
2019/05/01 20:08:00	BASE	9.38	175	12.24	170	-2.5	93	-3.5	2	0	976.1	NA	0.0000		9999	8560	0	0	0
2019/05/01 20:09:00	BASE	8.78	174	12.24	170	-2.5	93	-3.5	2	0	976.2	NA	0.0000		9999	4950	5640	8560	0
2019/05/01 20:10:00	BASE	8.22	172	12.24	170	-2.5	93	-3.5	2	0	976.2	NA	0.0000		9999	8790	0	0	0
2019/05/01 20:11:00	BASE	8.69	171	12.24	170	-2.5	93	-3.5	2	0	976.2	NA	0.0000		9999	8630	0	0	0
2019/05/01 20:12:00	BASE	8.83	172	12.24	170	-2.5	93	-3.4	2	0	976.2	NA	0.0000		9999	8790	0	0	0
2019/05/01 20:13:00	BASE	9.16	169	12.24	170	-2.5	94	-3.4	2	0	976.2	NA	0.0000		9999	8790	0	0	0
2019/05/01 20:14:00	BASE	9.89	168	12.24	170	-2.5	94	-3.3	2	0	976.2	NA	0.0000		9999	8890	0	0	0
2019/05/01 20:15:00	BASE	9.80	169	12.24	170	-2.5	94	-3.3	2	0	976.2	NA	0.0000		9999	8830	0	0	0
2019/05/01 20:16:00	BASE	10.57	169	13.94	171	-2.5	95	-3.2	2	0	976.2	NA	0.0000		9999	8460	0	0	0
2019/05/01 20:17:00	BASE	11.05	168	13.94	171	-2.4	95	-3.2	2	0	976.2	NA	0.0000		9999	5090	8790	0	0
2019/05/01 20:18:00	BASE	10.79	167	13.94	171	-2.4	95	-3.1	2	0	976.2	NA	0.0000		9999	5090	8830	0	0
2019/05/01 20:19:00	BASE	10.85	167	13.94	171	-2.4	95	-3.1	1	0	976.2	NA	0.0000		9999	5120	8860	0	0
2019/05/01 20:20:00	BASE	10.39	169	13.94	171	-2.4	95	-3.1	1	0	976.3	NA	0.0000		9999	5150	8990	0	0
2019/05/01 20:21:00	BASE	10.08	171	13.94	171	-2.4	95	-3.2	1	0	976.3	NA	0.0000		9999	5280	8920	0	0
2019/05/01 20:22:00	BASE	10.24	170	13.94	171	-2.5	95	-3.2	1	0	976.3	NA	0.0000		9999	5280	8920	0	0
2019/05/01 20:23:00	BASE	9.80	168	13.94	171	-2.5	94	-3.2	1	0	976.3	NA	0.0000		9999	9190	0	0	0
2019/05/01 20:24:00	BASE	9.84	164	13.94	171	-2.5	94	-3.3	1	0	976.4	NA	0.0000		9999	8990	0	0	0
2019/05/01 20:25:00	BASE	11.19	164	13.94	171	-2.5	94	-3.3	1	0	976.4	NA	0.0000		9999	5410	9060	0	0
2019/05/01 20:26:00	BASE	11.27	166	12.81	163	-2.5	94	-3.3	1	0	976.4	NA	0.0000		9999	5380	9220	0	0
2019/05/01 20:27:00	BASE	10.84	166	12.81	163	-2.4	94	-3.3	1	0	976.4	NA	0.0000		9999	5280	8990	0	0
2019/05/01 20:28:00	BASE	11.20	165	12.81	163	-2.4	94	-3.2	1	0	976.4	NA	0.0000		9999	9350	0	0	0
2019/05/01 20:29:00	BASE	11.81	169	12.81	173	-2.4	94	-3.2	1	0	976.4	NA	0.0000		9999	8760	0	0	0
2019/05/01 20:30:00	BASE	11.48	170	12.96	157	-2.4	94	-3.3	1	0	976.4	NA	0.0000		9999	8730	0	0	0
2019/05/01 20:31:00	BASE	11.27	167	13.12	169	-2.4	94	-3.3	1	0	976.4	NA	0.0000		9999	8660	0	0	0
2019/05/01 20:32:00	BASE	11.41	167	13.12	169	-2.5	94	-3.3	1	0	976.4	NA	0.0000		9999	8600	0	0	0
2019/05/01 20:33:00	BASE	11.79	169	13.53	171	-2.5	94	-3.3	1	0	976.4	NA	0.0000		9999	8630	0	0	0
2019/05/01 20:34:00	BASE	11.95	170	13.53	171	-2.5	94	-3.3	1	0	976.4	NA	0.0000		9999	8530	0	0	0
2019/05/01 20:35:00	BASE	11.95	170	13.63	171	-2.6	94	-3.3	0	0	976.4	NA	0.0000		9999	8460	0	0	0
2019/05/01 20:36:00	BASE	12.16	171	13.63	171	-2.6	95	-3.4	0	0	976.5	NA	0.0000		9999	9840	0	0	0
2019/05/01 20:37:01	BASE	10.94	173	13.63	171	-2.6	95	-3.4	0	0	976.5	NA	0.0000		9999	9060	9610	0	0
2019/05/01 20:38:00	BASE	9.92	171	13.63	171	-2.7	95	-3.3	0	0	976.6	NA	0.0000		9999	5710	9150	0	0
2019/05/01 20:39:00	BASE	9.41	170	13.63	171	-2.7	95	-3.4	0	0	976.6	NA	0.0000		9999	5740	8990	0	0
2019/05/01 20:40:00	BASE	9.05	173	13.63	171	-2.7	95	-3.4	0	0	976.6	NA	0.0000		9999	9150	0	0	0
2019/05/01 20:41:00	BASE	9.41	173	13.63	171	-2.7	95	-3.3	0	0	976.6	NA	0.0000		9999	9420	0	0	0
2019/05/01 20:42:00	BASE	10.36	174	13.63	171	-2.7	96	-3.3	0	0	976.6	NA	0.0000		9999	9380	0	0	0
2019/05/01 20:43:00	BASE	10.49	174	13.63	171	-2.7	96	-3.3	0	0	976.6	NA	0.0000		9999	9090	0	0	0
2019/05/01 20:44:00	BASE	10.34	173	13.63	171	-2.7	96	-3.2	0	0	976.6	NA	0.0000		9999	9450	0	0	0
2019/05/01 20:45:00	BASE	9.95	174	12.86	164	-2.7	96	-3.2	0	0	976.6	NA	0.0000		9999	9380	0	0	0
2019/05/01 20:46:00	BASE	10.29	174	13.27	173	-2.7	96	-3.2	0	0	976.6	NA	0.0000		9999	9380	0	0	0
2019/05/01 20:47:00	BASE	11.49	173	13.27	173	-2.7	97	-3.2	0	0	976.6	NA	0.0000		9999	9320	0	0	0
2019/05/01 20:48:00	BASE	11.05	177	13.27	173	-2.7	97	-3.2	0	0	976.7	NA	0.0000		9999	9250	0	0	0
2019/05/01 20:49:00	BASE	10.15	178	13.27	173	-2.8	97	-3.2	0	0	976.7	NA	0.0000		9999	9250	0	0	0
2019/05/01 20:50:00	BASE	10.85	174	13.27	173	-2.8	97	-3.2	0	0	976.6	NA	0.0000		9999	5970	9450	0	0
2019/05/01 20:51:00	BASE	11.45	176	13.27	173	-2.8	97	-3.2	0	0	976.7	NA	0.0000		9999	6040	9380	0	0
2019/05/01 20:52:00	BASE	11.24	180	13.27	173	-2.8	97	-3.2	0	0	976.7	NA	0.0000		9999	6070	9320	0	0
2019/05/01 20:53:00	BASE	11.36	178	13.27	173	-2.8	97	-3.2	0	0	976.7	NA	0.0000		9999	6040	9650	0	0
2019/05/01 20:54:00	BASE	11.23	176	13.27	173	-2.8	97	-3.1	0	0	976.7	NA	0.0000		9999	6000	9480	0	0
2019/05/01 20:55:00	BASE	11.70	173	13.74	171	-2.8	98	-3.1	0	0	976.7	NA	0.0000		9999	6040	9740	0	0
2019/05/01 20:56:00	BASE	12.28	172	13.74	171	-2.8	98	-3.1	0	0	976.7	NA	0.0000		9999	5940	9780	0	0
2019/05/01 20:57:00	BASE	12.00	175	13.74	171	-2.8	98	-3.1	0	0	976.7	NA	0.0000		9999	5940	0	0	0
2019/05/01 20:58:00	BASE	11.27	172	13.74	171	-2.8	98	-3.1	0	0	976.7	NA	0.0000		9999	5870	0	0	0
2019/05/01 20:59:00	BASE	9.85	171	13.74	171	-2.8	98	-3.1	0	0	976.8	NA	0.0000		9999	5580	9650	0	0
2019/05/01 21:00:00	BASE	9.38	168	13.74	171	-2.8	98	-3.1	0	0	976.8	NA	0.0000		9999	5480	0	0	0
2019/05/01 21:01:00	BASE	10.15	167	13.74	171	-2.8	98	-3.1	0	0	976.8	NA	0.0000		9999	5150	0	0	0
2019/05/01 21:02:00	BASE	9.83	170	13.74	171	-2.8	98	-3.1	0	0	976.9	NA	0.0000		9999	5090	0	0	0
2019/05/01 21:03:00	BASE	9.21	170	13.74	171	-2.9	98	-3.1	0	0	976.9	NA	0.0000		9999	5050	0	0	0
2019/05/01 21:04:00	BASE	9.60	172	13.74	171	-2.9	98	-3.2	0	0	976.9	NA	0.0000		9999	5020	0	0	0
2019/05/01 21:05:00	BASE	9.86	173	13.27	175	-2.9	98	-3.2	0	0	977.0	NA	0.0000		9999	5020	0	0	0
2019/05/01 21:06:00	BASE	9.60	172	13.17	171	-2.9	98	-3.2	0	0	977.0	NA	0.0000		9999	4990	0	0	0
2019/05/01 21:07:00	BASE	9.21	168	11.99	176	-2.9	98	-3.2	0	0	977.0	NA	0.0000		9999	5050	6140	9320	0
2019/05/01 21:08:00	BASE	9.23	165	11.57	171	-2.9	98	-3.2	0	0	977.0	NA	0.0000		9999	5090	0	0	0
2019/05/01 21:09:00	BASE	9.69	168	11.57	171	-2.9	98	-3.2	0	0	977.1	NA	0.0000		9999	5090	6040	0	0
2019/05/01 21:10:00	BASE	9.18	173	11.57	171	-2.9	98	-3.2	0	0	977.1	NA	0.0000		9999	5050	5970	0	0
2019/05/01 21:11:00	BASE	8.88	176	11.42	173	-2.9	98	-3.2	0	0	977.2	NA	0.0000		9999	4990	5940	0	0
2019/05/01 21:12:00	BASE	9.64	176	11.78	172	-2.9	98	-3.2	0	0	977.1	NA	0.0000		9999	5020	5970	0	0
2019/05/01 21:13:00	BASE	11.11	175	12.76	177	-3.0	98	-3.2	0	0	977.1	NA	0.0000		9999	5150	0	0	0
2019/05/01 21:14:00	BASE	11.20	174	12.76	177	-3.0	98	-3.2	0	0	977.2	NA	0.0000		9999	5250	6070	0	0
2019/05/01 21:15:00	BASE	10.46	172	12.76	177	-3.0	98	-3.2	0	0	977.2	NA	0.0000		9999	5250	9970	0	0
2019/05/01 21:16:00	BASE	10.61	171	12.76	177	-2.9	98	-3.2	0	0	977.2	NA	0.0000		9999	5180	6140	10200	0
2019/05/01 21:17:00	BASE	10.45	171	12.76	177	-2.9	98	-3.2	0	0	977.2	NA	0.0000		9999	5220	5970	10140	0
2019/05/01 21:18:00	BASE	10.73	175	12.76	177	-2.9	98	-3.2	0	0	977.2	NA	0.0000		9999	5220	6230	10110	0
2019/05/01 21:19:00	BASE	10.39	176	12.76	177	-2.9	98	-3.2	0	0	977.3	NA	0.0000		9999	5320	0	0	0
2019/05/01 21:20:00	BASE	9.94	172	12.76	177	-2.9	98	-3.2	0	0	977.3	NA	0.0000		9999	5410	6370	0	0
2019/05/01 21:21:00	BASE	9.80	166	12.76	177	-2.9	98	-3.2	0	0	977.3	NA	0.0000		9999	5410	0	0	0
2019/05/01 21:22:01	BASE	9.33	162	12.76	177	-2.9	98	-3.2	0	0	977.3	NA	0.0000		9999	5350	0	0	0
2019/05/01 21:23:00	BASE	9.25	164	12.24	187	-2.9	98	-3.2	0	0	977.3	NA	0.0000		9999	5280	0	0	0
2019/05/01 21:24:00	BASE	9.82	166	12.24	187	-2.9	98	-3.2	0	0	977.3	NA	0.0000		9999	5220	0	0	0
2019/05/01 21:25:00	BASE	9.43	165	12.24	187	-2.9	98	-3.2	0	0	977.3	NA	0.0000		9999	5250	6370	0	0
2019/05/01 21:26:00	BASE	7.91	165	12.24	187	-2.9	98	-3.2	0	0	977.4	NA	0.0000		9999	5350	0	0	0
2019/05/01 21:27:00	BASE	7.44	167	12.24	187	-2.9	98	-3.1	0	0	977.4	NA	0.0000		9999	5480	0	0	0
2019/05/01 21:28:00	BASE	6.91	166	11.47	175	-2.9	98	-3.1	0	0	977.4	NA	0.0000		9999	5580	0	0	0
2019/05/01 21:29:00	BASE	7.26	165	11.47	175	-2.9	99	-3.1	0	0	977.4	NA	0.0000		9999	5450	0	0	0
2019/05/01 21:30:00	BASE	7.70	167	11.11	168	-2.9	99	-3.1	0	0	977.4	NA	0.0000		9999	5450	0	0	0
2019/05/01 21:31:00	BASE	7.24	171	11.11	168	-2.9	99	-3.0	0	0	977.4	NA	0.0000		9999	5540	0	0	0
2019/05/01 21:32:00	BASE	7.35	172	11.11	168	-2.9	99	-3.0	0	0	977.4	NA	0.0000		9999	5540	0	0	0
2019/05/01 21:33:00	BASE	7.46	175	11.11	168	-2.9	99	-3.1	0	0	977.4	NA	0.0000		9999	5580	0	0	0
2019/05/01 21:34:00	BASE	7.44	174	9.98	167	-2.9	99	-3.1	0	0	977.4	NA	0.0000		9999	5480	0	0	0
2019/05/01 21:35:00	BASE	7.59	170	9.62	162	-2.9	98	-3.1	0	0	977.4	NA	0.0000		9999	5380	9940	0	0
2019/05/01 21:36:00	BASE	8.23	171	9.62	162	-2.9	98	-3.1	0	0	977.4	NA	0.0000		9999	5350	9780	0	0
2019/05/01 21:37:00	BASE	7.92	170	9.62	162	-2.9	98	-3.2	0	0	977.5	NA	0.0000		9999	5280	0	0	0
2019/05/01 21:38:00	BASE	6.77	168	9.62	162	-2.9	98	-3.2	0	0	977.6	NA	0.0000		9999	5220	9120	0	0
2019/05/01 21:39:00	BASE	6.86	169	9.31	170	-2.9	98	-3.2	0	0	977.6	NA	0.0000		9999	5150	9120	0	0
2019/05/01 21:40:00	BASE	6.89	173	9.31	170	-2.9	98	-3.2	0	0	977.6	NA	0.0000		9999	5150	9150	0	0
2019/05/01 21:41:00	BASE	7.02	176	9.31	170	-2.9	98	-3.1	0	0	977.6	NA	0.0000		9999	9120	0	0	0
2019/05/01 21:42:00	BASE	7.73	177	9.31	170	-2.9	98	-3.1	0	0	977.6	NA	0.0000		9999	9120	0	0	0
2019/05/01 21:43:00	BASE	8.03	177	9.31	170	-2.9	99	-3.0	0	0	977.6	NA	0.0000		9999	9220	0	0	0
2019/05/01 21:44:00	BASE	8.27	173	9.31	170	-2.8	99	-3.0	0	0	977.6	NA	0.0000		9999	9120	0	0	0
2019/05/01 21:45:00	BASE	8.01	172	9.31	170	-2.8	99	-2.9	0	0	977.6	NA	0.0000		9999	8990	0	0	0
2019/05/01 21:46:00	BASE	7.24	173	9.26	170	-2.8	99	-2.9	0	0	977.7	NA	0.0000		9999	8790	0	0	0
2019/05/01 21:47:00	BASE	7.34	177	9.26	170	-2.8	99	-3.0	0	0	977.7	NA	0.0000		9999	8790	0	0	0
2019/05/01 21:48:00	BASE	7.59	178	9.26	170	-2.8	99	-3.0	0	0	977.7	NA	0.0000		9999	8890	0	0	0
2019/05/01 21:49:00	BASE	7.74	178	9.26	185	-2.9	99	-3.0	0	0	977.7	NA	0.0000		9999	8690	0	0	0
2019/05/01 21:50:00	BASE	8.40	182	9.52	183	-2.9	99	-3.0	0	0	977.7	NA	0.0000		9999	6100	8960	0	0
2019/05/01 21:51:00	BASE	8.68	182	9.77	179	-2.9	99	-3.0	0	0	977.7	NA	0.0000		9999	6000	9190	0	0
2019/05/01 21:52:00	BASE	8.62	181	9.77	187	-2.9	99	-3.0	0	0	977.7	NA	0.0000		9999	5910	9320	0	0
2019/05/01 21:53:00	BASE	8.86	183	9.98	184	-2.9	99	-3.0	0	0	977.8	NA	0.0000		9999	5910	0	0	0
2019/05/01 21:54:00	BASE	8.63	181	9.98	184	-2.9	99	-3.0	0	0	977.8	NA	0.0000		9999	5910	0	0	0
2019/05/01 21:55:00	BASE	8.16	178	9.98	184	-2.9	99	-3.0	0	0	977.8	NA	0.0000		9999	5910	0	0	0
2019/05/01 21:56:00	BASE	7.80	176	9.98	184	-2.9	99	-3.0	0	0	977.8	NA	0.0000		9999	5870	0	0	0
2019/05/01 21:57:00	BASE	7.19	177	9.98	184	-2.9	99	-3.0	0	0	977.8	NA	0.0000		9999	5840	0	0	0
2019/05/01 21:58:00	BASE	7.50	177	9.98	184	-2.9	99	-3.0	0	0	977.8	NA	0.0000		9999	6100	8370	0	0
2019/05/01 21:59:00	BASE	7.75	175	9.98	184	-2.9	99	-3.0	0	0	977.8	NA	0.0000		9999	6140	9650	0	0
2019/05/01 22:00:00	BASE	7.29	174	9.98	184	-2.9	99	-3.0	0	0	977.8	NA	0.0000		9999	6170	0	0	0
2019/05/01 22:01:00	BASE	7.33	174	9.98	184	-2.9	100	-2.9	0	0	977.8	NA	0.0000		9999	6140	0	0	0
2019/05/01 22:02:00	BASE	7.84	171	9.98	184	-2.9	100	-2.9	0	0	977.8	NA	0.0000		9999	6170	0	0	0
2019/05/01 22:03:00	BASE	8.40	169	9.77	178	-2.9	100	-2.9	0	0	977.8	NA	0.0000		9999	6100	0	0	0
2019/05/01 22:04:00	BASE	8.67	169	9.36	182	-2.8	100	-2.8	0	0	977.8	NA	0.0000		9999	6140	0	0	0
2019/05/01 22:05:00	BASE	8.59	168	9.31	167	-2.8	100	-2.8	0	0	977.8	NA	0.0000		9999	6140	0	0	0
2019/05/01 22:06:00	BASE	8.61	168	9.31	167	-2.8	100	-2.8	0	0	977.8	NA	0.0000		9999	6140	0	0	0
2019/05/01 22:07:00	BASE	8.51	170	9.31	167	-2.8	100	-2.8	0	0	977.9	NA	0.0000		9999	6140	0	0	0
2019/05/01 22:09:19	BASE	M	M	9.31	167	-2.8	100	-2.8	M	M	M	NA	0.0000		M	M	M	M	M
2019/05/01 22:10:01	BASE	M	M	9.31	167	-2.8	100	-2.8	0	0	977.7	NA	0.0000		9999	6200	0	0	0
2019/05/01 22:11:01	BASE	7.76	183	9.31	167	-2.8	100	-2.9	0	0	977.7	NA	0.0000		9999	6170	0	0	0
2019/05/01 22:12:00	BASE	7.63	183	9.31	167	-2.8	99	-2.9	0	0	977.7	NA	0.0000		9999	6170	9220	0	0
2019/05/01 22:13:00	BASE	7.38	184	9.21	166	-2.8	99	-2.9	0	0	977.7	NA	0.0000		9999	6230	9290	0	0
2019/05/01 22:14:00	BASE	7.22	189	9.21	166	-2.8	99	-2.9	0	0	977.7	NA	0.0000		9999	6300	0	0	0
2019/05/01 22:15:00	BASE	7.09	191	9.21	166	-2.8	99	-2.9	0	0	977.8	NA	0.0000		9999	6270	0	0	0
2019/05/01 22:16:00	BASE	7.26	190	9.21	166	-2.8	100	-2.9	0	0	977.7	NA	0.0000		9999	6270	0	0	0
2019/05/01 22:17:00	BASE	7.38	187	8.54	181	-2.8	100	-2.8	0	0	977.8	NA	0.0000		9999	6230	0	0	0
2019/05/01 22:18:00	BASE	7.34	186	8.85	195	-2.8	100	-2.8	0	0	977.8	NA	0.0000		9999	6200	0	0	0
2019/05/01 22:19:00	BASE	7.50	189	8.85	195	-2.8	100	-2.8	0	0	977.8	NA	0.0000		9999	6230	0	0	0
2019/05/01 22:20:00	BASE	7.62	189	8.85	195	-2.8	100	-2.8	0	0	977.8	NA	0.0000		9999	6230	0	0	0
2019/05/01 22:21:00	BASE	7.78	185	8.85	195	-2.8	100	-2.8	0	0	977.8	NA	0.0000		9999	6230	7150	0	0
2019/05/01 22:22:00	BASE	7.68	181	8.85	195	-2.8	100	-2.8	0	0	977.9	NA	0.0000		9999	6270	0	0	0
2019/05/01 22:23:00	BASE	7.05	178	8.85	195	-2.8	100	-2.8	0	0	977.9	NA	0.0000		9999	6300	0	0	0
2019/05/01 22:24:01	BASE	6.67	180	8.85	195	-2.8	100	-2.8	0	0	977.9	NA	0.0000		9999	6300	7380	0	0
2019/05/01 22:25:01	BASE	6.79	185	8.85	195	-2.8	100	-2.8	0	0	977.9	NA	0.0000		9999	6330	7380	0	0
2019/05/01 22:26:00	BASE	6.79	182	8.85	195	-2.8	100	-2.8	0	0	977.9	NA	0.0000		9999	6330	0	0	0
2019/05/01 22:27:00	BASE	7.05	177	8.85	195	-2.8	100	-2.8	0	0	977.9	NA	0.0000		9999	6370	0	0	0
2019/05/01 22:28:00	BASE	7.74	176	9.05	175	-2.8	100	-2.8	0	0	977.9	NA	0.0000		9999	6300	7190	0	0
2019/05/01 22:29:00	BASE	7.92	175	9.05	175	-2.8	100	-2.8	0	0	977.9	NA	0.0000		9999	6300	0	0	0
2019/05/01 22:30:00	BASE	7.74	177	9.05	175	-2.8	100	-2.8	0	0	977.9	NA	0.0000		9999	6330	0	0	0
2019/05/01 22:31:00	BASE	7.88	176	9.05	175	-2.8	100	-2.8	0	0	977.9	NA	0.0000		9999	6300	0	0	0
2019/05/01 22:32:00	BASE	7.54	173	9.05	175	-2.8	100	-2.8	0	0	978.0	NA	0.0000		9999	6330	7150	0	0
2019/05/01 22:33:00	BASE	6.97	174	9.05	175	-2.8	100	-2.8	0	0	978.0	NA	0.0000		9999	6430	7250	0	0
2019/05/01 22:34:00	BASE	7.54	173	9.05	175	-2.8	100	-2.8	0	0	978.1	NA	0.0000		9999	7190	0	0	0
2019/05/01 22:35:00	BASE	8.27	170	9.16	171	-2.8	100	-2.8	0	0	978.1	NA	0.0000		9999	7190	0	0	0
2019/05/01 22:36:00	BASE	8.55	173	9.77	173	-2.8	100	-2.8	0	0	978.1	NA	0.0000		9999	7050	0	0	0
2019/05/01 22:37:00	BASE	8.72	174	9.77	173	-2.9	100	-2.9	0	0	978.1	NA	0.0000		9999	6860	0	0	0
2019/05/01 22:38:00	BASE	8.32	171	9.77	173	-2.9	100	-2.9	0	0	978.1	NA	0.0000		9999	5740	7050	0	0
2019/05/01 22:39:00	BASE	7.63	168	9.77	173	-2.9	100	-2.9	0	0	978.2	NA	0.0000		9999	5610	6790	0	0
2019/05/01 22:40:00	BASE	7.76	167	9.77	173	-2.9	100	-2.9	0	0	978.1	NA	0.0000		9999	5610	6730	0	0
2019/05/01 22:41:00	BASE	7.80	164	9.77	173	-2.9	100	-2.9	0	0	978.2	NA	0.0000		9999	5510	6730	0	0
2019/05/01 22:42:00	BASE	7.08	161	9.77	173	-2.9	99	-2.9	0	0	978.2	NA	0.0000		9999	5480	6730	7150	0
2019/05/01 22:43:00	BASE	6.83	159	9.77	173	-2.9	99	-3.0	0	0	978.2	NA	0.0000		9999	5480	6730	0	0
2019/05/01 22:44:00	BASE	7.04	158	9.77	173	-2.9	99	-3.0	0	0	978.2	NA	0.0000		9999	5480	7020	0	0
2019/05/01 22:45:00	BASE	7.60	159	9.77	173	-2.9	99	-3.0	0	0	978.2	NA	0.0000		9999	5480	6790	0	0
2019/05/01 22:46:00	BASE	7.69	158	9.62	171	-2.9	99	-3.0	0	0	978.2	NA	0.0000		9999	5480	6730	0	0
2019/05/01 22:47:00	BASE	6.90	157	8.75	158	-2.9	99	-3.0	0	0	978.2	NA	0.0000		9999	5450	6730	0	0
2019/05/01 22:48:00	BASE	6.53	154	8.75	158	-2.9	99	-3.0	0	0	978.3	NA	0.0000		9999	5380	6660	0	0
2019/05/01 22:49:00	BASE	6.30	149	8.75	158	-2.9	99	-3.0	0	0	978.3	NA	0.0000		9999	5280	6630	7350	0
2019/05/01 22:50:00	BASE	6.17	146	8.75	158	-2.9	99	-3.0	0	0	978.3	NA	0.0000		9999	5220	6590	7420	0
2019/05/01 22:51:00	BASE	6.41	145	8.75	158	-2.9	99	-3.0	0	0	978.3	NA	0.0000		9999	5180	6590	7510	0
2019/05/01 22:52:00	BASE	6.58	141	8.75	158	-2.9	99	-3.0	0	0	978.3	NA	0.0000		9999	5180	6590	7710	0
2019/05/01 22:53:00	BASE	6.70	141	8.75	158	-2.9	99	-3.0	0	0	978.3	NA	0.0000		9999	5180	6530	0	0
2019/05/01 22:54:00	BASE	6.71	141	8.75	158	-2.9	99	-3.0	0	0	978.4	NA	0.0000		9999	5180	6270	0	0
2019/05/01 22:55:00	BASE	6.53	141	8.18	160	-2.9	99	-3.0	0	0	978.4	NA	0.0000		9999	6170	0	0	0
2019/05/01 22:56:00	BASE	6.03	139	8.03	150	-2.8	99	-3.0	0	0	978.4	NA	0.0000		9999	6100	0	0	0
2019/05/01 22:57:00	BASE	5.44	136	8.03	150	-2.8	98	-3.1	0	0	978.4	NA	0.0000		9999	5410	6170	0	0
2019/05/01 22:58:00	BASE	5.15	139	8.03	150	-2.8	98	-3.1	0	0	978.4	NA	0.0000		9999	5220	6200	7610	0
2019/05/01 22:59:00	BASE	5.24	142	8.03	150	-2.9	98	-3.1	0	0	978.4	NA	0.0000		9999	5050	6200	0	0
2019/05/01 23:00:00	BASE	5.57	143	7.56	151	-2.9	98	-3.1	0	0	978.4	NA	0.0000		9999	6070	6690	0	0
2019/05/01 23:01:00	BASE	5.60	144	7.46	139	-2.9	98	-3.1	0	0	978.4	NA	0.0000		9999	6100	0	0	0
2019/05/01 23:02:00	BASE	5.40	147	7.41	140	-2.8	98	-3.1	0	0	978.4	NA	0.0000		9999	5250	7940	0	0
2019/05/01 23:03:00	BASE	5.29	147	6.94	143	-2.8	98	-3.1	0	0	978.5	NA	0.0000		9999	7970	0	0	0
2019/05/01 23:04:00	BASE	5.46	143	6.94	143	-2.8	98	-3.1	0	0	978.4	NA	0.0000		9999	8100	0	0	0
2019/05/01 23:05:00	BASE	5.90	148	6.53	156	-2.8	98	-3.1	0	0	978.5	NA	0.0000		9999	8270	0	0	0
2019/05/01 23:06:00	BASE	5.68	152	6.53	156	-2.8	98	-3.0	0	0	978.5	NA	0.0000		9999	8140	0	0	0
2019/05/01 23:07:01	BASE	5.43	150	6.53	156	-2.7	98	-3.0	0	0	978.5	NA	0.0000		9999	8140	0	0	0
2019/05/01 23:08:01	BASE	5.42	152	6.53	156	-2.7	98	-2.9	0	0	978.5	NA	0.0000		9999	8100	0	0	0
2019/05/01 23:09:01	BASE	5.13	158	6.53	156	-2.7	98	-2.9	0	0	978.5	NA	0.0000		9999	7120	0	0	0
2019/05/01 23:10:01	BASE	5.24	161	6.53	156	-2.7	99	-2.8	0	0	978.5	NA	0.0000		9999	7320	8270	0	0
2019/05/01 23:11:00	BASE	5.48	154	6.53	156	-2.7	99	-2.8	0	0	978.5	NA	0.0000		9999	8140	0	0	0
2019/05/01 23:12:00	BASE	5.52	146	6.53	156	-2.6	99	-2.8	0	0	978.5	NA	0.0000		9999	8100	0	0	0
2019/05/01 23:13:00	BASE	5.25	145	6.53	156	-2.6	99	-2.7	0	0	978.5	NA	0.0000		9999	7970	0	0	0
2019/05/01 23:14:00	BASE	4.85	149	6.53	156	-2.6	99	-2.7	0	0	978.5	NA	0.0000		9999	8330	0	0	0
2019/05/01 23:15:00	BASE	4.61	155	6.17	142	-2.6	100	-2.7	0	0	978.5	NA	0.0000		9999	8270	0	0	0
2019/05/01 23:16:00	BASE	4.75	159	6.17	142	-2.6	100	-2.7	0	0	978.5	NA	0.0000		9999	8270	0	0	0
2019/05/01 23:17:00	BASE	4.75	153	6.17	142	-2.6	100	-2.6	0	0	978.6	NA	0.0000		9999	7970	0	0	0
2019/05/01 23:18:00	BASE	4.73	150	6.17	142	-2.7	100	-2.7	0	0	978.6	NA	0.0000		9999	7870	0	0	0
2019/05/01 23:19:00	BASE	5.17	155	6.17	142	-2.7	100	-2.7	0	0	978.6	NA	0.0000		9999	7580	0	0	0
2019/05/01 23:20:00	BASE	4.93	155	6.17	142	-2.7	100	-2.7	0	0	978.6	NA	0.0000		9999	7680	0	0	0
2019/05/01 23:21:00	BASE	4.69	152	6.17	142	-2.6	100	-2.6	0	0	978.6	NA	0.0000		9999	8270	0	0	0
2019/05/01 23:22:00	BASE	5.35	148	6.38	155	-2.6	100	-2.6	0	0	978.6	NA	0.0000		9999	8070	0	0	0
2019/05/01 23:23:00	BASE	5.46	147	6.38	155	-2.6	100	-2.6	0	0	978.7	NA	0.0000		9999	8240	0	0	0
2019/05/01 23:24:00	BASE	4.64	148	6.38	155	-2.6	100	-2.6	0	0	978.7	NA	0.0000		9999	8330	0	0	0
2019/05/01 23:25:00	BASE	4.07	153	6.38	155	-2.6	100	-2.6	0	0	978.7	NA	0.0000		9999	8600	0	0	0
2019/05/01 23:26:00	BASE	4.09	162	6.38	155	-2.6	100	-2.6	0	0	978.7	NA	0.0000		9999	8960	0	0	0
2019/05/01 23:27:00	BASE	4.23	167	6.38	155	-2.6	100	-2.6	0	0	978.8	NA	0.0000		9999	9510	0	0	0
2019/05/01 23:28:00	BASE	4.53	169	6.38	155	-2.6	100	-2.6	0	0	978.8	NA	0.0000		9999	8040	0	0	0
2019/05/01 23:29:00	BASE	4.28	169	6.38	155	-2.5	100	-2.5	0	0	978.9	NA	0.0000		9999	8500	0	0	0
2019/05/01 23:30:00	BASE	3.44	159	6.38	155	-2.5	100	-2.5	0	0	978.9	NA	0.0000		9999	8170	0	0	0
2019/05/01 23:31:00	BASE	2.70	146	6.38	155	-2.5	100	-2.5	0	0	978.9	NA	0.0000		9999	8530	0	0	0
2019/05/01 23:32:00	BASE	1.82	132	5.50	146	-2.5	100	-2.5	0	0	978.9	NA	0.0000		9999	8530	0	0	0
2019/05/01 23:33:00	BASE	1.68	131	5.25	175	-2.6	100	-2.6	0	0	979.0	NA	0.0000		9999	7190	0	0	0
2019/05/01 23:34:00	BASE	1.94	148	5.25	175	-2.6	100	-2.6	0	0	979.0	NA	0.0000		9999	8370	0	0	0
2019/05/01 23:35:00	BASE	2.15	163	5.25	175	-2.7	100	-2.7	0	0	979.0	NA	0.0000		9999	8270	0	0	0
2019/05/01 23:36:00	BASE	2.74	166	5.25	175	-2.7	100	-2.7	0	0	979.0	NA	0.0000		9999	8200	0	0	0
2019/05/01 23:37:00	BASE	3.02	160	5.25	175	-2.7	100	-2.7	0	0	979.0	NA	0.0000		9999	8170	0	0	0
2019/05/01 23:38:00	BASE	3.05	160	4.32	170	-2.8	100	-2.8	0	0	979.0	NA	0.0000		9999	8270	0	0	0
2019/05/01 23:39:00	BASE	2.98	156	4.32	170	-2.8	100	-2.8	0	0	979.1	NA	0.0000		9999	8200	0	0	0
2019/05/01 23:40:00	BASE	2.86	148	4.32	170	-2.8	100	-2.8	0	0	979.1	NA	0.0000		9999	8300	0	0	0
2019/05/01 23:41:00	BASE	3.39	153	4.32	157	-2.8	100	-2.8	0	0	979.1	NA	0.0000		9999	8370	0	0	0
2019/05/01 23:42:00	BASE	4.09	164	4.94	172	-2.8	100	-2.8	0	0	979.2	NA	0.0000		9999	8660	0	0	0
2019/05/01 23:43:00	BASE	4.58	168	5.40	171	-2.8	100	-2.8	0	0	979.2	NA	0.0000		9999	8530	0	0	0
2019/05/01 23:44:00	BASE	4.54	170	5.40	171	-2.7	100	-2.7	0	0	979.2	NA	0.0000		9999	8560	0	0	0
2019/05/01 23:45:00	BASE	4.08	172	5.40	171	-2.7	100	-2.7	0	0	979.2	NA	0.0000		9999	8240	0	0	0
2019/05/01 23:46:00	BASE	3.94	176	5.40	171	-2.7	100	-2.7	0	0	979.2	NA	0.0000		9999	7680	0	0	0
2019/05/01 23:47:04	BASE	3.70	180	5.40	171	-2.7	100	-2.7	0	0	M	NA	0.0000		9999	7680	0	0	0
2019/05/01 23:48:00	BASE	3.71	172	5.40	171	-2.7	100	-2.7	0	0	979.2	NA	0.0000		9999	8760	0	0	0
2019/05/01 23:49:00	BASE	3.77	166	5.40	171	-2.7	100	-2.7	0	0	979.2	NA	0.0000		9999	8140	0	0	0
2019/05/01 23:50:00	BASE	3.52	174	5.40	171	-2.7	100	-2.7	0	0	979.2	NA	0.0000		9999	8760	0	0	0
2019/05/01 23:51:00	BASE	3.33	181	5.40	171	-2.7	100	-2.7	0	0	979.2	NA	0.0000		9999	9120	0	0	0
2019/05/01 23:52:00	BASE	3.10	168	5.40	171	-2.7	100	-2.7	0	0	979.2	NA	0.0000		9999	8660	0	0	0
2019/05/01 23:53:00	BASE	2.86	154	4.58	177	-2.8	100	-2.8	0	0	979.2	NA	0.0000		9999	8660	0	0	0
2019/05/01 23:54:00	BASE	2.70	159	4.58	177	-2.8	100	-2.8	0	0	979.2	NA	0.0000		9999	8690	0	0	0
2019/05/01 23:55:00	BASE	2.53	157	4.58	177	-2.9	100	-2.9	0	0	979.3	NA	0.0000		9999	8730	0	0	0
2019/05/01 23:56:00	BASE	2.75	159	4.42	163	-2.9	100	-2.9	0	0	979.3	NA	0.0000		9999	5410	8690	0	0
2019/05/01 23:57:00	BASE	3.05	164	4.42	163	-3.0	100	-3.0	0	0	979.3	NA	0.0000		9999	8830	0	0	0
2019/05/01 23:58:00	BASE	2.90	160	4.12	177	-3.0	100	-3.0	0	0	979.3	NA	0.0000		9999	8920	0	0	0
2019/05/01 23:59:00	BASE	3.23	163	4.53	165	-3.1	100	-3.1	0	0	979.3	NA	0.0000		9999	9060	0	0	0